GFSSGP_sfc_temp_000.txt.gz
Temp
84 85 89 85 71 71 66 68 74 73 75 81 83 79 80 83 80 74 83 86 84 86 86 83 78 79 79 78 78 77 77 77 77 78 79 79 78 78 77 76 77 77 77 76 76 77 77 76 76
87 87 82 78 67 62 67 72 70 74 79 82 82 80 79 81 87 86 87 85 84 87 87 87 77 79 78 78 77 77 77 77 77 77 79 79 78 79 78 77 77 76 75 75 74 75 76 75 75
85 86 79 72 63 61 65 70 72 77 81 78 80 84 83 83 86 87 86 86 85 86 87 86 77 78 78 78 77 77 77 77 77 77 77 77 77 78 78 77 77 75 75 74 74 74 74 74 75
84 85 79 68 62 66 66 72 74 76 80 80 82 80 86 87 86 86 85 86 86 87 87 80 77 78 78 77 77 77 77 77 77 77 77 77 77 77 77 76 75 75 74 74 74 74 74 74 74
86 79 68 63 63 68 74 75 75 72 77 79 80 80 82 84 84 85 85 85 86 86 87 85 77 78 77 77 77 77 77 77 77 77 77 77 77 77 77 76 75 74 74 74 74 74 74 74 74
76 76 63 60 63 69 74 75 74 75 77 79 79 79 82 85 85 83 84 85 86 85 84 85 77 77 77 77 77 77 76 76 76 77 77 77 76 76 76 76 74 74 74 74 75 74 74 74 74
70 68 63 62 63 66 71 76 74 74 77 76 81 76 85 88 84 83 84 85 84 85 84 85 85 80 75 76 76 76 76 76 76 76 76 75 73 74 75 75 74 74 74 74 74 74 74 74 74
73 70 62 64 64 63 72 74 76 75 76 83 83 78 80 85 84 82 82 83 83 82 83 84 85 85 85 84 74 74 75 74 75 74 73 72 72 72 73 73 73 73 73 73 73 73 74 74 73
73 63 59 62 62 67 73 70 77 79 76 80 82 83 84 84 81 80 79 79 80 80 82 83 84 84 85 84 81 74 73 73 72 73 71 73 81 81 78 72 70 71 72 72 73 73 73 72 70
68 62 63 70 72 70 72 72 73 73 76 78 81 85 86 85 85 81 82 82 80 81 81 83 83 84 84 82 83 83 83 83 83 82 81 82 81 81 76 71 68 70 70 70 71 71 71 71 79
68 62 70 70 72 72 70 72 74 71 70 77 77 82 84 84 84 84 84 83 83 83 83 82 82 83 83 82 84 84 84 83 83 81 81 81 80 81 80 79 78 78 71 78 78 78 79 79 79
63 69 71 71 72 70 69 74 71 73 74 81 82 83 81 82 83 85 84 83 82 81 81 83 83 82 82 83 82 83 83 82 82 82 81 81 80 79 79 79 79 78 79 79 79 79 79 78 79
64 69 70 72 71 71 72 69 71 72 79 83 82 80 80 81 82 84 82 81 82 80 81 81 82 81 81 80 82 82 82 82 82 81 81 81 80 78 79 79 79 79 79 79 79 79 79 79 79
68 68 69 72 71 71 67 70 69 75 82 80 79 79 79 76 76 79 79 80 81 80 79 81 81 82 82 81 80 81 82 82 82 81 80 79 79 78 77 78 78 79 79 79 79 78 77 77 78
70 62 67 69 69 69 71 65 68 78 77 75 76 76 72 71 73 73 74 76 76 79 77 78 78 81 81 81 80 81 82 80 81 81 80 78 78 77 77 77 77 79 79 78 78 77 77 76 77
62 62 56 68 69 70 68 59 73 75 75 73 73 73 71 70 71 72 72 74 75 77 77 76 76 77 79 80 80 82 82 82 81 81 81 78 78 77 76 76 76 77 77 76 76 75 74 74 74
58 53 55 60 69 68 65 63 72 74 74 74 75 73 71 71 72 72 72 73 74 75 76 76 76 77 77 78 79 78 78 79 79 79 78 76 76 75 76 75 75 76 75 75 74 74 73 70 71
50 53 58 58 65 64 63 63 70 75 71 73 73 71 71 70 68 70 71 73 73 75 76 76 76 77 78 78 78 78 77 77 77 76 76 76 76 75 75 75 74 75 74 73 73 72 73 73 73
61 59 56 62 65 61 62 64 67 73 72 71 71 71 70 69 68 69 70 74 74 75 75 76 75 76 79 78 76 75 72 73 73 73 73 73 73 73 72 72 72 72 71 70 70 70 68 69 71
60 56 55 64 62 61 63 62 68 72 70 72 70 70 69 68 69 68 70 71 72 73 74 74 73 74 75 75 74 73 72 71 71 70 70 71 71 70 70 69 69 68 68 68 67 66 64 66 68
57 55 57 58 59 61 59 60 65 65 65 65 70 71 70 68 67 68 68 69 70 70 70 70 71 71 73 74 73 72 72 71 70 69 68 68 69 68 67 67 67 67 66 65 64 64 62 60 64
52 62 59 55 51 50 60 51 62 68 63 63 66 67 67 67 67 67 68 68 68 67 68 69 70 70 71 73 72 70 68 65 66 67 67 67 66 65 65 65 64 64 65 63 63 64 62 61 58
56 61 58 55 52 53 55 52 61 60 60 61 64 66 66 67 66 65 65 65 66 66 66 68 68 68 68 69 70 69 66 66 66 66 65 65 65 63 62 62 62 62 62 61 61 60 60 61 59
60 57 55 54 53 46 55 54 58 62 64 64 65 65 65 65 65 65 65 65 64 65 65 66 66 65 66 66 66 65 64 64 63 62 63 63 64 62 61 60 61 60 59 58 59 59 59 58 58
58 52 37 37 39 45 52 50 60 65 64 66 64 65 66 66 64 64 63 64 64 63 63 65 64 62 64 63 63 62 61 61 60 61 60 60 61 59 58 58 58 58 57 57 57 57 57 57 55
50 55 48 38 42 47 49 48 60 65 66 68 70 68 66 65 66 64 64 64 63 62 63 63 62 61 61 61 60 61 61 60 60 59 59 59 58 58 57 57 57 57 57 56 57 56 57 57 56
45 44 58 48 48 48 53 57 65 63 62 63 66 66 64 64 64 64 64 64 63 62 62 61 60 59 59 59 60 59 59 58 57 57 57 57 57 56 56 56 55 56 55 55 55 56 55 55 55
53 59 45 49 40 39 49 51 58 61 62 61 63 63 64 64 63 63 63 63 63 61 60 60 60 58 58 58 58 57 57 57 56 56 55 54 55 55 54 54 54 54 54 54 54 53 54 53 53
52 47 50 54 50 47 46 52 64 63 63 63 64 66 65 63 63 63 63 62 60 59 59 58 58 57 56 56 56 56 55 54 55 54 54 53 53 53 53 52 52 52 53 53 52 52 52 50 51
58 54 55 48 43 49 49 54 64 64 62 62 65 65 65 65 64 63 62 59 58 58 57 57 56 56 55 54 55 53 53 53 53 53 52 53 52 52 51 51 51 51 51 51 50 50 50 49 49

GFSSGP_sfc_temp_003.txt.gz
Temp
87 93 89 86 71 72 68 72 79 76 77 84 85 82 81 85 81 73 87 91 90 89 89 83 79 79 79 78 78 77 77 77 77 78 78 79 78 78 78 77 77 77 77 76 76 76 77 76 76
89 91 87 78 66 63 67 77 74 78 82 85 85 84 82 82 91 88 89 89 90 91 90 88 78 79 78 78 77 77 77 77 77 77 78 78 78 78 77 78 77 76 75 75 75 74 75 75 75
91 91 78 72 66 59 65 74 76 79 84 83 82 87 87 84 90 91 91 90 90 90 90 85 78 79 78 78 77 77 77 77 77 77 77 77 77 78 78 78 77 75 75 75 74 74 74 74 74
87 86 82 67 65 70 69 74 77 77 83 85 84 81 89 90 90 90 91 91 91 91 91 79 78 78 78 78 77 77 77 77 77 76 76 77 77 77 77 76 75 75 74 74 74 74 74 74 74
88 81 68 65 67 71 78 80 78 74 78 80 82 80 84 88 90 90 90 91 91 91 91 85 78 78 78 77 77 77 77 77 77 77 76 77 77 77 77 76 75 75 74 74 75 75 74 74 74
74 78 64 62 68 73 77 81 79 79 80 81 80 79 82 90 90 88 89 90 91 90 88 86 77 77 77 77 77 77 77 77 76 76 77 77 75 76 76 76 75 75 74 74 74 75 75 75 74
70 69 64 66 68 70 75 81 78 78 78 80 84 77 87 88 88 87 89 91 89 90 88 88 85 80 75 76 76 76 76 76 76 76 76 75 73 74 75 75 75 74 74 74 74 74 74 74 74
75 71 63 67 65 66 77 77 80 78 77 87 86 79 81 87 89 87 87 87 88 87 87 88 87 86 83 82 75 75 75 75 75 75 74 72 73 73 74 74 74 73 73 74 73 73 73 74 73
78 64 60 64 66 70 78 74 81 83 79 82 86 85 88 89 89 86 84 83 85 84 86 87 87 87 87 87 81 75 74 73 73 73 71 73 79 81 79 73 72 71 72 72 73 73 73 72 71
69 62 64 73 75 73 77 75 77 76 77 79 83 89 90 90 89 86 85 86 84 84 84 86 86 86 86 86 85 83 84 82 83 83 82 83 83 83 79 72 70 71 71 71 72 72 72 71 75
69 62 72 74 77 76 74 74 79 74 71 78 79 84 88 87 87 87 87 88 88 87 87 85 85 86 86 85 85 86 85 84 84 83 83 83 82 82 81 81 80 79 71 76 77 77 77 79 78
65 71 72 74 76 73 71 76 74 75 76 83 84 85 86 84 86 87 88 88 88 86 85 86 86 84 85 85 83 85 84 84 84 83 83 82 82 81 80 80 80 79 79 78 78 79 79 79 79
64 70 74 75 75 74 75 71 72 74 81 85 86 85 84 84 86 88 88 87 87 85 85 85 85 84 83 83 84 84 84 83 84 82 83 82 80 80 80 80 80 80 80 79 79 79 79 80 80
68 70 71 74 73 74 70 72 74 76 82 83 83 82 84 84 83 83 85 84 85 85 83 85 85 85 84 83 82 83 84 84 83 83 82 81 80 79 78 78 79 78 79 78 77 76 76 77 78
68 62 68 70 73 72 74 66 68 78 82 79 80 82 81 79 79 80 80 80 81 83 81 81 82 84 84 83 82 83 83 82 82 81 81 80 80 79 78 78 77 74 75 77 77 78 77 77 77
60 59 52 66 71 73 70 58 73 81 78 77 78 79 77 75 76 77 77 79 80 81 80 79 79 81 82 83 82 83 82 82 80 81 81 79 79 78 77 75 74 77 78 77 76 75 75 74 75
52 49 51 59 72 70 68 62 74 80 77 76 79 80 77 75 75 75 76 78 79 80 80 79 80 81 81 82 82 81 80 80 80 79 78 78 77 78 77 75 75 77 75 75 74 73 73 71 72
47 49 55 55 66 68 65 64 72 77 77 75 78 78 76 74 73 74 76 78 79 80 80 80 80 80 80 80 80 79 78 77 77 76 76 76 76 75 74 74 74 74 73 72 71 70 71 70 70
56 54 56 61 68 67 63 64 70 75 76 75 76 76 75 73 73 74 76 78 78 79 79 79 79 80 80 79 76 74 72 73 73 73 74 74 73 73 71 71 71 70 69 69 69 68 66 66 68
53 54 57 60 66 64 64 64 71 73 74 76 76 75 74 71 72 72 74 76 77 77 77 77 77 78 78 76 75 74 73 72 72 71 71 72 71 70 70 68 68 68 67 66 65 64 62 64 65
54 52 55 56 64 64 63 59 64 71 74 73 76 77 74 72 70 71 73 73 74 73 73 73 73 74 74 74 74 73 73 72 70 69 69 68 69 68 67 66 66 65 65 63 63 62 61 58 62
46 57 61 58 57 51 63 52 65 69 66 68 72 73 72 71 72 71 71 71 71 70 72 73 73 74 75 75 74 72 69 66 67 68 68 68 67 65 65 65 64 64 64 61 61 63 61 59 56
49 58 61 58 57 53 54 53 62 70 65 66 70 71 71 71 70 69 69 69 70 70 69 71 71 71 72 72 72 70 68 67 67 68 67 67 67 65 63 63 62 61 61 60 59 59 59 59 58
56 56 56 58 56 45 56 55 59 63 67 69 70 70 69 69 69 69 69 68 67 67 68 68 68 68 69 69 69 67 66 66 65 64 64 65 65 64 61 61 61 60 59 58 57 58 57 57 57
53 47 41 40 42 45 60 56 61 67 69 72 68 68 69 69 68 67 66 66 66 65 66 67 67 65 67 66 66 65 64 64 62 63 62 62 62 60 58 58 58 58 58 57 57 56 56 57 55
47 50 48 38 41 48 56 49 61 70 73 74 72 70 69 68 68 66 67 67 66 66 66 66 65 64 65 64 63 64 63 62 62 61 60 60 59 59 58 57 57 57 57 57 56 55 56 56 54
44 47 59 53 55 52 53 60 66 69 67 69 70 69 67 68 68 67 68 67 66 65 66 65 64 62 63 62 63 62 62 60 59 59 59 58 58 58 57 57 56 56 56 56 55 54 54 54 53
51 61 49 54 42 42 51 55 57 63 65 66 68 68 68 68 68 67 67 67 67 65 64 64 64 62 61 62 61 60 59 59 58 58 56 56 56 56 55 55 55 54 55 55 54 53 54 52 52
45 49 55 59 55 48 46 53 68 66 67 66 68 70 68 68 67 67 67 67 65 64 62 62 61 60 59 60 60 58 57 57 57 56 55 55 55 54 53 53 53 53 53 53 52 52 52 51 50
55 52 58 52 46 53 52 53 70 69 68 68 69 70 70 69 68 68 67 65 62 61 61 60 60 59 58 58 58 56 55 55 55 54 54 54 53 53 53 52 52 52 52 51 50 49 50 49 48

GFSSGP_sfc_temp_006.txt.gz
Temp
81 87 84 73 59 58 56 62 71 68 70 75 78 74 71 74 72 60 76 82 84 81 79 78 79 79 79 78 78 77 77 77 77 78 79 79 78 79 77 77 77 77 77 76 76 76 76 76 75
80 84 77 67 55 51 56 68 68 71 74 77 78 75 72 71 80 76 76 82 85 83 79 79 78 78 78 78 77 77 77 77 77 77 78 78 78 78 78 78 77 76 75 75 74 74 74 75 75
83 87 67 61 57 51 55 66 68 72 76 75 74 78 75 72 80 78 80 83 85 82 82 79 78 78 78 78 77 77 77 77 77 77 77 76 77 78 78 78 78 75 74 74 74 74 74 74 74
79 74 70 57 56 64 61 67 71 71 75 78 76 71 77 78 77 79 83 85 82 81 77 76 77 78 77 77 77 77 77 77 76 76 76 77 77 77 77 77 76 75 74 74 74 74 74 74 74
77 69 57 56 60 66 68 72 71 67 71 73 74 70 71 77 81 82 82 85 82 81 77 76 77 77 77 77 77 77 77 77 77 76 76 77 76 77 77 76 75 75 74 74 74 75 75 74 74
65 67 54 53 60 69 69 74 71 70 73 73 69 70 68 77 77 78 82 79 84 81 80 77 76 77 77 77 76 76 77 77 76 76 76 76 75 76 76 76 75 75 75 75 74 74 75 75 74
62 59 55 57 60 65 69 75 66 70 69 71 74 67 72 75 77 81 79 81 79 82 80 77 75 75 75 75 76 76 76 76 76 76 76 74 73 74 75 75 75 74 74 74 74 74 74 74 74
67 63 56 58 58 60 72 73 73 70 68 78 78 66 66 73 78 79 77 77 77 79 79 77 77 76 73 72 74 74 75 74 74 74 73 72 71 72 74 73 73 73 73 73 73 73 74 73 73
72 55 53 57 60 64 73 69 76 77 71 74 77 76 77 81 80 77 74 74 74 78 77 78 78 78 77 76 74 73 73 73 73 72 71 70 67 70 71 71 71 72 72 72 73 73 73 72 71
63 54 56 67 68 67 72 70 71 70 70 70 74 80 82 81 77 73 74 72 73 74 76 77 77 77 77 81 72 72 73 70 70 71 69 68 70 69 73 69 71 72 72 71 72 73 72 70 68
63 55 65 68 72 73 70 69 73 67 65 70 70 74 76 74 74 76 76 77 76 76 76 77 77 77 76 76 74 73 73 72 72 73 73 72 73 69 68 67 68 65 67 66 69 68 68 66 68
59 66 67 68 72 71 66 70 68 69 68 75 75 76 76 76 74 76 76 73 74 76 76 77 77 76 75 75 73 73 73 72 71 72 74 70 69 68 69 68 69 68 68 68 69 68 72 72 73
61 65 69 71 71 71 72 66 66 68 73 76 77 77 75 75 75 77 74 76 73 75 75 75 76 74 75 74 73 73 72 72 72 72 73 71 69 70 69 69 69 72 72 72 71 72 72 73 74
64 65 66 69 70 70 67 66 67 69 74 74 76 74 73 74 74 70 74 72 72 74 75 76 76 75 75 73 73 72 72 74 72 73 73 73 70 68 68 71 71 71 71 72 71 71 71 71 70
63 55 63 64 67 68 69 62 63 71 73 72 72 71 69 71 71 67 70 71 71 71 72 73 74 75 73 73 73 72 72 73 73 74 72 73 73 69 72 70 69 70 67 67 66 66 65 64 66
53 54 46 61 66 68 65 53 66 73 71 69 69 66 69 69 68 69 69 68 68 70 70 70 74 71 73 73 72 74 75 72 71 71 73 71 71 69 71 65 63 64 64 63 62 61 61 60 60
50 43 46 52 65 65 62 56 66 72 69 67 66 68 68 67 67 67 67 66 68 70 69 69 71 71 73 73 73 73 71 73 73 72 67 67 67 67 64 63 62 62 61 60 60 59 58 58 60
41 43 49 48 58 63 60 59 65 69 68 66 65 66 66 66 65 65 68 67 70 70 70 69 70 71 71 70 70 70 68 67 64 64 64 65 64 64 61 61 60 60 59 58 57 56 57 55 55
50 50 48 55 61 59 58 60 63 67 66 64 65 64 65 63 65 66 67 67 68 68 69 68 69 70 69 67 66 64 61 62 61 62 64 62 62 62 59 58 58 58 56 56 57 55 53 52 53
48 46 45 55 61 59 60 59 63 65 67 67 66 65 63 61 62 64 65 64 66 65 66 67 67 67 67 66 64 63 61 60 60 60 60 61 60 60 61 56 55 55 54 54 53 52 50 51 52
48 45 46 48 59 57 56 53 57 65 68 68 69 67 65 62 61 62 62 62 62 61 62 64 64 65 66 66 66 63 61 59 57 57 56 58 58 58 57 55 54 53 52 50 50 50 49 47 50
42 52 51 48 49 42 55 38 54 61 62 62 61 62 63 61 62 63 62 60 59 59 61 63 64 64 64 63 61 59 56 54 55 56 56 56 57 56 56 55 53 52 51 49 49 53 49 48 45
46 54 50 48 45 43 50 43 50 60 58 56 59 61 61 61 61 61 60 61 61 59 58 59 61 61 61 61 60 57 55 55 55 55 55 55 55 54 54 54 52 50 49 48 48 48 47 47 46
54 48 47 47 43 37 45 47 47 54 58 59 60 61 62 61 60 60 60 60 58 57 57 58 58 59 59 59 58 56 55 54 53 52 52 52 52 51 52 53 50 50 49 48 47 47 47 46 46
48 43 34 33 32 34 52 48 46 57 63 64 62 61 61 60 59 58 56 56 56 56 56 58 57 56 57 56 56 55 54 53 51 50 50 50 49 49 49 49 48 47 48 48 48 46 45 45 44
43 42 34 30 31 39 53 42 49 62 64 66 66 63 62 60 58 57 57 56 56 57 56 56 56 55 55 55 54 53 53 51 50 50 49 49 49 48 49 48 48 48 48 48 47 45 45 46 43
41 35 43 38 49 40 43 48 55 59 59 60 61 61 59 60 59 57 57 57 56 56 56 55 54 54 54 53 52 51 51 50 49 49 49 48 48 53 48 47 47 47 47 47 46 44 44 44 43
44 50 36 42 36 34 40 44 45 52 54 58 59 58 59 60 59 58 58 57 57 56 55 55 54 53 53 52 51 51 49 49 49 48 47 47 47 47 46 46 46 46 46 46 44 43 44 44 45
42 41 44 46 45 38 35 42 56 55 58 57 59 61 60 60 60 59 58 57 56 54 54 53 52 52 51 51 50 48 48 48 48 47 46 46 46 46 45 45 45 45 44 45 43 42 44 43 43
49 47 47 44 39 43 41 41 59 58 59 60 59 63 62 62 60 59 58 56 53 52 52 51 51 51 50 50 49 47 47 47 46 45 45 46 44 45 44 45 44 44 44 44 42 42 42 42 40

GFSSGP_sfc_temp_009.txt.gz
Temp
76 76 74 70 56 52 50 57 62 63 64 66 70 67 65 67 67 58 72 74 74 73 76 78 78 79 79 78 77 77 77 77 78 78 79 79 79 79 78 77 78 77 76 76 75 75 75 75 75
72 77 70 62 51 44 49 58 60 64 67 70 72 70 67 65 71 71 71 77 77 76 75 76 78 78 78 78 77 77 77 77 77 78 78 79 79 79 79 78 77 76 75 75 74 74 74 74 74
76 75 62 55 50 48 49 58 60 68 71 70 69 70 67 66 72 72 74 79 77 75 77 77 78 78 78 78 77 77 77 77 77 77 77 76 77 77 78 78 77 75 74 74 74 74 74 74 74
71 67 62 52 50 57 58 60 65 66 72 73 69 65 69 72 71 75 78 80 75 74 77 76 77 78 77 77 77 77 77 77 76 76 76 76 77 76 77 77 76 75 74 74 74 74 74 74 74
67 60 50 47 52 59 64 66 66 63 65 69 69 64 65 71 74 77 78 79 73 70 74 76 77 77 77 77 77 77 77 77 76 76 76 77 76 76 77 76 75 74 74 74 74 75 75 75 74
59 58 46 44 51 61 64 69 67 65 64 69 67 65 63 68 73 73 79 76 75 73 75 76 76 76 76 77 76 76 77 77 76 76 76 76 75 76 76 76 75 75 75 74 74 74 74 74 74
55 50 46 48 52 56 66 68 66 64 61 65 69 63 64 67 74 77 74 77 75 75 73 73 73 74 75 75 75 76 76 76 76 76 75 74 73 74 75 75 75 75 74 74 74 74 74 74 74
59 54 48 48 52 54 65 69 70 67 64 71 71 63 61 70 76 76 76 77 75 74 73 70 70 72 71 71 74 74 74 74 74 74 73 71 71 71 73 73 73 74 73 73 73 73 74 73 73
62 47 47 50 53 58 67 65 70 73 68 68 70 70 74 76 74 71 70 71 71 74 72 71 71 71 71 70 72 73 73 72 72 71 71 69 66 67 68 69 71 72 73 73 73 73 73 72 71
54 46 51 59 61 61 66 65 67 66 64 64 67 75 74 73 70 69 68 68 69 70 72 73 72 72 71 77 70 68 70 68 67 68 66 66 65 66 70 68 70 72 72 72 73 73 72 70 65
55 51 58 61 66 66 65 64 68 62 60 65 66 69 71 74 72 74 71 68 70 72 72 73 72 73 71 72 69 67 67 66 66 67 67 66 68 67 67 65 65 65 66 65 67 66 66 67 67
51 59 61 63 66 65 62 67 63 64 64 69 70 71 70 72 71 74 72 71 69 70 72 73 74 72 72 71 70 68 69 67 66 68 69 67 65 65 65 65 65 67 69 69 70 70 71 71 71
52 58 63 66 66 66 67 63 63 63 68 71 72 73 70 70 70 73 70 72 70 70 71 72 72 71 71 70 70 69 68 69 69 69 70 68 67 70 68 67 68 70 70 70 69 70 68 66 65
57 58 61 64 64 65 64 62 62 65 68 68 70 69 69 69 70 66 69 68 67 70 70 72 72 71 71 69 69 69 71 73 70 73 73 73 68 66 68 69 69 69 69 66 62 61 60 60 60
58 52 56 58 62 61 64 59 59 65 67 66 67 67 67 67 68 65 65 67 67 67 69 70 71 71 70 70 69 72 70 73 72 72 72 72 71 69 69 67 64 63 60 60 60 60 58 59 61
49 50 44 55 58 61 62 51 62 67 64 64 65 63 64 66 67 64 67 67 67 67 67 68 73 70 69 69 69 72 72 72 71 71 70 69 66 65 65 61 58 58 58 57 57 55 55 54 54
42 40 41 47 58 59 60 53 61 65 64 62 61 62 62 62 61 62 65 65 66 65 66 66 67 68 68 68 71 71 71 70 69 68 66 62 63 62 59 57 57 57 56 54 55 53 51 51 51
41 38 45 43 52 56 53 55 59 63 64 61 61 60 59 60 61 62 65 63 65 65 65 65 65 66 68 68 69 68 66 63 64 61 61 60 60 59 57 56 55 55 54 52 52 51 51 49 49
44 44 45 49 55 53 54 54 59 63 61 58 58 57 57 58 60 63 63 62 63 63 63 64 66 66 68 65 63 61 57 58 59 59 59 58 57 57 54 53 53 53 51 50 51 50 49 48 49
44 40 39 47 53 50 52 53 59 62 64 60 60 56 57 56 58 60 61 60 61 60 61 62 62 63 65 64 61 60 59 56 56 56 56 56 56 56 56 52 51 51 50 49 48 47 46 47 47
42 39 40 41 49 52 48 47 53 59 63 63 62 61 60 59 58 57 56 57 57 57 58 60 62 63 64 64 63 60 57 55 53 53 53 54 55 54 53 52 50 49 48 46 46 46 45 43 45
37 48 48 46 44 38 50 39 50 56 57 59 58 58 56 57 58 58 56 55 56 56 58 59 61 62 62 62 60 57 54 52 52 52 52 52 53 52 52 51 50 48 47 45 45 49 45 44 42
41 50 47 47 43 42 43 40 48 55 55 57 53 57 57 59 60 57 55 57 56 56 55 55 57 58 57 57 56 54 52 52 51 51 50 50 50 51 51 50 48 47 46 45 45 44 43 43 42
49 44 44 45 42 33 40 39 41 51 56 60 53 57 57 58 57 56 55 56 54 54 54 54 56 54 55 55 55 53 51 50 49 49 48 47 47 47 48 50 47 46 45 45 44 44 43 42 42
42 38 30 28 30 31 45 37 42 53 59 62 56 56 57 58 56 55 54 53 52 52 53 54 54 52 53 52 52 51 50 49 48 47 46 46 46 45 45 46 45 44 45 45 44 43 42 42 40
38 38 32 23 27 35 44 34 48 58 61 63 60 58 58 56 55 54 53 52 52 53 52 52 52 51 51 51 50 49 49 47 47 47 46 45 45 45 45 45 45 45 45 45 44 42 41 43 40
37 34 44 35 38 35 38 43 51 54 55 56 56 57 55 54 54 54 54 53 52 51 51 51 51 50 50 49 48 47 47 47 45 45 45 44 45 50 45 44 44 44 44 44 42 40 40 40 39
45 48 34 34 29 30 36 40 44 47 51 54 54 54 55 55 54 54 54 53 52 52 51 51 51 50 49 48 47 47 46 46 45 44 43 44 44 44 44 43 43 43 42 42 41 39 40 39 39
37 37 42 42 37 32 31 40 50 51 54 53 54 55 55 54 55 55 54 55 53 51 51 49 49 49 48 47 46 45 45 45 44 43 43 43 43 43 43 43 42 42 41 41 40 39 40 39 39
46 42 45 36 34 36 39 39 51 53 55 57 55 57 57 57 56 55 55 53 51 50 49 48 48 47 47 46 45 44 44 44 42 42 42 43 42 42 42 42 41 42 41 40 39 38 38 37 35

GFSSGP_sfc_temp_012.txt.gz
Temp
74 74 69 67 56 51 47 53 56 60 63 65 68 65 63 63 64 57 66 71 72 72 75 77 78 79 78 78 77 77 77 77 77 78 78 78 79 78 77 77 77 76 76 75 75 75 75 75 74
71 74 67 58 50 44 48 56 58 61 65 69 68 67 64 61 67 67 66 71 73 73 75 76 78 78 78 78 77 77 77 77 77 78 79 79 79 78 78 78 77 76 75 74 74 74 74 74 74
74 72 60 52 46 44 48 57 61 65 68 67 65 69 64 63 68 69 69 73 74 73 75 76 77 78 78 77 77 77 77 77 77 77 76 76 78 79 79 79 76 75 74 74 73 73 73 73 74
68 64 59 50 47 53 55 60 64 65 69 69 66 64 66 68 71 73 73 74 71 70 72 75 77 78 77 77 77 77 76 76 76 76 76 76 76 76 77 78 76 75 74 74 74 73 74 74 74
64 57 48 45 49 54 57 64 63 62 64 66 68 62 62 70 70 74 72 74 71 70 72 75 77 77 77 77 77 77 76 76 76 76 76 76 76 76 76 76 75 74 74 74 74 74 74 74 74
57 54 43 42 48 56 58 64 65 64 63 66 64 61 62 67 71 72 74 70 73 72 73 74 76 76 76 77 76 76 77 76 76 76 76 76 75 76 76 75 75 74 74 74 74 74 74 74 74
53 48 44 45 48 52 59 65 61 64 62 64 66 58 61 64 73 75 72 70 71 73 72 71 73 74 75 75 75 76 76 76 76 76 76 75 74 74 75 75 75 74 74 74 74 74 74 74 74
56 51 45 46 48 51 61 64 66 64 63 68 70 60 60 69 73 73 72 71 69 70 72 70 70 72 71 71 73 74 74 74 74 74 73 71 71 71 73 73 73 74 74 73 73 73 74 74 73
59 45 43 48 50 56 62 61 68 71 66 66 68 68 72 72 71 68 66 67 67 69 69 70 70 69 70 69 71 72 73 72 72 71 70 68 64 65 67 68 70 72 73 73 73 73 73 72 71
51 45 48 55 58 57 61 62 64 63 62 61 64 69 71 69 66 68 66 67 66 67 67 69 69 69 68 74 69 68 69 67 67 67 65 65 64 64 68 66 69 71 72 72 73 73 72 70 66
52 48 55 58 62 62 60 59 65 62 58 64 63 64 67 67 67 67 66 66 69 70 70 70 69 69 68 71 67 66 65 65 65 65 65 64 65 63 64 63 64 64 65 64 66 65 66 67 66
47 55 58 59 62 60 57 62 60 61 63 68 68 69 68 69 68 68 67 67 67 68 70 71 70 68 68 69 68 66 66 64 63 65 65 63 62 63 63 67 68 67 68 68 68 68 68 65 63
48 52 58 61 61 62 63 59 59 61 67 68 69 70 68 68 67 68 71 71 67 67 70 70 71 70 70 68 67 65 65 65 65 65 66 65 64 66 67 66 68 68 68 67 64 59 59 59 59
53 54 55 58 60 61 59 60 59 64 66 65 67 67 66 67 68 65 67 69 66 68 70 70 70 70 70 68 66 66 68 71 68 70 71 71 67 64 68 67 66 65 64 62 57 56 55 55 55
53 47 51 54 56 56 61 55 56 63 64 64 64 65 65 65 67 67 67 67 66 66 67 69 69 69 68 68 67 69 71 72 70 70 70 70 69 68 65 64 62 59 57 57 55 54 54 53 55
45 44 39 51 56 57 57 47 59 63 60 60 62 62 62 64 65 63 64 65 64 64 66 67 72 68 67 67 70 72 71 70 68 68 67 67 65 65 62 57 55 55 54 54 53 51 51 50 49
41 35 38 45 55 54 53 50 60 63 59 59 60 59 61 59 59 61 63 63 64 64 64 65 66 66 66 66 69 70 69 67 66 65 64 63 60 60 57 54 53 53 52 51 51 50 48 47 48
39 36 38 40 49 52 51 51 56 59 60 58 61 59 57 58 59 61 63 62 62 62 62 63 63 64 65 66 67 66 64 63 62 58 58 58 57 56 54 53 52 52 50 49 49 48 47 47 45
40 39 38 42 51 49 49 50 55 59 57 56 58 56 56 57 59 60 61 60 60 60 60 60 62 63 64 63 62 63 60 59 54 56 56 55 55 54 52 51 51 50 48 47 48 46 46 45 45
40 37 37 43 50 50 48 46 54 59 59 61 60 55 54 54 56 58 58 58 60 58 58 59 61 61 62 62 58 57 58 55 53 52 53 53 53 53 53 49 48 48 47 46 45 44 44 44 43
39 36 37 38 45 48 47 44 49 55 59 62 61 58 57 57 56 56 55 55 55 56 57 59 60 60 61 61 61 59 57 52 51 50 50 51 52 52 51 49 47 46 45 44 43 43 42 40 42
34 44 44 42 40 33 46 34 45 51 54 57 60 54 56 55 55 54 54 53 54 54 56 58 60 60 61 61 59 58 55 50 49 49 49 49 50 50 50 49 47 46 45 43 43 46 42 41 39
38 46 43 43 38 36 39 35 42 50 49 54 59 54 56 57 57 55 55 56 55 55 54 56 58 58 56 56 56 53 50 49 48 48 47 47 47 48 49 48 46 45 44 43 42 42 41 41 39
46 42 41 40 37 29 37 38 39 44 50 54 55 54 55 56 55 54 54 55 52 52 53 53 56 53 54 54 52 51 49 48 47 45 45 45 45 45 46 47 45 44 43 42 42 41 41 40 39
43 36 26 23 25 27 40 36 40 48 56 59 59 53 54 56 53 53 53 53 51 51 51 52 53 50 51 51 50 50 49 48 47 45 44 44 44 43 44 44 43 42 42 42 42 40 40 39 38
39 38 27 18 20 28 41 33 39 52 58 58 59 57 55 54 55 54 54 53 53 52 50 51 51 49 50 49 47 47 47 45 45 45 44 43 43 43 43 43 42 42 42 42 41 39 38 40 37
36 32 42 33 34 29 34 39 48 52 52 53 55 54 53 54 53 53 52 53 52 51 49 50 50 48 48 47 47 45 45 45 44 43 43 43 43 47 43 42 41 41 41 41 40 38 38 37 37
40 43 30 32 21 22 33 36 41 47 51 49 50 51 53 53 52 52 53 52 52 50 48 48 49 48 46 46 46 45 44 44 43 43 42 42 42 42 42 41 40 40 40 40 38 37 38 37 36
36 35 38 37 34 28 30 36 51 53 52 51 52 53 52 51 51 52 53 52 50 48 48 47 47 46 45 45 44 43 43 43 42 42 41 41 41 41 41 40 40 39 39 39 37 37 37 37 36
43 38 39 32 30 36 32 34 52 59 54 55 53 54 53 53 52 52 52 49 49 48 47 46 45 45 44 44 43 42 42 42 41 40 41 41 40 40 40 40 39 39 39 38 36 36 36 35 34

GFSSGP_sfc_temp_015.txt.gz
Temp
73 71 66 64 54 49 46 53 55 60 60 62 64 63 63 60 62 56 65 69 70 71 73 76 78 79 78 78 77 77 77 77 77 77 77 79 79 79 77 77 77 76 75 75 75 75 75 74 74
69 72 64 55 47 41 45 54 57 62 65 65 63 63 62 59 65 64 65 69 72 72 73 74 78 78 78 78 77 77 77 77 77 78 78 78 78 78 78 77 77 76 75 74 74 74 74 74 74
71 69 59 51 43 42 45 55 57 65 68 66 63 65 61 62 66 66 68 70 71 71 72 74 77 78 78 77 77 77 77 77 77 78 77 78 79 79 78 78 77 75 74 73 73 73 73 73 73
66 62 57 48 45 50 51 54 59 63 68 68 64 61 65 67 68 71 69 71 69 69 70 74 77 77 77 77 77 77 76 77 77 76 76 76 76 77 78 78 76 75 74 73 73 73 73 73 73
61 55 47 43 46 51 54 59 60 61 64 64 64 60 61 70 69 69 69 71 68 68 69 73 77 77 77 77 76 76 76 76 76 76 76 76 75 76 77 76 75 74 74 73 73 73 74 74 74
55 52 42 42 46 52 55 60 58 60 63 63 63 59 62 68 68 68 70 68 71 69 71 73 75 76 76 76 76 76 76 76 76 76 76 76 75 75 76 75 75 74 74 74 74 74 74 74 74
51 47 42 42 46 50 56 61 56 60 60 62 67 58 61 65 71 70 68 67 70 71 71 71 72 74 75 75 75 76 76 76 76 76 76 75 74 74 75 75 74 74 74 74 74 74 74 74 74
54 50 42 44 46 50 58 61 62 60 61 66 67 59 57 67 71 70 66 67 67 69 70 70 70 71 71 71 73 74 74 74 74 74 73 72 71 71 73 73 73 74 74 74 73 74 74 74 73
57 45 42 46 47 53 58 57 63 66 61 64 64 65 68 69 69 67 64 64 65 68 68 69 69 70 70 70 71 72 73 72 72 71 70 68 64 64 66 68 70 72 73 73 73 73 73 72 71
50 44 47 52 53 54 58 59 60 61 61 60 62 67 67 67 66 67 64 64 63 65 66 68 68 68 68 72 68 68 69 68 67 66 65 64 63 62 66 65 68 71 71 71 72 72 72 67 65
50 47 54 55 58 60 57 57 61 58 56 62 63 63 63 64 64 66 66 65 65 66 66 68 67 67 67 69 66 66 65 65 65 64 64 63 64 61 62 62 62 62 64 65 66 65 67 62 61
45 52 55 57 59 58 55 58 57 58 60 65 65 65 64 65 65 65 65 66 64 65 67 69 67 66 66 66 65 65 64 64 63 64 64 62 61 61 61 65 67 67 67 66 65 63 60 61 59
45 49 55 57 58 58 59 57 55 57 63 66 66 65 65 65 66 66 67 68 66 64 67 68 67 66 67 65 65 64 64 63 63 63 64 63 61 65 67 67 66 65 65 64 59 56 56 55 55
49 51 52 55 55 56 55 56 56 58 62 63 63 64 65 64 65 62 65 67 65 68 68 69 68 67 67 67 64 65 64 64 65 66 66 69 67 65 65 65 63 62 61 57 54 53 52 51 52
51 45 48 50 53 53 56 52 53 60 60 60 60 61 64 64 65 64 67 67 67 65 67 67 69 68 67 67 65 68 67 68 68 68 69 68 67 65 64 62 60 57 54 54 52 52 51 50 52
45 41 36 47 52 54 54 44 55 61 61 60 59 58 60 61 65 63 64 64 64 63 64 65 72 68 66 66 70 70 69 68 66 66 66 66 65 64 61 55 53 53 52 51 50 48 49 47 46
43 34 35 42 52 52 51 46 55 60 58 56 56 57 60 60 61 61 62 61 61 61 62 64 65 66 65 65 69 68 67 66 65 64 64 63 62 61 59 54 51 51 49 48 49 47 46 45 46
33 33 35 37 46 48 47 48 53 56 56 56 58 60 57 58 61 60 60 59 61 61 61 62 62 63 64 64 64 64 63 62 62 60 60 59 56 54 52 50 50 50 48 47 46 45 45 44 43
38 36 34 40 49 43 42 45 50 54 54 56 53 56 56 57 57 58 59 58 58 58 59 59 60 62 63 62 61 62 58 58 57 58 58 55 53 52 50 48 48 47 46 44 45 44 43 43 43
38 35 36 40 46 45 43 42 48 51 53 56 58 57 57 54 55 57 57 55 57 57 57 57 59 60 61 61 56 57 60 57 55 52 51 51 51 51 51 48 46 46 45 44 43 42 42 42 42
36 34 36 36 42 45 41 40 46 53 55 57 59 61 62 57 55 54 54 54 55 55 55 56 57 58 59 59 59 58 57 55 53 48 48 49 50 49 48 47 46 44 43 42 41 41 40 39 40
33 41 41 39 35 28 40 30 41 45 50 55 56 58 56 54 55 54 53 53 54 54 55 57 58 58 59 61 61 61 55 52 48 46 46 47 48 48 48 47 45 44 43 42 42 43 40 39 37
38 44 41 40 35 33 35 31 35 47 47 51 51 56 55 54 56 54 55 56 54 53 54 55 57 57 55 59 61 57 53 49 46 45 45 45 46 47 47 46 44 43 42 41 40 40 39 39 37
45 40 39 40 35 27 34 32 35 42 45 48 52 55 54 54 55 53 52 53 51 51 53 55 56 53 54 54 52 54 50 48 46 43 43 43 43 44 44 45 43 42 41 40 40 39 39 38 37
42 35 27 25 26 25 37 33 37 44 49 53 53 55 52 54 52 51 51 52 51 51 52 54 55 51 51 50 50 49 48 48 46 44 43 43 43 42 42 42 41 41 41 41 40 39 38 37 36
37 35 27 20 20 23 39 29 38 49 55 58 58 54 51 53 54 53 53 53 52 51 52 52 52 49 49 48 47 46 46 45 45 44 43 43 42 42 42 41 41 41 41 40 39 37 37 38 35
34 31 39 32 35 28 31 36 44 49 48 50 50 51 49 52 53 53 52 52 51 50 50 51 49 47 47 46 45 44 44 44 43 43 42 41 42 45 41 41 40 39 39 39 38 36 36 35 35
39 42 30 30 22 20 27 31 36 42 48 51 49 50 51 52 52 52 51 50 50 48 46 47 49 48 45 45 44 44 42 42 42 42 41 41 41 41 40 40 39 39 38 38 37 35 36 35 35
35 33 36 36 29 19 21 31 43 46 50 47 47 49 50 51 51 50 51 50 48 47 46 46 46 46 44 44 43 42 41 41 41 41 40 40 40 40 40 39 38 38 37 37 35 35 36 35 34
42 37 36 29 22 30 28 32 47 48 50 51 49 51 52 51 50 51 50 47 47 46 45 45 44 44 43 43 42 41 40 40 40 39 39 40 39 39 38 38 37 37 37 36 34 34 34 34 32

GFSSGP_sfc_temp_018.txt.gz
Temp
72 69 64 63 53 47 42 49 51 57 57 60 61 66 63 59 62 57 64 67 68 70 72 76 79 79 79 78 77 77 77 77 77 78 78 78 78 78 77 77 76 76 75 75 75 75 75 74 74
68 70 63 54 47 40 43 50 53 58 63 66 64 63 61 63 63 63 65 68 70 71 72 73 78 78 78 78 77 77 77 77 77 77 78 79 79 78 78 78 77 76 75 74 74 74 74 74 74
69 67 58 50 42 41 44 51 55 60 64 64 63 64 61 61 65 65 66 69 70 70 72 73 77 78 78 77 77 77 77 77 77 77 78 78 78 78 78 77 76 75 74 73 73 73 73 73 73
64 61 55 47 44 48 50 51 56 59 65 64 63 61 64 66 65 68 68 70 69 69 70 74 77 77 77 77 77 77 77 77 77 76 76 76 77 79 79 78 76 75 73 73 73 73 73 73 73
59 54 46 41 44 49 52 56 57 57 58 61 62 60 62 67 68 66 67 69 68 67 69 73 77 77 77 77 76 76 76 76 77 76 76 76 76 77 77 76 75 74 74 73 73 73 74 74 74
54 51 40 40 45 49 53 57 57 56 58 62 59 58 62 67 66 66 68 67 69 68 69 72 75 76 76 76 76 76 76 76 76 76 76 76 75 75 76 76 75 74 74 74 74 74 74 74 74
50 46 41 40 44 47 54 58 54 57 56 59 61 57 61 64 69 68 66 66 68 68 69 70 72 74 75 75 75 76 76 76 76 76 76 75 74 74 75 75 74 74 74 74 74 74 74 74 74
52 49 40 42 44 47 57 59 60 58 59 63 63 57 56 64 68 68 67 66 66 67 69 69 70 71 71 71 73 74 74 74 74 74 73 72 71 71 72 73 73 74 74 74 74 74 74 74 73
54 44 40 43 46 50 56 54 61 64 59 62 62 60 66 66 66 64 63 64 65 67 67 68 69 69 69 69 70 72 73 72 72 71 70 68 64 63 65 68 70 71 72 73 73 73 73 70 68
49 42 45 51 51 52 56 55 57 58 58 58 61 66 65 64 63 64 62 63 64 65 66 67 67 68 68 71 68 68 69 68 67 66 64 63 62 61 65 65 67 70 70 70 71 71 69 65 61
48 45 50 52 55 57 55 54 58 55 53 59 59 62 65 61 63 63 63 63 64 65 66 67 67 67 67 68 66 66 66 65 65 64 63 62 63 61 61 60 62 61 64 66 67 65 64 59 58
42 50 52 54 57 55 52 56 53 55 58 63 62 63 63 63 63 64 63 63 63 63 65 67 67 66 66 66 65 65 64 64 63 63 63 61 60 59 60 61 64 66 66 64 62 56 56 56 56
44 47 52 54 55 54 56 54 53 54 60 63 64 63 63 63 63 64 64 64 62 64 64 66 66 66 66 65 64 64 64 63 63 63 63 62 60 62 64 65 64 63 63 60 54 54 53 52 53
47 48 49 52 53 53 52 53 53 57 59 59 60 61 62 61 63 61 63 65 63 63 65 67 66 66 66 65 64 64 64 63 63 65 66 68 66 65 64 63 62 60 60 58 52 51 50 49 49
48 43 46 48 50 50 54 49 49 59 58 58 57 58 61 62 62 62 65 64 65 65 64 65 67 67 66 66 65 65 66 67 64 68 69 67 66 65 63 61 59 57 53 52 50 49 49 48 50
45 46 37 45 48 51 52 42 52 58 56 56 58 56 58 62 63 62 63 63 64 62 62 62 70 66 66 66 65 67 68 66 65 66 66 66 64 63 60 57 55 53 50 49 48 47 47 45 44
44 34 38 42 49 49 47 42 51 54 53 52 52 53 55 58 61 60 61 61 61 61 61 61 64 64 65 65 66 66 64 64 63 64 63 63 62 61 59 56 50 49 47 46 47 45 44 43 44
33 34 38 39 43 45 43 43 50 53 54 53 53 53 54 56 60 63 61 59 60 59 59 60 62 62 63 63 61 63 62 61 61 60 60 60 58 57 54 49 48 48 46 45 45 44 43 42 41
39 34 34 39 45 42 42 43 47 50 50 51 54 56 54 55 60 59 58 58 57 57 57 59 60 61 63 61 57 61 58 58 57 58 58 57 55 51 48 47 46 46 45 43 44 42 41 41 41
40 37 36 39 44 42 41 41 47 49 50 52 51 54 54 56 54 57 57 55 56 56 56 57 59 61 62 62 57 56 59 56 55 55 54 52 50 49 49 46 45 45 43 42 41 40 40 40 39
34 33 33 33 40 42 39 37 44 50 53 54 55 57 58 57 54 55 54 54 54 54 54 55 57 57 58 57 56 56 57 55 53 52 51 48 48 48 47 46 44 43 42 40 40 39 39 38 39
31 40 39 37 33 27 36 27 38 43 47 50 53 54 56 56 54 55 54 53 53 53 54 54 56 57 58 59 56 59 58 55 52 51 46 45 47 46 46 45 44 42 41 40 41 42 38 38 36
36 42 38 37 33 32 33 29 32 40 41 45 47 49 54 57 57 55 55 57 53 53 52 53 55 56 56 58 62 60 57 53 50 48 44 43 44 45 45 44 43 42 41 40 39 38 37 37 36
44 38 38 37 35 26 33 30 34 38 43 45 49 51 53 54 53 55 54 52 51 51 51 53 54 53 54 61 61 59 53 51 48 43 43 42 42 42 43 44 42 41 40 39 38 38 37 36 36
40 34 26 25 24 23 34 30 36 42 45 48 49 49 52 51 50 50 50 52 50 50 51 53 54 51 57 56 55 56 54 52 47 44 43 42 41 41 41 41 40 40 40 39 38 37 36 36 34
35 35 27 20 18 21 34 27 33 46 52 54 56 52 51 49 49 50 52 53 52 51 52 54 53 50 54 53 49 47 48 47 45 43 42 42 41 40 40 40 40 40 40 39 37 36 35 36 34
34 29 38 31 32 26 28 33 43 48 46 48 49 50 49 48 48 50 52 53 51 51 52 52 51 49 48 47 46 45 45 45 43 42 41 40 40 43 40 39 39 39 38 38 36 35 34 34 33
38 41 29 29 21 20 24 28 31 42 44 46 48 46 47 48 48 49 51 50 50 50 48 49 50 48 46 45 45 44 43 43 41 41 40 40 40 40 39 38 38 38 37 36 35 34 34 34 34
34 32 33 32 30 22 17 26 40 43 43 47 48 50 49 48 49 49 49 48 47 47 48 46 47 47 44 43 43 43 41 41 40 40 39 39 39 39 38 38 37 37 36 35 33 33 35 33 33
41 36 36 28 22 26 23 30 44 43 45 48 46 47 44 48 48 48 47 46 47 45 46 45 45 44 43 42 42 41 40 40 39 38 38 38 37 37 37 37 36 35 35 34 33 33 33 32 31

GFSSGP_sfc_temp_021.txt.gz
Temp
75 74 72 70 62 57 53 57 63 63 66 71 71 72 71 72 70 67 73 75 75 79 79 82 79 79 78 78 78 77 77 77 77 78 78 78 79 78 78 77 77 76 76 75 75 75 75 75 75
73 75 69 62 56 51 54 59 60 66 69 70 70 71 71 71 73 73 75 75 75 79 80 82 78 78 78 78 77 77 77 77 77 77 78 78 78 78 78 77 77 76 75 74 74 74 74 74 74
74 71 66 59 52 50 53 59 64 66 68 69 71 72 72 72 74 75 76 75 76 78 79 80 78 78 78 78 77 77 77 77 77 77 78 78 78 78 78 78 76 75 74 74 74 74 73 73 73
70 68 63 56 52 55 58 63 64 65 71 72 72 70 73 76 75 77 75 75 76 76 78 78 77 78 77 77 77 77 77 77 77 77 77 78 79 78 78 78 76 74 74 74 74 73 74 74 74
65 62 55 51 52 56 60 62 65 64 66 69 70 70 71 75 74 74 74 74 74 74 77 79 77 77 77 77 76 76 77 77 77 76 77 76 76 77 77 77 75 74 74 74 74 74 74 74 74
60 59 49 47 52 56 61 64 65 65 67 69 69 69 72 75 74 72 73 74 74 74 76 78 76 76 76 76 76 76 76 76 77 76 76 76 75 76 77 76 75 74 74 74 74 74 74 74 74
56 53 49 49 51 53 59 66 64 65 65 68 71 68 73 75 76 73 73 74 74 74 74 77 78 77 74 75 75 76 76 76 76 76 76 75 74 74 76 75 75 74 74 74 74 74 74 74 74
57 56 47 49 51 54 63 64 68 67 67 72 73 68 70 75 74 73 73 72 73 73 75 75 76 78 77 78 73 74 74 74 74 74 73 72 71 71 72 73 73 74 74 74 73 74 74 73 71
59 50 46 49 49 56 62 62 67 69 67 68 71 72 73 70 71 70 70 70 71 72 73 74 75 76 76 76 75 73 73 72 72 72 70 71 74 73 72 69 70 71 72 73 73 72 70 68 67
55 48 49 54 56 57 60 61 63 64 63 65 68 73 72 70 69 70 70 70 69 71 72 74 73 74 75 75 75 75 75 75 75 74 74 74 73 73 72 68 67 70 70 69 71 69 68 68 72
52 48 53 56 59 60 58 58 63 61 59 64 66 68 70 71 70 69 70 72 72 72 72 72 72 73 74 75 74 74 74 74 73 73 72 72 72 73 73 73 73 73 68 69 67 67 69 68 69
48 52 54 56 59 58 56 59 58 59 62 67 68 68 68 70 71 70 70 72 71 70 71 72 72 72 72 74 74 74 73 73 72 73 72 72 72 71 72 73 71 67 66 64 64 67 67 66 66
48 50 54 56 55 56 57 55 57 57 63 66 67 67 67 69 70 71 72 72 72 71 72 73 73 72 72 72 73 73 73 72 73 72 72 72 71 71 67 69 65 64 65 64 65 65 65 65 65
51 51 51 53 54 56 54 55 55 60 63 63 63 65 67 67 70 71 70 72 72 73 73 73 72 73 73 72 72 73 73 73 72 72 71 69 68 67 65 64 62 61 61 61 63 63 63 62 63
51 46 49 50 52 52 55 50 50 60 62 62 64 64 66 69 70 69 72 72 75 74 74 72 72 72 72 72 72 73 73 72 72 71 70 69 67 67 63 61 60 59 59 62 63 62 62 61 61
47 47 41 49 51 52 54 44 55 61 59 59 61 64 63 67 70 73 70 71 73 72 71 71 72 71 72 72 72 73 72 69 66 67 68 67 66 64 62 59 57 58 60 61 60 60 60 59 58
42 35 38 44 52 51 49 45 55 58 57 56 58 59 60 63 66 68 69 69 71 71 70 69 70 70 70 71 72 70 69 66 63 65 65 64 63 62 60 57 57 60 58 58 60 57 57 56 57
34 35 39 40 47 46 44 45 51 55 55 56 58 58 59 60 63 68 70 69 69 69 68 68 69 69 70 69 64 64 64 61 62 62 62 62 61 59 59 58 58 58 57 56 57 56 55 54 53
41 38 37 41 47 43 44 45 49 54 54 53 55 57 59 59 65 67 67 68 67 66 65 66 66 67 67 65 61 62 61 59 59 60 60 59 58 57 58 56 56 56 55 54 55 55 53 52 53
42 38 38 43 45 43 42 41 48 51 52 55 56 57 58 61 62 64 64 64 64 66 64 64 65 65 67 67 64 62 61 60 57 56 56 57 55 58 57 56 54 54 54 53 52 52 53 51 50
39 36 37 37 41 43 40 39 47 52 53 54 56 58 60 60 61 63 63 63 62 62 62 63 63 64 65 62 60 57 57 55 54 54 52 52 55 56 55 54 54 53 53 51 50 50 50 49 49
33 41 40 38 35 29 40 29 43 49 51 53 54 56 57 58 61 63 63 62 61 62 60 61 62 62 61 62 60 59 60 56 56 53 51 51 55 54 54 53 53 52 51 51 50 50 49 50 46
36 43 39 38 34 33 35 30 38 44 43 48 52 54 55 58 60 61 62 63 63 60 59 60 60 61 61 62 61 60 60 55 52 51 49 50 52 53 52 52 51 51 50 49 49 48 48 48 48
44 38 39 38 35 27 34 32 36 43 46 48 52 56 55 57 59 61 62 62 59 58 57 58 59 59 60 61 61 61 55 53 50 50 48 51 51 50 50 50 50 50 49 48 48 47 47 47 46
41 34 27 24 25 25 36 32 38 46 50 51 52 54 56 56 58 57 56 56 56 55 55 57 58 56 60 62 61 59 55 55 52 52 50 49 49 49 49 49 49 48 48 47 47 47 46 46 45
36 34 28 20 21 27 34 28 38 48 53 54 55 56 56 55 55 55 56 57 57 56 55 58 57 56 59 60 59 57 57 54 52 51 51 51 50 49 48 48 48 48 47 47 46 46 46 45 45
34 30 39 30 33 26 33 36 43 47 48 51 51 54 53 54 55 54 55 57 56 55 56 56 56 56 57 54 52 52 52 51 49 50 51 49 49 48 47 48 47 46 46 46 45 46 45 44 44
38 41 29 30 20 21 28 29 34 40 45 48 48 51 52 53 53 53 54 55 56 56 56 56 56 56 52 51 51 50 50 51 49 49 48 48 48 47 46 46 46 45 45 45 44 44 43 43 43
34 32 33 33 31 24 23 31 42 44 47 45 48 50 49 50 52 53 53 53 53 53 54 53 53 51 49 49 48 49 48 48 49 48 47 47 47 46 46 45 45 44 44 43 43 43 42 41 41
41 38 37 27 27 30 27 30 47 47 46 48 48 49 48 48 50 51 49 48 50 50 51 52 52 49 47 47 48 47 47 47 46 46 45 46 45 45 45 44 43 43 42 42 42 41 41 40 39

GFSSGP_sfc_temp_024.txt.gz
Temp
84 88 89 84 69 69 64 66 74 71 73 80 81 79 79 82 79 74 82 86 87 88 89 85 79 79 79 78 78 77 77 77 78 78 78 78 79 78 78 77 77 76 76 76 76 75 75 75 75
86 86 86 80 65 60 65 72 69 73 77 81 80 79 79 79 84 82 83 84 88 89 89 89 78 78 78 78 77 77 77 77 78 78 78 79 79 78 78 77 76 76 75 75 75 75 74 74 74
84 84 78 71 66 61 64 71 74 75 79 78 78 81 81 80 82 87 87 85 88 88 89 87 78 78 78 78 77 77 77 77 77 77 78 78 78 78 78 77 76 75 74 74 74 74 74 74 74
83 82 78 65 62 68 69 73 73 74 79 80 80 77 83 83 84 86 86 85 87 88 89 80 77 78 77 77 77 77 77 77 77 78 78 78 78 78 78 77 76 74 74 74 74 74 74 74 74
82 78 66 62 64 71 73 75 75 73 75 78 79 77 80 84 85 85 85 85 86 87 88 85 77 78 77 77 77 77 77 77 77 77 77 77 77 77 77 77 75 74 74 74 74 74 74 74 74
71 74 61 58 64 69 73 77 76 75 77 78 77 79 81 86 85 84 85 86 87 86 86 86 77 76 76 76 76 76 77 77 77 77 77 76 76 75 77 76 75 74 74 74 74 74 74 74 74
68 66 62 63 64 67 69 77 74 75 76 77 80 76 83 84 84 85 86 87 86 87 85 86 84 79 74 75 75 76 76 76 76 76 76 75 74 74 76 75 75 74 74 74 74 74 74 74 73
71 68 62 62 62 63 72 73 76 75 75 81 82 76 78 81 83 85 85 85 85 85 85 85 86 84 83 81 74 74 74 74 74 74 74 72 71 72 73 73 73 74 73 73 73 73 73 72 71
70 61 58 61 62 66 71 69 76 77 75 77 80 79 80 80 82 82 81 81 82 82 84 84 86 85 84 82 78 73 73 72 72 73 70 71 82 80 78 70 70 72 72 72 72 71 70 69 68
65 59 61 69 70 66 70 69 71 71 73 75 77 81 81 80 80 79 80 81 81 81 83 85 85 84 83 82 82 81 81 80 81 81 80 81 81 81 80 72 69 70 70 70 70 70 70 74 80
64 59 67 64 67 67 67 67 71 69 67 74 76 78 79 79 80 79 82 84 83 85 84 84 83 83 82 81 82 82 83 82 82 82 81 80 80 79 81 81 80 80 70 77 71 76 78 76 76
56 63 64 64 66 64 64 69 66 69 72 79 76 77 77 79 80 81 81 83 84 83 83 83 81 80 82 82 82 84 83 82 82 81 81 81 81 79 80 81 79 77 75 69 71 78 76 75 75
58 61 62 64 63 63 65 63 65 67 74 77 77 76 76 79 80 83 83 85 85 82 84 83 82 80 81 81 82 83 83 82 82 81 81 82 80 79 78 77 76 70 69 74 76 76 76 74 74
59 58 60 61 62 63 59 62 65 67 73 73 73 74 77 78 81 83 83 82 84 85 85 85 82 81 82 81 82 82 83 82 82 81 80 81 80 76 71 69 67 65 67 69 75 74 73 73 73
58 53 59 61 61 60 62 56 59 68 71 70 72 75 75 77 81 81 83 84 86 87 87 86 84 84 83 82 82 83 82 82 81 81 81 80 74 70 68 66 64 64 66 71 73 72 73 72 71
53 53 49 58 58 60 58 52 64 70 69 67 70 73 74 76 78 82 84 84 86 85 85 85 83 83 83 83 82 83 83 82 81 82 80 73 71 69 66 63 62 64 67 71 70 70 70 68 68
51 47 48 52 60 59 56 54 63 65 65 65 68 71 72 73 75 79 83 84 84 85 85 84 82 82 82 83 82 82 82 81 79 73 72 70 68 66 64 62 63 69 69 69 69 67 67 65 65
46 44 48 48 55 55 54 54 61 64 64 65 67 69 70 71 73 77 80 82 83 84 85 84 83 82 82 81 80 80 80 77 75 70 67 67 67 65 62 65 69 69 67 66 66 65 64 62 62
48 46 46 51 55 51 51 53 58 62 63 62 64 66 68 71 76 77 78 81 81 81 81 82 80 80 80 78 73 73 69 69 69 66 66 66 63 61 63 65 67 67 66 64 64 63 61 60 61
45 42 42 50 54 50 50 49 55 59 60 62 64 66 68 70 73 76 77 79 80 80 81 80 79 79 78 77 75 74 68 64 67 66 61 66 65 61 64 67 66 65 63 62 61 61 60 59 59
45 41 42 41 49 51 48 47 56 62 64 65 65 66 68 69 70 73 76 77 78 78 78 78 78 77 76 76 74 70 64 60 59 61 55 56 59 64 63 65 65 63 63 60 59 59 58 58 58
41 50 47 43 40 35 47 37 52 58 59 61 64 66 67 69 70 71 73 75 77 77 76 76 75 74 74 73 68 65 64 61 63 63 56 52 57 60 64 64 63 62 61 59 58 59 58 59 55
42 48 45 44 40 38 41 31 48 53 52 58 64 67 70 71 71 70 71 72 76 76 73 73 73 73 71 70 70 69 66 67 62 56 52 53 55 60 62 62 61 60 60 58 57 56 56 57 57
48 44 43 42 37 29 40 36 43 52 57 60 63 66 69 71 70 71 72 73 74 74 71 70 70 70 70 70 70 69 65 59 55 52 51 51 55 60 60 60 60 59 58 57 56 55 54 56 55
43 36 31 27 27 31 46 41 44 55 58 60 62 66 67 69 70 69 70 70 70 70 68 68 69 68 69 69 69 67 62 61 59 53 53 57 58 58 58 59 58 58 56 55 55 55 54 54 53
40 38 33 26 31 36 44 34 47 60 62 64 63 65 65 65 68 69 70 69 69 68 68 68 68 67 68 68 65 62 61 60 59 58 60 62 60 60 58 58 58 57 56 55 55 55 55 53 53
37 32 44 33 38 31 39 47 55 59 59 60 61 61 61 63 64 65 69 69 70 68 68 68 68 67 67 67 63 58 57 56 54 58 60 58 60 58 57 57 56 55 55 54 54 55 53 53 52
43 46 31 32 24 25 37 41 43 51 54 58 58 59 61 62 63 64 67 68 69 69 68 69 69 67 67 66 62 55 54 53 58 55 56 55 58 57 56 55 55 54 53 53 53 53 52 51 52
36 33 35 37 35 29 30 39 56 53 57 57 57 58 59 59 61 62 65 67 67 68 66 66 66 65 63 62 58 53 51 52 56 53 56 58 57 56 55 54 54 53 52 52 52 51 50 48 48
48 41 39 29 29 32 31 35 57 57 56 55 57 58 59 58 59 60 61 63 63 63 63 63 63 62 60 57 55 49 52 52 57 54 57 57 55 55 54 53 52 51 50 51 50 49 48 47 46

GFSSGP_sfc_temp_027.txt.gz
Temp
83 93 93 86 70 70 66 70 79 75 76 85 85 82 82 85 80 73 87 90 92 91 88 84 79 79 79 78 78 77 77 77 78 78 78 78 78 78 78 77 77 76 76 76 76 76 76 75 75
87 91 88 80 65 62 66 77 72 78 81 84 84 84 82 81 89 84 85 89 92 92 89 87 78 78 78 78 77 77 77 77 78 78 78 78 79 78 78 77 76 76 75 75 75 75 75 75 75
85 90 78 71 66 62 67 76 77 80 83 82 81 86 86 83 87 90 92 90 93 92 91 87 78 78 78 78 77 77 77 77 77 78 78 78 78 78 78 77 76 75 75 75 74 74 74 74 74
84 83 80 65 63 71 74 78 79 78 82 83 83 80 88 90 89 92 91 92 93 92 93 79 77 78 77 77 77 77 77 77 77 78 78 78 78 78 78 77 75 74 74 74 74 74 74 74 74
83 79 66 64 65 73 79 80 79 77 79 81 83 80 83 88 91 91 89 91 91 92 90 84 77 77 77 77 77 77 77 77 77 78 78 77 78 78 78 77 75 74 74 74 74 74 74 74 74
73 76 62 60 66 74 80 82 80 79 81 82 80 81 84 90 89 89 90 91 92 90 90 85 77 76 76 76 76 77 77 77 77 77 77 76 76 76 77 76 75 74 74 74 74 74 74 74 74
69 67 62 65 67 71 77 82 77 78 80 80 86 78 86 88 89 90 91 92 91 91 89 87 83 78 75 75 75 76 76 76 76 76 76 74 74 75 76 75 75 75 74 74 74 74 74 74 73
73 70 63 66 65 67 79 79 81 79 78 87 86 77 80 85 88 90 90 90 90 89 89 89 84 82 81 79 74 74 74 74 75 75 73 72 72 73 74 73 74 74 73 73 73 73 72 72 71
75 63 59 63 66 70 80 74 81 83 79 81 85 85 83 85 87 86 85 85 87 87 88 89 88 85 82 80 77 73 73 73 73 73 71 71 80 79 75 70 71 72 72 72 71 71 70 70 69
66 60 63 73 75 73 76 74 77 75 75 78 80 84 84 84 84 83 83 83 84 84 86 88 89 87 82 80 78 80 80 78 79 79 77 80 82 81 80 72 70 71 71 70 70 71 72 71 80
66 60 70 73 73 73 72 73 76 72 70 78 78 82 84 83 83 83 85 86 85 87 87 87 87 88 83 81 78 82 83 81 82 82 81 82 81 78 78 76 76 74 69 76 74 76 78 77 76
61 67 70 72 71 69 67 73 71 73 73 82 83 84 83 81 83 84 84 86 88 87 87 87 88 86 84 81 81 84 84 84 83 82 82 81 80 79 81 81 76 78 77 75 76 78 76 76 76
61 65 69 69 69 68 69 66 68 70 76 80 81 81 79 81 83 86 87 88 89 87 87 87 87 85 85 84 83 85 85 84 84 82 83 83 81 80 81 79 78 75 74 76 77 77 76 75 75
65 65 66 67 66 67 63 65 67 70 76 75 76 77 79 80 82 84 86 86 87 88 87 88 86 85 85 85 85 85 86 85 80 83 82 83 82 81 78 77 74 70 70 73 75 75 74 74 73
62 57 62 63 65 63 66 58 61 70 74 73 75 77 78 79 82 83 86 86 88 89 90 89 87 86 85 84 85 85 85 85 78 83 82 82 81 77 75 71 67 66 70 74 74 74 73 71 71
56 58 51 64 64 66 62 52 69 74 73 71 73 75 77 79 81 84 86 87 89 89 89 90 89 87 85 85 85 86 86 84 78 82 82 81 79 75 72 69 65 67 68 72 71 70 70 68 68
55 49 54 58 65 62 59 56 68 71 69 70 72 74 76 78 81 84 85 87 88 89 88 87 87 86 86 86 86 86 86 80 78 79 80 79 76 73 71 67 65 69 71 70 70 68 67 66 64
51 51 54 54 61 59 56 57 64 69 69 67 70 72 74 75 77 81 83 85 87 89 89 88 86 85 86 86 85 85 80 77 77 80 79 75 72 67 65 65 69 71 69 68 67 66 65 63 62
56 51 51 57 61 56 55 56 60 66 67 66 68 70 71 73 79 81 81 82 84 86 86 86 86 86 85 83 81 81 74 70 71 76 74 71 70 67 66 65 68 70 68 67 67 65 62 60 61
52 48 49 54 58 55 54 53 59 62 64 65 66 68 70 73 76 78 80 81 81 83 84 84 85 85 84 83 82 80 72 68 71 71 70 68 68 67 66 67 68 68 65 64 64 63 60 59 60
49 46 47 47 52 54 51 50 59 65 67 68 68 69 70 71 73 76 78 80 81 80 82 83 84 84 83 82 81 74 65 64 63 64 64 66 67 66 64 66 67 65 64 61 61 60 59 57 57
43 54 51 49 44 40 51 39 53 62 64 67 68 69 70 71 73 74 76 78 80 80 80 81 83 82 81 81 76 70 63 61 61 59 62 63 64 63 61 62 66 64 63 60 59 60 59 59 55
45 51 48 47 42 39 44 37 50 59 57 61 66 69 71 73 74 74 75 75 78 79 78 79 80 81 79 78 76 71 66 68 63 59 58 59 60 62 60 62 64 62 62 60 59 58 58 57 57
50 47 45 45 40 29 42 44 47 55 60 65 69 71 71 73 74 75 75 76 76 76 77 76 77 77 77 76 73 70 69 66 59 58 58 56 56 58 61 62 62 61 59 58 57 57 56 56 55
47 40 33 30 28 31 50 44 48 59 62 63 64 68 70 71 71 71 73 73 74 73 74 75 74 74 75 73 72 71 70 66 61 59 57 55 55 55 57 61 60 59 58 57 57 56 55 55 53
42 41 34 29 33 39 50 39 49 63 66 66 67 68 69 70 70 69 70 73 74 73 74 73 73 73 72 72 72 72 68 65 62 60 58 58 56 57 60 60 60 58 57 57 56 55 55 54 53
40 33 46 36 40 33 41 49 58 62 62 65 65 65 65 67 67 67 69 71 74 73 73 72 72 72 72 72 72 69 65 60 59 58 58 60 61 61 60 59 58 57 57 56 56 55 54 53 52
45 48 32 32 25 28 40 44 46 56 58 63 63 64 65 66 66 66 67 70 74 74 73 72 73 72 71 71 69 66 62 59 59 60 61 59 59 60 58 57 57 56 56 55 54 53 53 52 52
39 35 38 41 36 30 31 40 59 55 57 58 61 63 63 63 63 64 65 69 71 73 72 72 72 70 70 67 64 62 58 57 56 55 57 59 56 58 57 56 56 55 54 54 53 52 52 50 50
50 41 41 30 32 34 32 35 57 59 59 59 60 62 63 64 64 64 63 65 68 70 70 70 70 69 68 64 59 57 55 54 57 55 56 57 56 56 56 56 55 54 53 53 52 51 51 49 48

GFSSGP_sfc_temp_030.txt.gz
Temp
78 85 84 73 57 58 54 62 66 67 67 75 77 73 70 74 71 59 78 83 83 79 80 79 78 78 79 78 78 77 77 78 78 78 78 78 78 78 77 77 77 76 76 76 76 76 76 76 76
78 83 76 67 54 50 56 68 67 69 73 76 76 75 72 70 78 76 76 84 86 82 80 78 78 78 78 78 77 77 77 78 78 78 78 79 78 78 77 77 76 76 76 75 75 75 75 75 75
78 82 65 60 55 51 55 69 70 74 76 72 72 78 76 72 80 78 81 85 86 82 82 79 78 78 78 77 77 77 77 77 78 78 78 78 79 78 77 76 75 75 75 75 75 75 74 74 74
76 72 69 57 55 62 64 71 73 72 73 74 75 70 77 80 79 81 83 86 84 83 81 76 77 78 77 77 77 77 77 77 78 78 78 78 78 78 77 75 75 74 74 74 75 74 74 74 74
74 67 57 55 57 64 70 75 72 68 72 71 74 70 71 78 82 83 82 85 83 78 78 77 77 77 77 77 77 77 77 77 78 78 78 78 78 78 77 75 74 74 74 74 74 75 74 74 74
62 64 52 51 58 67 71 76 72 69 73 74 69 71 69 80 80 80 83 82 85 77 79 77 76 76 76 76 76 76 77 77 77 77 77 76 76 76 77 75 74 74 74 74 74 74 74 74 74
60 58 54 56 59 63 70 77 68 69 70 71 74 65 72 76 80 82 81 83 83 82 79 77 76 75 75 75 75 76 76 76 76 76 76 74 74 75 76 75 74 74 74 74 74 74 74 73 73
64 60 55 58 57 60 72 74 75 70 69 77 77 65 64 73 80 82 82 81 81 81 80 78 76 75 73 73 73 74 74 74 74 74 72 71 72 73 74 73 73 74 73 73 73 73 73 72 72
70 54 51 55 59 63 73 70 74 75 71 74 73 71 75 80 81 78 76 77 77 80 79 79 76 76 75 74 72 72 73 72 72 72 70 69 70 70 71 70 71 72 72 72 72 72 71 71 70
59 52 55 65 67 66 72 69 69 67 69 68 72 77 78 78 75 74 74 73 75 75 77 80 77 77 78 78 71 70 72 69 69 70 67 69 71 70 72 68 70 71 71 71 71 72 72 70 67
60 53 63 66 70 69 66 66 71 65 62 68 69 73 76 75 74 75 75 75 75 77 77 79 80 80 77 77 73 74 73 71 71 71 70 70 71 68 68 64 66 65 66 66 67 67 68 68 66
56 63 64 66 69 67 63 68 65 66 66 73 73 75 72 74 74 74 75 76 78 77 77 79 79 79 76 77 75 75 75 74 73 72 73 70 67 67 67 68 67 68 65 66 65 65 66 66 66
58 61 66 67 67 65 67 62 61 63 69 73 74 74 71 71 71 74 77 78 76 77 78 78 78 77 78 77 77 74 77 76 74 74 73 71 68 68 69 70 70 65 65 64 64 64 64 63 63
62 62 62 64 64 63 61 60 61 63 69 69 71 70 70 71 73 73 75 76 75 77 78 80 79 79 79 76 75 77 78 78 76 73 72 73 70 69 68 66 64 62 61 63 63 62 61 60 60
61 53 57 59 61 59 61 55 56 65 67 66 67 69 71 72 72 72 76 75 77 77 78 79 79 79 77 77 78 79 77 78 72 77 74 74 71 68 66 62 60 59 61 63 63 62 60 58 60
53 53 44 58 61 62 58 46 60 66 65 64 66 68 69 71 73 76 77 77 77 77 77 79 83 80 78 79 77 78 77 76 69 75 75 73 71 66 62 60 57 59 64 62 59 57 56 55 55
51 41 46 52 60 59 55 47 60 66 63 61 62 66 69 70 72 73 76 78 77 77 77 76 78 79 79 77 78 78 77 78 76 75 76 73 69 66 61 58 57 60 59 58 59 55 54 52 52
43 45 47 47 55 55 52 51 58 62 63 61 61 62 63 66 69 73 75 75 76 77 77 76 75 76 78 79 79 78 76 75 75 74 74 71 67 63 59 57 59 61 58 56 55 54 53 51 50
52 49 46 51 58 52 50 51 55 60 60 60 61 63 64 66 70 71 72 72 71 72 73 74 74 74 76 72 75 75 68 71 71 69 72 68 63 60 58 58 61 60 57 55 55 53 52 49 49
49 44 43 50 55 51 48 47 53 56 58 60 61 62 63 65 67 70 71 70 71 71 71 75 73 75 76 76 74 73 66 65 65 67 66 63 61 60 60 60 59 57 54 54 53 52 50 49 48
45 42 42 43 49 50 47 44 49 57 59 61 62 64 65 65 65 68 69 71 69 72 73 72 73 73 76 74 71 64 62 59 60 62 59 57 58 59 60 59 59 56 53 50 50 50 50 46 47
39 51 49 46 40 31 45 29 43 51 54 57 57 58 60 63 65 67 68 67 68 73 73 72 71 73 71 71 69 64 63 59 56 57 57 54 57 57 58 59 59 55 54 51 50 52 49 48 45
43 49 46 44 38 36 36 28 38 51 49 52 57 59 59 61 62 63 63 66 67 66 64 71 71 70 70 74 68 64 60 58 57 59 57 56 54 56 59 60 59 57 54 50 50 49 48 47 46
49 45 44 42 38 26 34 35 35 44 49 51 57 56 61 62 59 60 62 65 63 64 64 64 67 68 69 71 69 63 59 57 54 54 55 53 53 54 58 59 57 56 53 49 48 47 47 46 46
45 39 24 23 24 21 43 35 40 52 57 57 56 54 58 59 58 60 60 60 61 62 62 63 65 66 67 68 67 63 62 57 54 53 53 52 52 54 56 54 52 50 49 49 48 47 46 46 44
41 39 26 21 22 27 42 31 40 55 58 59 59 58 60 59 58 58 57 59 60 62 61 62 63 64 65 66 63 63 62 57 55 55 55 53 51 52 56 56 55 52 49 49 48 46 46 45 43
38 32 40 31 33 22 32 40 50 56 57 58 57 58 57 58 58 55 58 59 62 61 61 62 62 63 64 64 63 63 61 57 54 52 54 53 54 56 56 54 53 51 48 48 47 45 45 44 43
44 45 30 29 15 19 30 35 38 46 49 53 52 53 55 57 57 57 57 58 62 62 61 62 63 63 63 63 64 62 59 55 54 53 54 56 57 57 55 53 52 47 47 47 46 45 45 44 42
38 35 37 36 32 21 23 31 47 46 50 49 52 54 54 55 56 56 56 57 60 60 60 60 61 63 65 66 62 58 57 54 57 56 58 56 56 55 53 50 50 47 46 46 45 45 45 43 42
45 38 37 25 24 28 26 30 54 49 54 53 52 57 55 58 57 56 56 55 56 58 59 59 61 65 64 59 56 52 50 56 55 54 54 55 52 54 50 52 50 47 46 46 45 45 44 43 42

GFSSGP_sfc_temp_033.txt.gz
Temp
75 75 71 66 53 49 45 54 58 64 63 64 68 68 64 66 66 58 71 76 75 75 78 78 78 78 78 78 78 77 78 78 78 78 78 78 78 77 77 77 77 77 77 77 77 77 77 76 76
70 75 67 59 48 42 46 58 60 65 67 69 72 69 67 64 71 71 71 76 77 77 77 77 78 78 78 78 77 77 77 78 78 78 78 78 78 77 77 76 76 76 76 76 76 75 75 75 75
72 73 59 53 46 43 46 58 63 66 70 69 67 69 67 67 71 72 75 78 78 76 77 77 77 78 78 77 77 77 78 77 78 78 78 78 78 77 76 76 76 75 75 75 75 75 75 75 75
67 63 59 49 47 53 57 62 66 66 69 73 68 66 69 73 74 76 79 79 76 76 75 76 77 77 77 77 77 77 77 78 78 77 78 78 78 77 76 75 75 74 74 75 75 74 74 74 74
63 57 48 44 49 55 60 64 68 64 66 66 67 64 64 73 75 77 78 80 76 75 75 76 77 77 77 77 77 77 77 78 78 78 78 78 78 77 76 75 74 74 74 74 75 75 74 74 74
55 55 42 44 48 57 61 67 66 65 64 66 65 63 64 74 73 76 78 75 77 74 75 76 76 76 76 76 76 76 77 77 77 77 78 78 77 77 76 75 74 74 74 74 74 75 74 74 74
52 48 44 45 49 54 62 69 62 66 65 66 67 61 62 67 74 77 76 75 76 76 75 75 75 75 75 75 75 76 76 76 76 76 76 75 75 75 76 75 74 74 74 74 74 74 74 74 73
56 51 46 47 50 51 63 65 69 67 65 70 70 61 60 70 76 77 75 75 75 74 74 71 71 73 72 72 73 74 74 74 74 74 72 72 72 73 74 73 73 74 74 73 73 74 73 73 73
61 46 43 49 52 56 66 62 69 70 67 68 68 66 72 76 76 73 70 72 74 73 73 72 70 70 69 69 71 72 73 72 72 71 70 68 68 70 70 69 71 72 73 73 73 73 72 71 70
53 46 48 57 59 58 64 61 65 65 64 61 67 70 74 75 72 72 70 70 71 71 72 73 72 71 70 74 68 67 70 67 67 67 66 66 66 67 70 68 69 71 71 71 72 73 72 69 64
53 46 56 60 63 63 61 62 65 61 57 64 64 67 70 71 71 71 70 71 70 72 73 74 73 73 72 72 68 66 66 64 65 65 65 65 67 66 65 63 65 64 65 64 66 65 65 64 63
49 56 59 61 64 62 59 62 59 58 60 66 66 69 70 69 69 69 70 71 71 73 74 74 74 74 74 72 70 69 68 67 65 66 66 64 63 65 63 62 62 62 62 61 61 61 63 63 62
52 55 61 62 62 61 63 58 57 58 63 66 67 67 65 68 68 69 71 72 71 73 75 76 76 75 72 71 72 71 70 70 70 69 69 66 66 65 64 63 63 62 61 61 60 60 60 60 59
57 57 56 59 59 59 58 57 56 58 64 63 65 65 63 66 68 69 69 71 69 74 75 77 75 76 73 72 72 72 73 72 71 71 71 69 68 65 64 63 62 60 61 60 60 59 58 57 57
56 49 53 54 56 55 59 51 52 60 61 60 60 61 66 65 67 68 70 69 72 71 76 76 76 76 74 73 73 74 74 75 73 73 72 70 68 65 64 61 59 58 60 61 59 58 57 55 56
49 48 39 52 57 58 56 44 55 60 57 57 61 63 63 66 66 68 70 70 70 72 71 77 80 75 75 74 71 75 75 75 68 74 74 71 67 66 62 59 57 58 58 57 57 55 53 51 51
45 36 40 46 57 56 52 44 57 60 58 56 57 59 64 65 67 66 69 72 73 70 72 73 78 76 75 75 74 75 73 74 67 72 73 72 66 64 62 58 56 58 57 56 57 52 51 49 50
38 38 40 42 52 52 49 47 53 57 56 55 55 56 57 61 65 71 70 68 73 76 70 70 76 77 77 77 75 69 66 74 74 73 73 68 66 62 59 56 57 57 55 54 53 51 49 48 48
49 46 41 45 53 47 46 46 50 54 53 55 58 57 59 61 65 65 66 67 67 67 68 69 69 75 76 74 72 70 68 70 72 72 70 67 64 61 59 57 57 56 55 53 53 50 49 47 46
44 40 38 45 50 47 45 45 51 54 55 56 58 55 56 60 60 64 65 64 65 67 66 66 68 70 75 76 75 66 63 64 66 68 67 63 61 60 59 58 57 55 53 52 51 51 47 46 45
40 37 38 39 45 44 41 38 43 50 54 57 58 60 61 60 63 60 60 63 63 64 65 68 67 68 71 72 66 61 59 58 58 58 59 58 59 59 60 58 57 54 52 50 49 49 49 45 45
36 46 45 43 36 28 40 25 35 46 49 52 51 53 57 60 61 60 60 59 60 61 63 67 68 67 69 67 65 65 65 62 58 58 54 54 58 60 58 57 56 54 50 49 48 49 47 47 44
41 47 43 41 34 30 31 26 32 41 44 47 50 52 53 58 60 59 60 64 65 62 62 62 67 68 66 71 67 66 64 59 54 53 53 53 53 58 58 57 56 55 53 49 49 50 47 46 45
48 42 39 37 32 17 30 29 29 38 45 47 49 53 54 56 55 57 59 59 58 58 58 59 61 64 64 68 64 67 59 54 53 52 50 52 51 55 58 58 58 56 54 52 50 49 48 45 44
43 32 17 17 23 20 36 29 32 46 52 51 53 54 53 54 56 56 57 57 56 56 58 59 59 61 63 64 64 62 58 57 54 53 51 51 52 55 55 56 55 54 53 50 50 47 45 44 43
36 35 21 17 18 23 36 28 37 51 56 55 58 57 58 57 54 55 55 55 56 57 57 57 58 59 61 62 61 60 57 55 53 53 52 53 54 56 55 54 53 52 52 49 47 44 43 43 41
36 28 37 27 26 17 28 35 44 51 51 51 49 52 52 54 53 53 53 54 55 55 56 56 58 59 59 61 60 58 56 54 52 50 51 51 52 55 54 54 52 52 50 50 47 43 43 42 41
41 42 28 23 11 16 25 29 35 42 45 49 49 48 50 51 50 51 52 54 55 54 55 56 57 60 58 59 59 56 53 52 51 51 50 51 54 56 54 52 52 51 50 46 46 42 42 42 40
36 36 37 32 25 18 19 27 42 43 44 45 48 49 50 52 53 53 53 54 54 54 54 55 55 57 56 57 57 55 53 52 51 51 51 53 55 54 52 52 50 50 49 48 43 42 42 42 41
39 34 33 21 21 24 21 28 53 52 48 51 53 54 54 58 57 54 53 53 52 53 52 54 55 56 54 56 55 54 54 54 54 54 55 55 53 53 52 50 50 49 47 45 42 43 42 41 40

GFSSGP_sfc_temp_036.txt.gz
Temp
73 72 67 64 52 48 43 50 53 60 62 64 67 68 63 62 64 57 68 71 74 74 76 77 78 78 78 78 77 77 77 77 78 78 78 78 77 77 77 77 77 78 77 77 78 77 77 76 76
69 73 65 56 47 40 44 51 57 61 67 67 67 66 64 62 68 66 67 73 75 75 76 76 78 78 78 78 77 77 78 78 78 78 78 78 77 77 77 76 77 77 76 76 76 76 76 75 75
71 71 59 52 44 42 45 54 57 65 67 67 63 67 65 64 68 69 70 75 75 74 76 76 77 78 78 77 77 77 78 77 77 78 78 77 77 77 76 76 76 75 75 75 75 75 75 75 75
65 61 56 47 45 51 52 55 60 64 69 67 65 63 66 69 70 72 74 75 73 73 74 75 77 77 77 77 77 77 77 77 77 78 78 77 77 76 76 75 75 74 75 75 75 74 74 74 74
61 54 46 43 46 51 55 60 62 63 64 65 65 61 61 70 71 74 74 75 72 71 73 75 77 77 77 77 77 77 77 77 77 77 78 77 77 76 75 74 74 74 74 75 74 74 74 74 74
53 52 40 43 45 53 57 60 59 62 64 65 62 61 61 68 72 72 75 73 75 72 74 75 76 76 76 76 76 76 77 77 77 77 77 77 77 76 75 74 74 74 74 75 75 75 74 74 74
50 46 42 42 46 51 58 62 59 62 62 66 68 58 59 64 72 73 73 74 74 74 73 74 74 74 74 75 75 76 76 76 76 77 77 76 76 76 75 74 74 74 74 74 74 74 74 74 73
54 49 42 44 47 48 59 62 65 62 63 68 68 59 58 68 73 71 71 71 72 73 73 72 72 72 72 72 73 74 75 75 75 74 73 72 72 72 74 73 73 74 74 73 74 74 74 73 73
57 44 40 46 48 52 60 58 65 70 64 64 64 65 69 73 73 69 67 68 69 71 71 70 70 69 68 68 71 72 72 72 72 71 70 68 67 70 70 69 71 72 73 73 73 73 73 71 70
50 42 45 54 55 53 59 58 61 62 61 59 62 68 71 72 69 68 66 66 67 68 68 70 69 69 68 72 67 66 69 67 67 67 66 65 66 67 69 67 69 71 71 71 73 72 71 67 62
50 44 54 57 59 59 59 59 60 57 57 59 60 64 67 67 68 68 68 68 67 69 70 70 69 69 69 70 66 65 65 64 64 65 64 64 66 64 64 64 65 64 66 64 65 64 62 61 60
47 54 57 58 61 58 56 60 55 57 60 62 61 63 67 67 67 67 70 68 67 69 70 71 71 70 69 70 68 67 66 64 63 64 64 62 61 62 62 62 62 62 61 60 59 59 60 60 59
47 51 57 59 59 57 60 57 56 57 62 64 63 65 64 65 67 67 68 70 68 69 71 71 71 70 70 68 69 68 67 66 65 64 65 64 62 63 63 61 61 60 60 59 58 58 58 58 57
53 55 55 57 56 56 56 55 55 56 61 61 62 61 62 64 65 63 66 68 66 71 72 72 72 72 72 69 69 69 69 68 66 66 66 65 65 64 62 61 61 59 59 58 58 57 56 55 55
54 49 51 53 54 53 56 52 50 59 60 58 58 59 61 62 65 64 67 67 68 68 74 72 73 73 71 71 70 70 70 70 68 68 68 67 67 63 62 61 58 58 58 58 57 56 54 54 54
49 47 40 51 54 56 55 45 53 58 54 55 56 56 58 62 64 65 67 67 67 67 68 74 76 74 72 72 70 71 71 71 68 70 69 68 68 64 61 60 59 57 57 56 55 54 52 50 50
42 35 39 45 54 53 50 43 55 62 56 53 54 55 57 59 63 61 66 68 71 67 67 69 74 73 72 73 71 72 72 71 67 70 71 69 66 63 62 60 57 56 55 54 55 51 51 48 48
37 36 38 40 48 49 46 45 52 54 53 53 53 55 56 57 61 66 64 66 70 71 65 69 73 73 72 71 69 67 65 68 67 70 71 67 65 63 61 57 57 56 54 53 52 51 48 47 47
45 43 41 43 50 46 44 43 48 53 51 51 55 55 56 58 64 61 62 63 62 63 64 63 70 73 71 69 67 65 65 67 65 70 70 66 64 62 60 58 57 55 56 52 52 49 48 46 45
45 40 39 44 48 45 43 42 49 52 53 55 56 58 58 59 61 60 61 61 62 63 63 62 64 72 73 71 72 67 66 66 66 68 68 66 63 60 59 58 57 56 52 51 50 50 46 45 44
43 37 36 38 43 42 40 42 44 48 51 53 57 58 58 59 60 61 57 59 60 60 62 63 63 66 72 72 67 60 60 58 58 59 64 63 61 60 59 58 58 55 54 52 49 49 48 44 44
35 44 43 41 36 28 39 26 34 42 45 49 48 47 51 55 58 58 61 58 60 59 60 62 63 64 67 67 65 64 65 62 63 63 58 54 57 58 58 58 56 55 53 51 49 49 47 46 44
39 45 42 39 32 29 29 25 32 38 42 46 48 50 52 52 53 55 55 57 59 59 57 59 61 61 63 67 69 65 68 66 55 53 54 54 53 55 57 57 56 56 54 54 53 48 46 46 47
46 41 37 34 29 18 28 28 29 36 42 44 47 51 52 55 54 54 55 57 55 54 56 56 57 59 60 62 64 65 66 55 53 51 52 51 51 51 54 56 55 57 55 53 52 50 50 48 46
41 32 19 17 20 20 32 27 30 41 47 48 50 52 52 54 53 52 54 55 55 54 55 56 57 58 59 58 59 63 60 57 56 54 54 51 51 50 52 53 53 54 53 52 51 50 49 48 47
36 34 21 18 17 21 33 26 35 45 49 50 51 50 51 52 51 52 52 54 55 54 54 55 55 56 57 57 57 61 59 59 58 56 54 54 53 53 52 52 52 52 52 51 50 48 46 47 44
35 27 36 25 24 16 25 31 41 46 45 48 48 48 48 49 50 52 52 53 54 54 54 54 55 55 56 57 57 58 57 54 53 52 52 51 51 52 52 51 50 52 51 51 50 47 45 46 43
39 41 25 19 9 15 23 24 32 39 42 45 46 47 48 50 52 52 53 53 54 54 53 52 54 54 55 55 57 55 54 53 51 50 51 51 51 52 52 52 52 51 50 49 48 46 45 45 42
35 33 32 29 23 17 18 26 39 40 42 43 46 47 48 49 50 51 53 52 53 52 52 52 53 53 53 54 52 50 49 49 49 50 50 51 52 53 53 52 51 50 49 48 46 44 44 43 42
38 34 32 19 19 22 20 27 46 43 43 46 52 52 54 55 55 56 57 52 52 53 52 52 53 52 53 52 51 48 48 48 48 48 49 52 53 53 52 51 49 47 44 42 40 41 44 43 40

GFSSGP_sfc_temp_039.txt.gz
Temp
71 70 65 63 52 47 43 49 50 55 58 61 63 64 63 62 63 57 65 70 72 73 75 77 78 79 79 78 78 77 77 78 78 78 77 78 77 77 77 77 78 77 77 77 77 78 78 76 76
68 71 63 54 45 38 43 50 54 59 62 65 62 61 61 60 66 63 65 70 74 74 75 75 78 78 78 78 78 77 77 77 78 78 78 77 77 77 77 77 78 77 76 76 76 76 76 76 75
69 69 58 51 42 41 43 51 56 61 63 61 60 63 63 62 66 66 67 73 74 73 74 75 77 78 78 77 77 77 78 77 77 77 77 77 77 77 76 76 76 76 75 75 75 75 75 75 75
64 60 56 46 44 49 51 53 56 61 66 65 62 60 63 67 69 69 71 73 72 71 72 75 77 77 77 77 77 77 78 78 77 77 77 77 77 76 76 75 75 74 74 75 75 74 74 74 74
59 53 44 41 46 50 52 58 57 59 59 63 65 60 60 67 68 70 71 73 71 70 71 74 76 77 77 77 77 77 77 77 77 77 77 77 76 76 75 74 74 74 74 74 74 74 74 74 74
52 51 40 41 46 50 54 56 57 57 59 64 59 59 60 64 67 69 72 70 72 70 72 74 75 76 76 76 76 77 77 77 77 77 77 77 76 75 75 74 74 74 74 74 75 74 74 74 74
50 45 41 42 46 48 54 58 55 58 58 62 64 57 59 62 66 70 70 70 71 72 71 71 72 73 74 75 75 76 76 76 76 76 76 76 75 74 75 74 74 74 74 74 74 74 74 74 74
52 48 41 42 44 48 55 59 61 60 62 66 67 58 56 65 68 69 69 69 69 70 71 70 70 70 70 70 73 74 75 74 75 75 74 73 72 72 73 73 73 74 74 74 74 74 74 73 73
55 43 39 44 47 49 56 55 61 64 62 62 62 62 67 69 68 67 66 67 69 70 69 71 69 69 68 68 70 72 73 72 72 71 70 69 67 68 69 69 71 72 73 73 73 73 73 71 69
49 41 44 52 53 51 57 55 57 59 59 59 61 66 67 68 66 65 66 67 69 69 70 72 69 68 67 71 67 67 69 67 67 67 66 65 65 66 69 67 69 71 72 72 73 72 71 66 60
49 44 52 55 57 57 55 56 58 54 55 56 57 61 64 63 62 65 66 67 69 71 71 72 70 68 68 69 65 64 65 64 65 65 63 64 65 65 64 63 65 65 66 63 64 63 61 59 59
46 52 55 57 60 56 53 57 54 56 58 60 60 62 64 63 65 64 65 66 66 67 69 71 70 68 68 69 67 66 65 63 63 63 63 62 62 62 62 62 62 62 61 59 58 58 58 58 57
47 50 55 58 58 55 57 54 54 54 62 60 62 63 62 62 63 65 66 67 66 67 68 69 69 68 68 67 67 66 66 65 65 63 64 62 61 62 61 61 61 60 58 58 57 57 57 56 56
52 53 54 56 55 55 54 53 54 53 58 59 59 60 60 61 63 61 64 66 64 67 68 70 69 69 69 68 67 67 67 66 64 64 64 64 62 62 62 60 60 59 58 57 56 56 55 54 54
52 47 48 52 53 53 54 50 48 57 59 57 59 56 58 60 62 62 64 65 67 66 69 69 70 70 69 68 67 67 66 68 65 65 63 64 63 61 61 60 59 58 57 57 55 54 53 52 53
47 45 39 49 53 54 53 44 53 56 53 53 54 55 56 58 61 62 65 64 65 65 65 70 73 71 70 69 68 67 66 68 66 66 66 65 64 62 60 59 57 56 56 55 54 52 51 50 50
41 34 37 45 53 51 48 41 53 57 55 53 55 58 55 57 59 60 64 63 64 64 66 66 71 71 70 69 68 68 67 68 65 67 67 65 65 62 60 59 57 56 55 54 54 50 51 49 48
36 36 36 38 46 47 44 42 51 54 52 50 51 53 56 56 59 61 61 62 65 64 63 65 70 71 71 69 68 67 65 66 64 67 68 66 65 62 61 57 56 57 53 52 52 50 47 48 47
43 40 37 41 48 43 43 42 47 52 49 48 51 54 55 58 62 60 60 61 60 61 60 61 65 71 70 67 65 64 64 65 63 66 69 66 65 61 60 59 57 56 56 55 52 49 48 46 44
45 39 36 42 46 43 41 40 48 51 52 54 55 56 57 59 57 59 59 59 60 61 61 59 62 68 70 69 69 68 66 66 66 66 66 64 62 60 59 58 58 57 52 51 50 50 46 45 43
44 40 36 37 42 40 38 38 42 48 50 51 54 57 58 58 59 62 60 57 59 59 60 62 60 63 69 70 68 60 61 58 59 61 63 64 62 60 61 59 60 58 57 53 52 49 49 45 42
38 42 42 39 35 29 38 26 35 43 44 46 47 48 50 52 55 57 58 55 54 56 58 59 61 60 63 68 67 65 64 62 63 65 63 58 60 59 60 59 58 57 56 53 52 50 47 46 43
40 44 40 38 32 28 29 25 34 38 42 45 48 48 49 52 52 52 53 55 56 56 55 56 57 58 60 63 67 65 65 66 63 62 59 56 55 57 57 57 56 55 53 53 52 50 50 47 46
46 40 35 32 29 18 27 27 31 36 39 42 46 51 49 50 51 52 52 54 53 53 53 54 56 58 58 58 60 63 63 58 56 54 57 53 53 54 55 56 54 54 53 52 52 54 52 50 49
40 32 19 18 17 20 30 27 33 40 45 45 46 46 47 48 50 49 50 51 53 53 54 55 56 57 56 56 56 60 63 58 58 57 58 54 52 51 52 53 52 52 52 52 51 50 51 49 48
35 33 21 18 16 20 30 25 35 42 44 47 47 45 48 48 48 50 50 50 51 52 53 53 54 55 56 54 54 56 59 60 60 58 57 56 55 56 54 53 52 51 51 50 49 48 46 48 46
35 25 34 24 22 16 26 31 40 44 44 44 45 47 47 48 48 50 52 52 52 53 53 52 52 53 55 55 53 53 57 59 56 55 55 56 55 53 52 52 50 50 50 51 50 48 46 46 45
38 40 25 19 14 16 22 25 31 37 40 44 44 44 47 48 49 50 49 52 53 53 52 51 52 52 53 53 52 54 56 57 56 52 51 50 49 51 50 50 50 49 50 50 48 46 46 45 44
34 31 30 29 24 18 18 27 36 38 39 42 45 46 46 49 51 52 50 50 51 52 51 50 50 51 52 52 52 51 50 49 47 47 47 48 49 49 51 51 50 50 49 49 47 45 44 42 41
37 34 31 19 19 20 23 26 43 39 42 46 47 50 53 54 52 48 49 51 49 52 51 50 50 49 51 51 48 46 45 45 45 45 46 48 48 50 50 50 50 48 46 45 43 42 40 39 38

GFSSGP_sfc_temp_042.txt.gz
Temp
70 68 64 62 51 46 40 47 47 52 54 58 60 60 61 61 62 56 64 69 70 72 76 77 79 79 79 79 79 78 78 78 78 78 78 78 77 77 77 78 77 77 79 78 77 78 77 76 76
67 69 62 53 44 38 41 46 51 55 59 62 61 60 59 59 63 62 64 69 73 73 74 74 78 79 80 79 78 77 78 78 78 77 77 77 77 77 77 77 77 76 77 77 76 76 76 76 76
68 66 57 50 41 39 42 49 53 58 61 58 61 61 60 61 64 64 65 71 73 72 73 74 78 78 78 78 77 77 77 77 77 77 77 77 77 77 77 78 77 76 76 75 75 75 75 75 75
63 60 55 45 42 46 49 50 54 57 62 63 61 60 63 65 65 67 69 72 71 69 70 75 77 77 77 77 77 77 77 77 77 77 77 77 77 77 76 76 76 74 75 75 75 75 74 75 75
58 53 44 41 45 48 49 55 54 55 57 58 60 60 61 65 66 68 70 73 72 68 70 73 77 77 77 77 77 77 77 78 77 77 77 77 76 76 75 75 74 74 74 74 74 75 74 74 75
51 50 39 40 45 52 51 55 54 54 55 60 56 55 60 61 65 70 72 73 75 69 71 72 75 76 76 76 76 77 77 77 77 77 77 76 76 75 75 74 74 74 74 74 75 74 74 74 74
49 45 41 41 48 48 52 56 53 55 54 58 60 55 60 60 65 71 72 72 72 70 70 70 71 73 74 75 75 76 76 76 76 76 76 76 75 75 74 74 74 74 75 74 74 74 74 74 74
50 48 41 42 44 46 54 57 58 59 59 63 64 57 58 60 67 69 69 69 70 69 70 68 68 69 69 70 73 74 75 74 75 75 74 73 71 72 73 73 73 74 74 74 74 74 74 73 73
52 42 38 44 46 50 54 53 59 61 58 60 61 59 65 64 68 67 67 68 69 70 69 68 68 68 68 68 70 72 73 72 72 71 70 69 67 68 69 68 71 72 73 73 73 73 72 70 69
48 40 43 51 52 52 54 54 55 56 56 55 59 64 64 65 67 66 66 67 68 69 70 70 68 67 67 70 67 68 69 68 67 67 66 65 65 66 68 66 69 71 72 72 73 73 70 65 59
48 42 51 53 56 57 54 53 56 52 52 56 54 59 63 60 64 66 68 69 69 71 71 70 72 67 67 67 65 64 65 65 65 65 64 64 65 64 64 63 64 65 66 63 64 61 59 58 57
44 51 53 56 58 56 52 54 51 55 57 60 59 59 61 61 62 62 66 68 70 70 71 73 73 70 67 66 65 64 65 64 64 64 63 62 62 62 62 62 62 62 61 59 58 57 57 57 56
46 49 54 57 57 54 55 52 52 53 58 59 60 61 60 60 62 63 64 65 69 70 71 72 72 71 68 65 65 64 64 65 66 63 63 62 62 62 62 61 61 61 59 58 56 56 56 55 55
51 53 53 55 55 54 52 51 51 53 55 56 57 59 59 59 61 60 63 63 64 68 71 72 71 71 70 67 65 65 65 64 63 63 63 62 62 62 62 60 60 59 58 57 56 55 54 53 53
51 45 47 50 52 52 52 48 47 56 57 56 56 55 59 59 60 61 63 64 64 66 68 68 70 71 70 67 66 66 65 66 64 64 63 63 61 62 62 61 59 59 57 56 55 53 52 51 52
46 44 37 47 51 53 53 41 51 56 52 53 52 51 53 58 60 61 62 62 63 63 64 68 71 70 70 69 67 66 65 65 65 64 63 63 62 61 61 60 59 58 55 55 53 52 50 49 50
39 32 36 44 51 50 48 39 50 53 50 50 51 51 53 54 56 58 60 61 61 62 63 65 69 69 68 69 68 66 65 65 65 64 65 63 63 62 61 60 59 56 54 53 53 50 50 48 48
36 34 36 38 45 44 42 40 49 52 51 50 50 50 51 53 56 60 59 60 62 61 61 62 65 69 69 69 68 66 65 65 64 64 66 63 64 62 61 59 57 57 54 51 51 50 47 48 48
42 39 36 40 46 42 42 40 45 51 48 48 49 52 54 58 62 59 59 60 59 60 59 60 62 67 69 68 66 66 64 65 64 64 66 63 64 61 61 60 58 57 56 55 54 49 48 45 45
42 38 35 41 45 41 40 40 46 51 51 52 53 54 55 57 59 58 57 57 57 61 59 58 60 65 67 68 67 67 67 66 65 64 65 65 63 61 61 60 57 57 56 52 52 49 46 45 44
42 39 35 36 41 38 37 37 40 46 48 49 51 52 52 53 54 57 55 56 55 55 57 60 58 61 66 68 67 61 61 60 61 62 63 63 62 61 61 59 58 56 56 54 54 52 50 46 43
38 44 42 39 35 29 37 26 36 42 43 45 44 46 46 49 51 52 53 52 53 55 55 57 59 58 61 63 65 64 64 63 63 64 64 63 61 60 60 59 58 56 55 55 54 52 51 49 44
40 44 40 37 31 29 29 26 34 38 41 44 44 45 46 47 48 50 50 51 52 53 52 54 55 57 58 62 65 63 63 65 61 62 61 61 59 60 59 58 57 55 54 53 52 51 51 50 48
45 40 35 32 29 18 26 27 32 36 36 41 42 44 45 47 49 52 51 51 51 51 51 51 52 54 56 57 59 63 63 63 58 57 59 55 55 56 58 57 56 55 53 51 52 52 52 51 50
40 33 21 19 16 20 29 26 32 38 42 41 41 44 44 46 47 49 50 51 51 51 52 53 53 53 54 53 53 60 63 62 59 60 60 56 54 52 54 55 54 53 53 53 52 51 50 49 49
34 34 23 19 18 22 30 25 34 41 42 43 44 44 46 47 45 47 49 50 50 51 51 51 51 52 53 53 53 52 54 59 59 59 59 57 56 56 56 55 55 54 53 51 50 50 50 49 47
34 25 33 23 21 16 24 30 38 40 41 42 44 46 45 46 48 48 48 48 50 51 52 51 51 51 51 51 51 51 51 53 57 57 58 58 56 54 54 53 52 52 51 50 50 49 47 47 46
37 38 25 19 13 16 23 24 29 35 37 42 45 44 45 46 47 47 47 47 50 51 52 51 49 50 50 50 50 51 50 52 56 55 54 53 52 51 50 50 49 49 49 49 50 48 47 46 44
34 30 29 28 23 18 18 28 35 37 38 40 43 45 45 48 50 47 47 49 49 48 49 48 48 48 48 49 50 49 50 50 50 50 48 47 47 48 49 48 48 48 49 50 48 47 45 43 41
36 33 31 19 18 21 20 25 40 40 41 42 44 48 52 52 48 46 45 45 44 45 46 46 46 46 45 45 46 45 45 45 45 44 44 46 45 47 48 48 47 49 48 47 45 44 42 41 39

GFSSGP_sfc_temp_045.txt.gz
Temp
74 73 70 69 60 56 51 55 59 61 64 70 70 70 70 72 70 67 71 75 77 79 82 82 79 79 79 79 78 78 78 78 78 78 78 78 78 78 78 78 77 80 79 78 77 78 77 77 77
72 73 67 61 54 48 52 57 57 63 68 67 67 70 70 71 72 67 71 75 78 79 82 82 78 79 79 79 78 78 78 78 78 78 78 77 77 78 77 78 77 77 76 76 77 77 76 76 76
72 71 64 57 50 48 52 57 60 65 67 68 70 72 71 71 72 72 75 75 78 79 81 80 78 78 80 79 78 78 78 78 77 78 77 77 77 77 77 78 76 76 76 76 76 76 76 76 76
69 67 62 53 48 52 57 61 62 63 68 69 69 69 74 74 74 75 75 77 77 77 80 78 77 79 78 78 77 77 77 78 77 77 77 77 77 77 78 78 76 75 75 75 75 75 75 75 75
64 61 52 48 50 54 57 60 63 63 64 68 68 69 70 74 72 73 75 76 76 76 79 80 78 78 77 77 77 77 77 77 77 77 77 77 77 76 76 76 75 74 75 75 75 75 75 75 75
58 58 48 47 50 56 59 63 63 63 65 68 68 68 71 71 71 71 75 75 77 76 77 80 76 76 76 76 76 77 77 77 77 77 77 77 76 76 75 74 74 74 75 75 75 75 75 74 74
55 52 48 48 52 54 58 63 63 63 65 68 71 67 73 71 71 73 74 75 75 76 77 78 80 77 74 75 75 76 77 77 76 76 76 76 75 75 75 74 74 75 75 75 75 74 74 74 74
56 56 47 48 50 53 61 62 66 65 66 72 71 67 70 70 71 72 73 73 72 75 76 76 77 78 77 78 73 74 74 74 75 74 74 72 72 72 73 73 73 74 74 74 74 74 74 73 72
58 49 44 49 49 55 60 60 66 67 66 68 70 69 69 70 71 69 68 69 70 72 74 75 75 76 76 76 75 73 73 73 72 73 70 71 76 76 75 71 71 73 73 74 74 73 72 70 69
54 47 47 54 57 56 59 61 63 64 61 64 67 69 67 68 68 67 67 67 69 70 71 73 74 74 74 75 76 76 76 78 78 77 77 77 75 76 74 70 69 72 72 72 73 72 69 69 72
51 48 53 56 58 60 58 59 63 61 59 63 64 66 67 66 67 68 69 70 69 72 72 72 73 74 73 75 74 75 73 73 76 76 76 75 74 74 74 74 74 74 69 74 73 71 72 70 71
49 53 55 58 59 59 57 61 59 60 62 67 66 66 68 67 66 66 68 70 70 72 72 73 74 74 72 74 74 74 72 72 73 73 74 73 72 72 72 73 72 72 73 72 71 71 70 68 68
50 52 56 59 58 58 59 57 58 58 62 65 64 65 66 68 69 70 71 71 70 71 73 73 75 74 71 71 72 73 73 73 72 73 72 73 72 71 72 72 71 71 71 71 70 69 69 68 68
53 55 55 57 57 58 55 55 56 59 61 61 61 64 65 65 69 69 69 70 71 73 73 74 74 74 73 70 71 73 73 73 73 73 72 72 72 71 70 71 70 70 70 70 70 69 68 68 67
53 48 52 54 55 55 56 51 50 59 61 61 62 61 63 64 67 67 71 71 72 72 75 75 74 74 72 70 70 72 71 73 72 72 72 72 71 71 71 70 69 70 69 69 67 66 66 65 65
48 49 42 51 53 55 56 45 55 59 57 58 59 60 58 61 64 66 67 68 71 70 70 74 75 73 72 71 69 70 70 70 71 71 72 71 71 71 70 69 69 70 68 67 66 64 63 64 64
44 36 39 46 52 52 52 45 54 58 56 56 58 58 58 59 62 65 66 66 69 70 70 70 72 73 73 72 70 69 70 69 70 71 71 71 70 70 70 69 69 69 67 65 64 62 64 62 61
38 37 40 42 49 49 46 45 52 55 54 54 55 57 59 58 61 66 66 66 68 68 68 69 71 73 73 72 70 68 67 68 70 70 71 70 70 69 69 69 69 68 65 64 62 63 61 62 62
44 41 40 44 49 47 45 44 48 53 53 53 54 57 59 61 64 64 65 65 65 66 65 66 67 70 72 70 68 66 65 66 66 68 69 69 69 68 67 68 68 66 65 64 63 62 59 57 59
44 40 39 44 47 46 43 42 49 53 53 53 54 55 56 58 60 61 62 62 63 64 65 65 65 67 70 72 73 71 69 68 68 68 68 69 68 67 67 68 66 66 65 62 61 60 57 57 57
43 40 39 40 44 43 40 41 45 50 51 52 51 51 52 55 55 57 58 58 58 59 60 63 64 64 67 70 71 70 67 65 66 65 66 67 68 67 66 66 66 64 64 61 60 60 59 55 54
38 45 43 41 39 34 40 33 41 44 47 47 48 49 50 52 54 55 56 57 57 57 57 58 60 62 64 67 69 68 67 65 67 68 67 66 67 66 65 66 65 63 62 62 60 58 57 57 53
41 46 42 39 35 35 35 33 40 43 44 45 47 48 50 51 53 55 55 56 57 57 56 57 58 59 60 63 67 68 67 69 69 68 67 66 64 65 64 65 64 63 62 62 59 57 58 58 57
45 41 37 35 34 27 32 32 37 41 43 44 47 49 49 50 52 54 55 56 57 57 57 57 58 59 60 60 61 64 66 66 65 64 64 65 63 63 63 63 63 63 61 61 58 58 57 57 57
42 37 27 25 23 27 32 30 37 42 45 47 48 49 50 50 52 53 53 54 55 55 56 58 58 59 59 59 59 60 62 65 65 65 64 64 60 59 61 62 61 61 60 60 58 56 56 55 55
38 38 29 24 24 27 32 28 38 44 46 49 49 49 48 50 52 52 52 53 53 54 55 56 57 57 58 58 59 59 59 60 64 64 65 65 63 62 63 61 62 61 60 58 57 56 55 55 55
37 32 36 26 25 24 30 34 41 45 45 47 47 49 49 51 51 51 52 52 53 53 54 54 54 56 56 56 57 57 58 57 58 62 63 64 64 62 62 60 59 59 58 57 56 55 54 54 52
39 39 29 25 20 23 28 28 35 39 42 45 47 47 48 49 51 51 51 51 53 52 52 52 53 53 54 54 54 55 55 56 57 58 60 61 61 60 58 58 57 56 55 54 53 52 52 50 47
35 33 31 31 26 24 25 32 39 41 43 43 46 47 48 50 50 50 51 51 52 51 50 50 51 50 51 51 52 52 52 52 53 54 55 56 55 56 55 54 54 53 52 52 50 49 48 46 44
38 34 32 25 23 23 24 30 44 43 44 45 46 48 50 51 50 49 49 49 51 48 48 48 48 48 48 49 50 50 51 51 51 50 51 51 52 53 52 51 51 51 51 50 47 46 45 43 42

GFSSGP_sfc_temp_048.txt.gz
Temp
80 86 89 83 69 68 63 65 72 70 72 79 79 78 78 81 78 74 81 85 88 88 90 84 79 79 79 79 78 78 78 78 78 78 78 78 78 78 78 77 78 79 79 78 78 78 77 77 77
84 83 85 79 64 59 64 71 67 73 76 79 78 78 77 78 83 80 81 83 88 89 89 87 78 79 79 79 78 78 78 78 78 78 77 78 78 78 78 77 78 78 77 77 77 77 77 76 76
82 84 76 70 64 60 63 70 74 74 77 78 78 81 81 79 83 84 85 85 89 89 90 87 78 79 79 78 78 78 78 78 78 78 78 77 78 78 78 77 76 76 76 76 76 76 76 76 76
80 80 77 64 59 66 69 71 73 73 76 78 79 77 84 84 83 85 86 87 88 89 90 79 78 79 79 78 77 78 78 78 78 78 77 77 77 78 78 76 75 75 75 75 76 76 75 75 75
79 77 64 60 62 68 71 73 73 71 74 77 78 76 80 82 83 84 85 87 87 88 89 85 78 78 79 78 77 77 78 78 78 78 77 77 77 77 78 76 75 75 75 75 75 75 75 75 75
69 74 60 57 62 69 72 74 73 73 75 77 77 78 81 82 82 81 84 87 88 87 87 87 78 78 78 77 77 77 77 77 77 77 77 77 76 76 76 75 74 75 75 75 75 75 75 75 74
67 64 60 63 63 65 68 76 72 74 75 76 81 76 82 83 81 77 79 86 86 87 86 87 85 79 75 75 75 76 77 76 76 76 76 76 75 75 75 74 74 75 75 75 75 75 74 74 74
70 67 61 63 61 62 73 72 76 74 75 81 81 76 78 79 79 76 76 77 78 84 86 86 87 86 85 83 74 74 75 75 75 74 73 72 72 72 74 73 74 75 75 74 74 74 74 73 72
68 61 57 59 60 64 71 70 74 76 76 77 79 78 77 79 75 73 72 72 73 81 84 85 86 85 85 85 80 74 72 72 73 73 71 71 81 79 76 73 72 73 74 74 74 73 72 71 69
64 58 61 67 67 65 68 71 73 72 72 74 76 78 77 75 71 70 70 70 71 73 78 84 84 85 84 83 84 84 83 80 83 82 81 83 83 83 81 73 70 72 73 73 73 72 70 71 80
64 59 66 63 66 67 68 69 73 71 68 75 74 75 76 72 70 70 72 74 73 75 75 77 82 84 83 83 84 85 85 85 85 84 84 84 83 81 80 80 78 79 71 80 76 75 80 79 80
57 64 64 64 64 64 65 71 68 71 73 76 76 75 76 75 74 72 71 73 74 75 76 76 77 82 83 84 83 85 84 83 83 83 84 83 81 81 81 81 80 81 81 81 80 80 79 77 78
59 60 63 66 64 64 66 65 68 68 74 75 74 73 75 76 77 79 78 77 77 75 76 76 76 81 81 81 84 84 84 82 83 82 83 83 81 80 81 81 81 81 81 81 79 79 78 78 78
62 61 62 64 63 63 61 63 64 68 74 73 73 74 77 77 78 79 80 80 81 82 79 77 77 79 83 74 81 82 84 84 83 82 82 81 82 81 80 80 80 80 80 80 80 79 78 77 77
60 56 60 60 62 62 64 58 58 70 74 71 74 75 75 76 78 78 81 81 84 85 85 83 81 81 79 76 73 80 81 81 82 82 83 81 81 80 80 80 79 79 80 80 79 78 77 76 76
55 56 49 60 61 61 61 54 62 69 69 68 71 74 74 74 76 79 81 81 82 83 83 85 84 82 81 76 74 73 78 80 81 82 82 81 81 80 79 79 79 80 79 78 76 75 74 74 74
53 48 49 52 60 61 58 55 64 68 66 67 70 71 72 72 75 78 80 80 81 83 83 82 83 83 83 80 76 72 73 77 81 80 80 80 80 79 79 79 79 79 77 76 75 74 74 72 72
46 48 49 50 54 56 54 56 61 65 63 65 68 70 72 72 74 79 80 80 80 81 81 82 82 83 83 83 75 71 69 72 80 80 80 79 79 78 77 78 78 79 76 75 74 73 72 73 72
53 50 49 52 54 53 54 54 58 63 64 64 66 69 70 72 75 74 74 75 75 76 77 78 78 80 82 81 72 68 67 68 69 74 78 79 78 77 76 77 78 77 75 74 73 72 69 67 71
51 49 49 50 52 53 52 52 58 61 62 61 62 64 66 67 69 69 70 71 71 72 75 76 77 77 78 80 80 76 74 72 74 71 71 74 77 76 76 75 76 76 75 74 72 71 67 69 68
49 48 47 48 49 50 50 51 53 55 58 59 60 60 63 64 65 67 68 69 70 70 69 70 72 73 74 76 78 78 78 76 73 71 71 72 73 75 74 73 75 74 74 73 72 70 67 65 65
44 51 50 47 46 44 48 45 49 53 52 56 59 59 61 63 65 66 67 67 68 67 67 68 68 70 71 72 73 74 74 71 73 75 75 74 71 71 73 72 72 73 71 71 71 70 68 68 63
45 51 48 46 46 44 44 43 49 53 50 53 57 58 60 61 62 64 64 64 66 66 66 68 70 71 70 70 71 72 73 75 76 76 74 75 73 69 68 70 70 71 70 69 70 68 67 68 68
50 47 44 44 44 35 42 41 47 49 52 53 57 59 59 61 62 64 64 65 66 67 66 67 68 70 70 69 69 69 70 73 73 72 72 73 72 69 67 67 68 69 69 68 68 66 65 65 66
45 44 33 32 31 36 39 38 49 52 54 57 55 57 59 61 62 62 62 62 63 63 64 65 66 67 69 69 69 69 68 70 71 72 71 71 70 67 64 66 65 66 68 68 67 66 63 62 61
38 39 38 31 33 37 38 36 47 54 56 58 57 57 57 60 61 61 60 61 62 62 63 64 64 64 66 67 68 69 69 69 70 70 70 71 71 72 71 66 65 65 66 66 66 64 62 61 58
40 36 44 35 34 35 43 44 50 51 52 55 55 57 58 59 60 59 60 61 61 61 61 60 61 63 64 64 66 67 68 67 67 68 70 72 73 71 72 70 64 64 64 63 62 60 59 59 59
47 47 36 36 29 31 39 40 46 46 50 53 55 57 58 59 59 59 60 60 61 60 60 60 61 60 61 61 63 63 64 64 65 66 67 68 70 71 69 66 65 62 60 59 58 57 58 56 56
41 41 40 42 37 35 36 43 51 52 54 52 56 57 58 58 57 58 58 59 60 60 59 59 59 59 58 59 60 61 62 62 63 61 61 62 63 64 63 63 62 59 57 56 55 53 53 52 49
46 43 44 38 32 34 34 43 52 55 55 54 56 57 59 58 56 56 56 57 58 57 57 56 56 56 56 57 58 58 59 60 60 60 59 58 57 58 58 57 56 55 54 53 51 49 48 45 43

GFSSGP_sfc_temp_051.txt.gz
Temp
81 88 92 85 69 70 66 70 78 74 75 83 83 82 81 83 80 72 86 90 93 91 89 85 80 79 79 79 78 78 78 78 78 78 78 78 78 78 78 78 79 79 79 78 79 78 77 77 76
86 88 86 80 65 61 65 76 71 77 80 83 83 82 81 81 88 84 86 88 93 92 89 88 78 79 79 79 78 78 78 78 78 78 78 78 78 78 77 78 79 79 77 78 77 77 77 76 76
82 88 77 70 66 61 66 75 77 78 81 82 81 86 84 82 87 88 90 90 93 92 91 85 78 79 79 78 78 78 78 78 78 77 77 77 78 78 77 77 76 76 77 77 76 76 76 76 76
79 80 79 65 63 70 73 76 79 78 80 82 82 80 87 89 87 90 90 92 92 93 93 79 78 78 78 78 78 78 78 78 78 77 77 77 77 78 76 76 75 75 75 76 76 76 76 75 75
81 77 65 62 64 72 78 78 79 77 78 80 82 80 82 85 89 90 90 92 91 92 91 85 78 78 78 78 78 77 78 78 78 78 77 77 77 78 76 75 75 75 75 75 76 75 75 75 75
69 74 59 59 65 73 78 80 78 77 79 80 80 81 82 88 87 88 90 91 93 91 90 86 78 77 78 78 77 77 77 78 77 77 77 77 77 77 77 75 75 75 75 75 75 75 75 75 75
66 66 61 64 66 69 75 82 76 77 79 79 85 78 84 86 84 86 90 92 91 91 90 88 85 80 76 77 77 77 77 76 76 76 76 76 75 75 75 74 74 75 75 75 75 75 75 74 74
70 68 62 65 65 66 78 78 80 78 77 86 86 77 79 83 83 82 83 88 89 89 90 89 87 83 81 82 75 75 75 75 75 74 74 72 72 73 74 73 74 75 75 75 75 74 74 73 73
73 60 58 62 65 70 79 74 80 83 80 81 84 83 81 84 81 76 73 74 80 87 88 90 89 87 88 87 80 74 73 72 73 73 70 71 80 77 74 73 72 74 74 74 74 74 73 71 70
64 59 61 71 72 69 75 74 78 74 76 78 79 82 81 83 77 74 72 72 72 82 86 88 89 88 87 87 84 82 82 79 78 80 78 81 83 82 81 73 71 72 73 73 73 72 71 70 78
64 60 68 72 68 69 71 72 79 74 72 78 77 81 80 79 76 76 75 78 74 76 81 86 87 88 87 86 86 85 85 81 82 85 83 83 84 81 81 78 76 77 71 77 74 73 76 79 80
59 67 70 70 68 65 67 75 73 74 77 82 82 80 80 80 78 78 78 79 82 78 77 77 85 86 86 87 85 87 87 86 86 85 86 84 83 82 81 81 79 79 80 80 78 78 79 79 79
60 66 69 69 65 66 70 70 72 73 79 79 79 78 79 80 82 83 82 81 82 80 80 78 78 82 85 84 86 86 86 86 85 85 85 85 83 82 82 82 82 81 82 82 80 80 80 78 79
64 65 66 68 64 65 63 68 69 72 78 77 76 77 79 80 82 83 83 83 83 84 83 82 78 78 84 84 84 86 86 86 85 85 83 84 84 82 81 82 82 81 81 82 82 80 79 78 78
63 59 62 65 65 63 65 60 62 72 76 74 75 76 77 79 82 81 84 84 86 88 88 85 83 82 81 85 81 84 85 86 85 84 84 83 82 82 81 81 81 81 82 81 81 80 79 78 77
57 58 49 61 63 64 62 54 67 73 72 71 75 76 77 79 80 83 85 85 86 86 86 88 87 85 84 84 80 78 84 84 84 85 85 84 83 82 81 80 80 82 81 80 79 78 76 75 75
53 47 51 56 65 62 59 57 69 71 70 70 74 75 76 78 79 82 84 85 85 86 85 85 86 86 86 86 82 74 74 78 83 84 84 84 83 82 81 80 80 81 80 75 77 76 75 73 73
46 48 54 54 58 60 58 57 66 68 67 69 72 74 74 75 77 81 83 85 85 86 85 85 86 86 86 87 85 76 71 72 76 82 83 82 83 82 80 80 80 81 79 76 76 75 75 74 72
56 53 53 57 58 56 56 58 62 66 67 67 69 71 73 75 79 80 78 78 79 80 80 81 82 83 84 83 82 75 70 69 70 76 82 82 81 81 79 78 79 79 78 77 76 74 72 70 73
53 52 52 54 57 55 57 55 61 64 65 67 68 69 71 72 74 74 73 74 74 76 77 78 80 81 82 82 82 82 77 74 71 71 73 78 81 80 79 78 77 78 76 76 74 73 70 69 70
52 49 52 51 53 55 53 51 56 58 61 62 63 65 67 68 69 70 71 71 72 71 70 72 74 75 77 78 80 80 81 78 75 73 72 73 74 77 78 76 76 76 76 73 73 72 69 65 67
47 55 54 50 48 45 54 46 53 54 55 59 61 63 65 66 68 68 69 69 70 69 69 71 72 72 74 75 74 74 75 74 76 77 78 76 76 73 73 72 73 74 74 73 73 73 69 67 63
49 55 52 50 48 47 48 45 52 55 51 55 60 61 63 64 65 66 66 67 69 68 67 69 72 73 73 73 73 72 72 74 77 78 77 77 77 76 72 71 71 70 70 70 72 71 69 67 67
55 51 49 48 46 36 47 47 46 50 54 56 60 62 62 64 65 66 67 67 68 68 68 68 69 71 73 73 72 71 69 70 73 74 74 75 76 75 74 69 68 68 67 68 68 70 67 66 65
51 46 35 33 32 37 45 42 53 57 60 60 59 61 62 64 65 65 65 65 65 65 66 67 68 68 70 71 71 72 70 70 70 72 74 74 73 72 71 68 66 66 66 66 66 65 65 64 63
45 46 40 32 34 39 42 38 52 59 62 61 61 61 61 63 64 63 63 64 64 64 64 65 65 65 68 68 69 70 71 70 71 72 72 73 74 74 76 70 67 65 65 65 64 63 63 63 62
37 36 48 40 42 39 43 48 52 56 56 59 59 60 61 62 62 63 64 64 64 63 62 63 63 64 65 65 67 67 69 68 67 69 70 71 73 73 74 73 69 65 64 63 62 61 60 60 59
46 50 36 38 31 33 42 45 47 47 51 56 58 59 61 61 62 62 63 62 63 63 62 63 63 62 63 63 64 65 66 66 66 67 66 67 69 70 71 72 69 64 62 61 59 57 57 56 56
44 43 44 44 40 37 39 44 53 52 55 55 57 59 60 60 60 60 60 61 62 62 61 61 61 60 60 61 62 62 62 63 64 64 64 63 62 62 63 65 65 64 60 59 56 55 54 53 51
50 49 49 40 35 39 38 43 57 58 59 58 58 60 61 60 59 59 58 59 60 60 59 59 58 58 58 59 59 59 59 59 59 59 60 60 59 59 58 57 58 58 56 55 53 50 49 46 44

GFSSGP_sfc_temp_054.txt.gz
Temp
77 83 82 73 57 58 55 61 69 66 66 72 76 71 68 72 70 59 77 82 85 81 81 80 79 80 79 79 78 78 78 78 78 78 78 78 78 78 78 78 79 79 79 79 78 78 77 77 76
78 82 75 66 54 50 55 66 66 68 73 75 73 71 71 69 78 75 76 84 87 84 82 81 79 79 79 78 78 78 78 78 78 78 78 78 78 78 78 78 79 78 78 78 77 77 76 76 76
78 81 65 59 56 52 56 68 69 72 73 73 72 74 74 72 80 78 81 85 87 83 84 79 78 78 78 78 78 78 78 78 77 77 77 78 78 77 78 78 77 77 77 77 76 76 76 76 76
73 70 68 56 55 62 65 68 72 72 72 75 73 70 76 79 78 81 83 86 86 84 78 76 77 78 78 78 78 78 78 78 77 77 77 77 77 77 76 76 76 76 76 76 76 76 75 75 75
73 66 56 54 57 65 70 73 69 70 70 73 71 69 70 77 83 83 83 86 84 79 78 77 77 78 78 78 78 78 78 78 78 77 77 77 77 76 75 75 75 75 75 76 76 75 75 75 75
57 65 51 50 58 66 70 73 68 69 72 71 68 69 69 79 80 81 84 83 86 79 81 78 76 77 77 78 78 78 78 78 78 77 77 77 77 76 75 75 75 75 75 75 75 75 75 75 75
53 52 51 55 59 64 69 74 68 67 66 70 72 67 71 73 78 82 82 84 84 84 80 78 77 76 75 76 77 77 77 76 76 76 76 75 75 75 75 74 75 75 75 75 75 75 74 74 74
61 52 50 57 58 61 73 74 75 70 69 77 75 64 61 71 76 77 77 80 82 81 81 79 77 76 76 76 75 75 75 74 74 74 73 72 72 72 73 73 74 75 75 75 74 74 74 73 73
68 49 45 53 58 63 74 70 74 76 71 71 73 71 75 76 75 71 70 71 74 80 80 81 78 76 75 76 74 73 73 72 72 71 70 69 69 69 69 70 72 73 74 74 74 74 73 71 70
59 50 52 64 67 64 71 71 70 68 67 67 70 75 77 75 71 67 67 65 68 72 78 80 80 79 79 82 72 72 73 70 74 72 68 69 70 70 74 69 70 72 72 73 73 73 71 69 65
58 52 62 67 67 65 67 69 70 66 62 69 69 71 73 73 70 70 69 69 68 71 75 79 79 79 78 77 73 74 74 72 72 74 71 70 74 69 69 65 66 66 67 68 68 67 66 65 66
55 60 64 66 65 63 63 69 65 67 65 73 71 73 73 71 71 71 70 72 71 71 71 74 75 78 77 76 74 75 76 74 73 75 74 73 70 70 69 68 66 67 67 67 66 65 66 66 69
57 61 65 67 63 62 67 63 63 65 69 72 73 73 69 69 71 74 74 74 74 72 74 74 73 74 76 75 74 74 75 77 76 74 75 75 71 71 72 70 70 70 69 69 69 67 69 67 68
61 62 63 64 62 63 61 62 65 66 68 69 69 66 68 70 71 69 73 74 73 74 74 74 74 73 74 75 74 75 75 76 75 74 74 75 73 71 70 71 71 69 69 70 70 69 68 67 66
62 55 58 60 61 59 62 56 58 66 67 67 66 66 69 70 72 71 72 72 75 78 78 76 75 74 72 74 74 74 75 77 74 74 75 75 74 72 71 70 69 69 70 71 70 69 68 66 66
54 53 47 57 60 61 59 46 61 68 64 63 64 65 66 70 71 71 73 73 73 73 75 79 81 76 74 75 75 72 73 76 74 75 75 75 75 73 70 69 69 70 70 69 67 66 65 63 62
50 41 45 51 61 59 56 48 61 68 65 62 63 65 67 68 70 70 71 71 73 74 75 75 77 76 77 77 74 71 71 69 72 76 74 75 76 75 73 69 69 70 68 68 68 65 64 61 60
41 42 47 48 57 57 52 51 59 62 60 60 60 62 63 65 68 70 72 67 71 71 72 72 73 75 76 75 75 70 66 69 69 71 73 74 74 73 72 71 69 70 67 66 65 64 63 62 61
51 47 46 54 57 54 52 53 57 61 60 58 59 61 63 65 70 69 67 68 68 68 69 69 70 71 71 69 69 66 66 66 67 72 71 72 72 72 68 70 71 70 70 69 68 65 62 60 60
48 46 47 52 55 53 51 50 56 59 59 61 58 59 60 62 63 65 65 64 64 64 63 64 66 68 70 69 69 68 67 68 68 68 71 70 71 73 70 68 69 68 67 66 68 67 63 59 60
47 45 47 47 50 51 47 45 50 56 56 57 57 55 58 59 61 62 62 62 62 60 61 63 64 65 65 65 66 65 66 66 65 64 66 70 70 69 70 71 70 64 64 64 66 65 63 61 57
44 52 52 49 44 37 49 33 47 50 50 54 53 54 54 56 59 62 61 60 59 59 60 62 64 64 65 64 62 61 60 60 64 66 68 68 68 68 69 67 68 71 70 67 66 64 62 58 57
49 53 49 48 43 40 42 34 40 48 46 50 53 54 55 56 58 59 59 60 60 60 59 60 61 63 64 64 62 60 59 61 62 64 65 66 66 67 66 67 68 66 68 66 67 64 64 63 60
54 47 46 45 41 30 41 39 37 43 48 49 52 54 56 57 57 59 60 60 59 58 58 58 60 61 63 63 63 61 59 58 58 59 60 63 64 64 65 65 67 68 65 65 64 66 63 63 62
48 39 27 27 27 28 42 38 40 50 53 53 53 54 55 56 56 56 55 56 56 56 57 58 58 58 60 60 60 60 59 59 58 58 58 60 61 62 63 63 63 64 65 65 64 63 63 61 60
40 40 29 25 26 30 39 30 41 52 55 56 57 56 56 56 55 55 55 55 55 56 55 56 56 56 57 57 58 58 59 58 58 58 58 58 59 61 65 65 61 62 63 62 63 62 62 62 60
37 34 43 32 36 29 34 40 45 51 50 53 54 55 54 55 55 54 54 56 55 54 55 54 55 55 56 55 55 56 56 56 56 57 57 57 58 62 61 61 61 61 62 62 61 61 61 60 59
41 47 34 29 22 26 33 36 36 42 45 51 51 52 54 56 55 55 54 55 55 54 54 54 54 53 53 54 54 55 54 55 55 55 54 55 55 57 56 56 57 58 59 60 59 58 58 57 55
37 36 39 37 31 25 26 32 43 46 48 49 51 54 54 54 54 53 53 54 54 53 53 52 52 52 51 52 52 51 51 51 52 51 51 52 52 53 55 55 53 54 56 56 55 55 54 53 51
46 45 44 31 31 28 27 32 51 50 51 52 52 55 55 55 53 52 52 52 52 51 51 50 50 50 50 50 50 49 49 48 47 47 47 48 47 50 52 53 52 51 50 49 49 48 47 46 44

GFSSGP_sfc_temp_057.txt.gz
Temp
74 74 71 66 53 49 45 54 58 62 62 63 68 69 65 65 65 57 73 77 77 76 78 79 79 79 79 79 78 78 78 78 78 79 78 78 78 78 78 79 79 79 79 79 78 77 77 77 76
71 74 67 59 48 42 47 55 60 62 67 67 71 68 67 64 71 72 72 78 79 77 78 78 79 79 78 78 78 78 78 78 78 78 78 78 78 78 78 79 79 78 78 78 77 76 76 76 76
73 74 59 52 46 44 47 58 61 66 70 68 65 69 67 66 73 72 75 80 79 77 78 78 78 78 78 78 78 78 78 77 77 77 77 78 78 79 79 78 77 77 77 77 76 76 76 75 75
69 64 60 49 46 55 56 60 64 66 69 71 67 64 70 74 73 76 80 80 78 77 75 76 77 78 77 77 78 78 78 77 77 77 77 77 77 78 77 77 76 76 76 76 76 75 75 75 75
69 63 47 45 50 56 58 67 66 64 66 66 66 62 64 72 77 78 80 81 74 74 75 76 77 78 78 78 78 78 78 77 77 77 77 77 77 76 76 76 75 75 75 76 76 75 75 75 75
55 58 45 43 50 59 60 67 67 63 66 66 66 63 63 70 75 75 79 76 77 74 76 77 76 77 77 78 78 77 77 77 77 77 77 77 76 76 75 75 75 75 76 76 75 75 75 74 74
54 50 47 47 50 57 61 67 65 64 61 63 68 60 61 68 72 75 77 76 77 76 75 73 74 75 75 76 77 77 77 77 76 76 76 75 75 75 75 75 75 75 75 75 75 75 74 74 74
56 53 48 50 50 54 66 69 69 68 62 71 70 60 59 67 71 72 71 74 76 75 74 72 71 73 72 76 75 75 75 74 74 74 73 72 71 72 73 73 74 75 75 74 74 74 74 74 73
62 48 44 48 51 56 69 63 68 70 68 69 66 66 69 71 71 69 68 69 71 75 74 74 72 71 71 74 75 73 73 72 72 71 70 69 66 68 69 69 71 73 73 74 74 74 73 71 70
52 48 49 59 59 57 64 65 65 64 63 64 63 69 71 69 67 65 65 65 65 70 73 74 73 73 72 77 70 69 71 69 68 68 66 65 65 66 70 67 69 72 72 72 73 73 71 69 63
56 49 57 59 62 60 62 67 67 61 57 62 62 64 67 66 65 65 64 65 66 66 71 73 74 74 73 74 69 67 67 68 68 67 67 65 68 65 65 64 66 65 66 67 68 67 64 62 62
52 59 60 62 63 58 61 67 67 62 61 66 66 68 67 66 66 65 65 66 67 68 68 71 72 72 72 72 70 69 69 68 69 69 68 65 64 64 65 64 63 63 64 64 63 62 63 62 63
53 58 62 63 62 60 63 62 61 59 63 68 70 69 66 66 66 68 69 69 68 68 70 71 71 70 71 71 71 69 71 71 71 70 70 69 66 67 67 64 64 63 63 64 63 62 63 62 63
58 59 60 62 59 59 58 58 62 61 65 65 68 65 63 64 66 66 68 70 67 68 71 72 71 70 70 69 71 70 71 73 71 70 72 72 69 70 68 66 66 65 65 66 66 66 64 63 63
58 52 55 56 56 56 60 55 55 62 63 60 58 60 66 66 66 64 68 68 70 71 72 71 72 72 70 69 69 71 71 73 71 72 72 73 70 68 69 67 65 67 66 67 65 65 64 62 63
52 51 42 55 56 57 58 47 56 62 56 61 58 57 60 65 68 68 69 67 70 70 71 72 76 72 70 69 70 70 71 70 71 71 71 72 72 70 68 66 66 67 67 67 65 63 62 61 61
46 38 42 49 56 56 54 47 58 61 58 58 58 59 61 62 63 65 67 66 66 67 69 70 73 70 69 69 70 69 69 69 69 72 74 74 74 71 69 67 66 67 65 65 67 63 62 59 58
37 39 45 45 52 54 50 49 56 58 57 57 56 57 58 62 65 66 65 63 65 64 65 66 70 71 71 73 70 68 67 68 68 68 69 70 71 71 68 68 67 67 65 63 62 62 60 60 59
47 44 43 49 55 52 50 50 55 57 55 54 55 57 58 61 64 62 62 62 63 61 61 61 64 65 67 67 64 64 66 65 65 67 70 69 68 68 67 69 68 66 67 68 64 62 61 58 58
46 42 41 48 54 52 50 47 53 54 55 57 57 55 55 57 59 60 61 61 59 58 59 60 61 62 63 64 63 63 64 65 67 67 66 68 67 66 66 65 64 64 64 62 62 63 59 59 57
43 41 41 43 47 47 46 43 48 53 55 56 56 54 55 56 57 56 58 58 59 58 57 60 60 61 62 62 62 61 61 62 63 63 63 65 66 67 67 66 65 65 61 63 61 62 61 60 56
39 48 48 46 41 34 48 30 42 48 49 51 51 51 51 54 56 58 58 58 58 57 58 59 60 61 63 62 60 58 57 56 58 61 64 64 65 66 66 66 65 63 63 63 63 61 60 57 56
44 50 46 44 40 38 38 31 39 45 43 47 49 50 51 52 54 55 57 60 59 59 57 58 59 60 60 59 60 57 56 55 56 57 58 60 63 65 65 65 64 62 62 62 62 62 62 62 62
51 45 42 40 37 27 37 34 35 39 47 45 47 50 53 54 54 55 57 58 57 56 56 56 57 58 59 58 58 57 55 55 55 55 55 56 58 60 62 63 64 63 62 63 63 63 61 61 61
46 39 24 23 22 24 38 34 38 47 48 50 49 50 52 53 53 53 54 54 55 54 54 57 55 55 56 56 56 56 55 54 54 53 53 54 55 56 58 62 63 61 62 62 62 62 62 61 60
41 39 27 21 21 25 37 31 39 48 51 53 54 53 52 52 52 53 54 53 53 53 53 53 53 52 53 53 53 54 53 53 54 53 53 53 53 54 55 55 56 59 60 60 61 61 61 62 60
38 30 41 29 29 22 30 37 45 47 47 50 51 51 51 51 52 53 53 52 51 51 51 51 51 51 51 51 51 51 50 51 51 51 51 51 52 57 53 53 53 54 57 58 58 58 59 59 59
42 45 32 26 20 22 28 31 35 40 43 48 49 49 50 51 51 51 51 51 51 51 50 51 51 50 50 50 49 49 48 49 48 48 47 48 50 51 51 51 51 52 54 54 55 57 57 56 56
38 36 37 36 28 22 23 30 42 46 45 46 48 50 51 51 50 49 49 51 51 50 49 48 48 48 48 48 47 46 46 45 45 45 45 45 46 47 48 49 48 48 47 48 49 50 51 52 50
43 40 40 29 29 27 24 29 47 46 47 48 49 52 52 52 50 50 49 49 48 47 47 46 47 47 47 47 45 44 44 43 42 42 42 43 42 44 45 46 46 46 47 46 46 46 45 44 43

GFSSGP_sfc_temp_060.txt.gz
Temp
72 71 68 64 52 48 43 51 54 58 59 62 64 67 64 61 63 57 68 73 75 75 77 78 79 79 79 79 78 78 78 78 78 79 78 78 78 78 78 79 79 79 79 78 78 77 77 77 77
70 73 65 56 47 41 45 52 57 60 66 67 67 65 64 61 68 66 67 74 76 76 77 77 78 79 78 78 78 78 78 78 78 78 78 78 78 78 79 79 78 78 78 77 76 76 76 76 76
71 72 58 51 44 43 46 55 59 63 64 65 64 67 64 63 69 69 72 76 76 75 77 77 78 78 78 78 78 78 77 77 77 77 78 77 79 78 79 78 77 77 77 76 76 76 75 75 75
68 62 57 47 45 52 52 56 63 63 64 69 64 61 66 69 71 72 76 76 74 72 73 77 77 78 78 77 77 77 77 77 77 77 77 78 78 79 78 77 76 75 75 76 76 75 75 75 75
66 58 46 42 47 52 57 62 63 62 62 64 63 58 62 71 73 76 75 77 73 72 74 77 77 78 77 77 77 77 77 77 77 77 77 77 78 77 77 76 75 75 75 75 75 75 75 74 75
55 56 41 41 47 54 58 62 63 62 61 63 62 61 60 68 72 74 76 75 76 73 75 76 76 77 77 77 77 77 77 77 76 77 77 77 76 76 76 75 75 75 75 75 75 75 75 74 74
55 50 44 43 48 53 59 64 61 62 60 61 66 58 61 65 68 72 74 73 74 75 74 73 74 76 76 76 77 76 76 76 76 76 76 75 75 75 75 75 75 75 75 75 75 75 74 74 74
56 55 46 46 48 51 63 62 65 65 61 67 67 58 59 65 69 70 71 72 72 72 72 70 71 72 73 76 75 74 74 74 74 74 73 72 71 72 73 73 74 75 75 74 74 74 74 74 73
60 47 45 49 51 54 58 57 65 69 63 63 63 63 68 69 70 69 67 67 68 71 70 69 69 70 70 71 73 73 72 72 72 71 70 68 66 68 69 69 71 73 73 74 74 74 73 72 71
53 48 49 58 59 53 56 57 59 63 61 58 61 66 69 68 66 65 65 65 65 66 69 71 70 69 69 76 70 69 70 68 67 67 66 64 64 65 68 66 69 72 72 72 73 73 72 69 62
52 48 55 59 62 56 54 55 61 59 58 59 60 62 65 64 64 64 65 66 65 66 68 70 69 69 69 70 67 67 67 66 65 65 65 63 65 62 63 62 64 65 66 66 68 66 64 62 61
49 57 59 61 62 54 53 58 56 61 61 66 64 65 63 63 63 63 64 65 66 67 68 69 70 68 68 69 68 67 67 66 64 65 65 62 61 61 61 62 63 63 64 64 63 62 61 61 61
51 56 60 60 58 56 57 53 54 61 66 63 65 65 62 62 63 65 66 66 66 67 68 68 69 68 68 67 67 66 66 67 67 66 66 65 62 62 62 62 62 62 62 63 62 61 61 60 60
55 57 57 57 58 59 53 53 56 64 65 60 66 63 62 62 64 63 65 66 66 67 69 70 69 68 68 66 66 67 67 67 67 68 68 68 66 65 65 64 63 63 63 63 63 63 62 61 60
56 50 53 56 56 57 59 52 52 66 63 60 57 58 64 66 65 63 66 66 66 68 70 70 71 70 68 69 67 66 69 69 68 68 69 70 67 66 66 65 64 65 64 63 63 62 62 61 63
50 49 41 53 55 58 58 46 57 63 60 59 56 54 56 62 64 64 66 66 66 66 68 70 74 71 69 68 68 68 68 68 70 69 70 71 71 67 67 66 65 66 63 64 62 63 61 60 60
45 37 40 48 55 55 54 46 56 61 56 57 55 57 58 59 61 63 64 61 63 65 66 67 69 70 70 68 68 68 67 67 67 68 69 70 71 70 68 68 67 65 65 64 63 61 61 58 58
37 39 44 45 51 52 50 46 56 55 53 56 55 56 58 59 61 61 62 61 61 61 61 63 66 67 67 67 66 66 66 66 67 67 68 69 69 69 65 64 65 65 63 62 61 62 59 59 61
45 43 42 46 53 51 48 47 53 54 49 52 53 55 58 59 57 59 57 57 58 57 58 58 61 61 62 63 63 63 64 65 64 65 68 67 67 67 64 64 63 62 63 65 62 60 60 59 55
45 41 41 46 53 50 48 47 50 53 52 54 56 54 55 55 56 57 57 56 57 55 56 57 58 59 60 60 60 61 62 64 65 65 65 66 66 66 65 63 63 63 61 61 61 60 58 57 55
40 40 40 42 46 47 44 41 45 50 50 54 56 55 55 57 56 54 53 55 56 55 55 58 58 58 59 60 60 59 60 60 62 62 62 64 65 65 64 64 63 62 61 61 60 59 59 61 54
35 47 47 44 41 35 45 30 40 46 48 49 49 50 53 53 53 55 55 55 55 55 55 57 58 58 60 58 57 57 56 56 57 59 61 61 63 63 64 64 63 63 62 61 61 61 60 58 59
42 47 45 43 39 37 37 31 36 40 42 46 47 48 50 51 52 54 55 57 56 55 53 54 56 57 57 57 56 55 54 54 54 55 55 56 58 60 62 63 63 61 62 62 61 60 58 59 60
48 43 40 39 37 27 35 34 31 37 42 46 46 48 49 50 51 53 54 55 53 53 53 53 54 54 55 55 54 53 52 52 52 52 52 52 53 55 56 58 60 61 61 60 60 60 59 60 60
45 37 26 26 26 24 36 32 39 43 46 47 48 48 50 50 50 51 52 52 52 51 52 54 53 52 53 52 52 51 51 51 51 50 50 51 51 51 52 53 54 56 58 60 60 59 58 58 58
40 36 25 21 21 26 35 29 39 45 47 50 52 52 50 49 49 51 52 51 51 51 51 51 51 50 50 50 50 49 49 49 50 49 49 49 50 51 51 52 52 53 56 57 57 57 57 58 57
39 34 38 28 26 21 29 36 44 43 42 46 47 49 49 49 49 50 50 50 49 49 50 50 50 49 49 48 48 47 47 46 46 46 47 47 48 53 50 50 50 51 52 54 56 56 57 55 55
41 43 31 26 19 21 26 27 34 38 41 46 46 48 48 50 49 49 48 49 49 49 48 48 49 48 48 47 46 45 44 45 44 44 43 44 46 47 48 47 47 47 47 48 49 49 50 52 52
38 37 34 34 27 22 21 28 40 43 47 47 48 48 48 49 49 48 48 48 48 47 46 46 46 46 46 45 44 43 42 42 42 41 41 42 43 44 44 45 44 44 44 43 44 44 45 46 46
41 39 40 30 24 23 23 28 44 45 47 50 50 51 51 51 49 48 48 47 46 45 44 44 45 45 44 44 42 41 41 40 39 39 40 41 40 42 42 43 42 42 42 41 41 41 41 42 42

GFSSGP_sfc_temp_063.txt.gz
Temp
71 70 67 63 52 47 42 49 51 57 56 60 63 62 63 61 62 57 66 71 73 74 76 77 79 79 79 79 78 78 78 78 78 78 78 78 78 78 78 79 79 78 78 78 77 77 77 77 77
68 71 64 55 45 39 43 50 54 58 61 63 65 61 62 59 65 64 67 72 75 75 76 76 78 78 78 78 78 78 78 78 78 78 78 78 78 78 78 78 78 78 77 77 76 76 76 76 76
70 69 58 50 43 41 44 53 56 62 62 60 61 64 61 61 66 67 68 74 75 74 75 76 78 78 78 78 78 78 77 77 77 77 77 77 78 78 78 78 78 77 76 76 75 75 75 75 75
67 62 55 45 43 49 50 53 58 61 63 65 61 60 63 67 68 70 73 74 73 72 73 76 77 78 77 77 77 77 77 77 77 77 77 78 78 79 78 77 76 75 75 75 75 75 75 75 75
65 56 45 41 45 50 53 58 59 59 61 60 60 58 59 67 69 72 72 73 71 71 72 77 77 77 77 77 77 77 77 77 77 77 77 78 79 78 77 76 75 75 75 75 75 75 75 74 75
55 57 40 40 45 51 54 58 58 58 60 59 60 59 58 65 68 70 73 72 74 72 73 78 76 76 77 77 76 76 77 77 77 76 76 77 77 77 76 75 75 75 75 75 75 75 74 74 75
53 48 42 42 45 49 54 59 56 58 59 59 63 56 59 62 66 70 70 71 72 73 72 72 73 75 75 75 75 76 76 76 76 76 76 75 74 74 75 75 75 75 75 75 75 74 74 74 74
56 53 44 47 48 49 55 58 61 60 59 65 63 57 58 64 67 69 69 69 70 71 72 71 71 74 76 76 74 74 74 74 74 74 73 72 71 72 74 73 73 75 75 74 74 74 74 74 73
60 48 46 49 50 53 56 55 60 63 59 62 60 61 65 66 68 67 67 67 68 70 69 70 70 70 70 71 73 72 72 72 72 71 69 68 66 68 69 69 71 73 73 74 74 73 73 72 70
52 47 49 57 58 53 56 57 56 57 58 58 59 64 66 67 67 66 66 66 65 66 67 68 69 69 69 74 69 68 70 68 67 67 66 64 64 65 67 66 68 71 72 72 73 73 72 69 61
52 49 54 59 61 57 55 57 58 54 55 58 58 62 63 64 64 65 65 66 66 67 67 68 67 68 68 69 67 66 66 65 65 65 64 63 64 62 63 62 64 64 66 66 68 66 64 62 60
49 56 58 59 56 54 54 59 55 54 57 61 62 63 62 62 63 64 63 64 64 65 66 67 67 67 67 67 67 66 66 65 63 63 64 61 60 60 60 60 62 62 63 63 63 62 62 61 60
49 55 59 56 56 56 58 55 53 53 60 63 63 63 61 61 62 63 65 65 65 65 66 67 67 66 66 66 66 65 66 66 65 63 64 62 60 59 60 61 61 61 62 62 62 61 61 59 59
53 56 56 54 55 57 53 54 54 55 59 61 60 60 61 61 62 61 63 64 64 66 66 68 67 67 67 66 65 65 65 66 65 64 65 64 63 61 61 61 61 61 61 62 62 62 61 60 59
52 49 51 52 54 54 56 47 48 57 60 59 59 56 60 61 62 63 64 64 65 65 68 68 68 68 67 68 66 65 66 66 65 66 65 66 65 63 64 62 61 62 61 61 61 61 61 60 60
46 47 41 50 54 56 52 43 52 57 58 58 57 58 57 60 62 60 64 64 65 65 67 68 73 68 66 67 66 66 66 65 66 66 66 67 67 65 64 63 63 63 61 61 60 61 60 60 59
41 35 39 46 56 54 50 46 55 59 58 58 58 56 58 58 58 59 61 62 64 64 65 66 68 68 68 66 66 66 65 65 66 65 66 67 68 67 66 65 65 63 63 62 62 60 60 59 59
35 36 41 43 51 52 48 49 56 59 58 60 62 55 55 58 60 60 61 57 58 58 60 62 64 65 67 66 66 65 65 64 65 65 66 67 68 67 64 64 64 63 62 60 59 62 58 60 60
42 40 41 45 52 50 49 48 53 55 53 52 52 51 53 56 54 56 56 56 56 55 56 57 60 60 61 62 63 63 63 64 63 64 66 67 66 66 64 64 63 62 61 62 60 59 58 57 55
43 39 39 46 51 51 47 47 53 56 52 52 53 51 52 54 53 55 56 54 55 54 54 55 56 57 58 59 59 60 61 63 63 64 64 65 65 65 65 63 63 62 60 60 60 59 57 57 54
37 38 39 41 46 46 45 42 47 53 49 51 53 53 52 54 54 53 53 54 54 54 54 56 56 56 57 57 57 57 57 58 59 61 62 63 64 64 64 64 63 62 60 60 60 59 58 60 54
34 43 45 44 41 33 46 31 41 45 47 49 50 49 51 52 52 53 53 53 53 53 54 55 56 56 57 56 56 55 54 55 55 56 57 58 59 60 61 62 62 62 61 59 60 59 59 57 57
40 45 44 42 38 35 36 32 39 40 40 48 51 46 49 50 51 52 53 55 54 53 52 53 54 54 54 54 54 53 53 53 53 54 55 55 55 56 56 57 59 60 60 60 60 59 57 58 57
47 41 40 38 36 26 35 34 33 37 42 44 50 46 48 48 49 51 52 53 52 51 50 51 52 52 52 52 51 51 50 51 51 51 50 51 52 52 53 54 54 56 60 59 59 59 58 57 57
42 34 25 26 25 24 34 33 40 45 44 46 47 46 46 47 48 49 49 50 50 50 50 51 51 49 50 49 49 49 49 48 48 48 48 49 49 49 50 51 51 52 54 56 57 57 57 56 57
40 35 25 21 22 25 33 29 38 47 46 48 49 48 47 46 46 48 49 49 49 49 49 49 49 48 48 48 47 47 47 47 47 46 47 46 47 48 49 49 50 51 52 57 57 56 55 55 55
38 30 36 26 24 21 29 34 43 45 46 44 45 47 46 47 47 48 48 48 48 47 47 48 47 47 47 46 45 44 44 44 43 43 44 44 45 50 47 47 47 47 48 49 53 53 53 54 54
39 41 32 24 17 19 25 27 34 39 42 43 43 44 46 47 47 47 47 47 47 47 46 46 46 46 45 44 44 43 41 42 41 41 41 42 43 44 45 45 44 44 44 45 46 45 46 49 48
38 36 35 33 26 22 21 28 38 41 43 43 45 47 47 46 47 46 46 46 46 45 45 45 45 44 43 43 41 40 40 40 40 39 39 40 41 42 42 43 42 42 41 41 41 42 42 43 44
43 40 35 26 23 22 21 27 42 40 44 46 46 49 48 49 47 46 46 45 44 43 43 43 43 43 43 42 41 40 39 39 38 38 39 39 39 41 41 41 41 40 40 39 39 39 39 39 39

GFSSGP_sfc_temp_066.txt.gz
Temp
72 69 65 63 51 46 41 49 50 57 60 61 60 62 61 59 61 56 64 68 72 74 76 77 79 79 79 79 78 78 78 78 78 78 78 78 78 78 79 79 78 78 78 78 77 77 77 77 77
69 70 63 55 44 38 43 49 52 56 63 59 61 60 59 57 63 63 66 71 74 75 75 75 78 78 79 78 78 78 78 78 78 78 78 78 78 78 78 79 78 77 77 77 76 76 76 76 76
70 68 59 50 40 39 44 50 53 58 61 60 58 62 59 58 64 65 67 73 74 73 74 75 78 78 78 78 78 78 77 77 77 77 77 78 78 78 78 78 77 76 76 75 75 75 76 75 75
65 64 57 45 41 48 48 50 55 58 61 61 58 58 62 65 66 68 72 73 72 73 73 76 77 78 77 77 77 77 77 77 77 77 77 78 78 78 78 77 76 75 75 75 75 75 75 75 75
63 59 47 41 44 48 50 56 56 55 58 58 58 55 57 65 67 70 72 75 74 72 73 75 77 77 77 77 77 77 77 77 77 76 78 78 78 78 77 76 75 75 75 75 75 75 75 74 75
55 55 42 39 44 50 52 55 54 55 56 57 58 56 56 63 66 70 72 72 73 71 72 75 75 76 76 77 76 76 77 77 77 76 77 77 78 77 76 75 75 75 75 75 75 75 74 74 75
52 47 43 43 46 50 54 57 53 53 53 56 60 54 56 60 66 68 68 70 71 71 71 73 75 74 74 75 75 76 76 76 76 76 76 76 75 74 75 75 75 75 75 75 74 74 74 74 74
54 51 44 45 47 49 54 57 57 55 54 63 61 55 56 63 67 68 68 68 69 70 71 70 71 72 72 72 73 74 74 74 74 74 73 71 71 72 74 73 73 74 74 74 74 74 74 73 73
58 46 44 45 50 52 56 54 58 61 56 58 61 59 63 65 67 67 68 69 70 71 72 69 69 70 71 71 72 72 72 72 72 70 69 68 66 67 68 68 70 72 73 74 73 73 73 71 69
52 46 47 55 56 53 56 55 54 56 55 56 59 65 64 68 66 67 67 67 68 69 69 69 68 69 68 73 69 68 69 67 66 66 66 65 64 64 67 66 68 71 72 72 73 73 72 68 61
50 48 52 57 57 58 56 55 56 53 53 53 53 60 64 66 65 67 67 68 68 66 67 68 68 68 68 68 67 66 66 65 65 65 64 63 63 62 63 62 63 64 65 65 67 66 63 61 60
45 53 57 58 57 56 54 58 53 52 54 59 59 60 63 62 65 64 65 65 64 65 66 67 67 67 67 67 66 66 65 64 63 63 63 61 60 60 60 60 61 61 62 63 63 62 62 61 60
45 51 57 58 57 55 58 53 54 54 57 59 61 61 61 60 61 61 63 65 64 64 65 66 66 66 66 66 65 65 65 64 64 63 63 61 60 59 59 59 60 60 61 61 61 61 61 60 59
52 54 56 54 55 55 54 51 55 60 57 57 59 59 59 60 61 61 63 64 63 65 65 66 66 66 66 65 65 65 65 65 64 63 63 63 61 60 59 60 60 60 61 61 61 61 61 60 59
52 48 50 51 53 52 55 50 47 59 58 55 55 58 59 60 61 61 62 63 64 64 66 66 67 66 65 65 65 64 65 66 65 65 64 63 63 61 62 60 60 61 61 61 60 60 60 59 60
46 47 41 48 50 52 52 43 51 58 52 53 55 56 58 60 61 62 63 63 64 64 65 66 71 67 65 65 65 65 64 64 64 64 64 64 64 63 61 61 60 61 60 60 59 59 59 59 59
44 35 37 42 52 49 49 43 55 56 52 52 56 55 57 58 61 61 62 61 63 63 64 65 67 66 66 65 64 64 64 63 64 63 64 65 65 65 63 62 63 61 60 59 59 59 59 58 58
34 33 35 37 48 49 47 46 52 54 53 51 57 58 56 57 58 60 61 56 57 58 60 62 64 65 65 65 64 64 63 62 63 63 64 64 65 65 62 62 62 61 60 59 58 59 58 59 59
40 38 37 40 50 47 45 46 51 53 51 52 54 58 55 56 54 54 54 53 54 55 56 57 59 59 61 62 62 62 62 63 63 63 65 65 64 64 62 63 64 63 61 62 60 58 57 56 55
42 37 35 41 48 48 46 45 52 52 52 54 57 60 60 52 53 53 53 51 55 54 54 55 56 57 57 58 59 60 61 62 62 63 63 64 64 65 64 62 61 61 60 60 59 58 57 56 54
37 36 36 38 43 44 45 42 45 50 55 55 57 56 52 52 53 52 50 51 52 53 54 55 55 56 56 56 56 56 56 57 58 59 60 60 61 62 63 63 63 62 60 60 59 58 57 57 54
34 42 43 41 38 31 43 30 39 48 50 51 55 57 52 51 51 52 52 50 50 51 53 55 56 56 56 55 55 54 54 54 53 54 54 55 56 56 57 58 59 60 60 59 59 59 58 56 57
39 44 42 40 35 33 34 32 36 42 47 52 56 56 52 51 51 52 51 52 51 51 50 51 53 53 53 53 54 53 52 51 51 52 52 52 52 53 53 54 54 58 60 61 60 58 57 56 57
45 40 38 35 33 22 34 33 33 36 44 46 50 54 54 51 50 50 50 51 49 49 49 50 50 50 50 51 50 50 50 50 50 50 49 50 50 51 51 52 51 52 54 58 60 60 59 57 57
41 34 23 23 22 21 31 31 40 44 44 47 50 50 48 48 47 48 48 47 47 48 48 50 49 48 48 48 47 48 48 48 47 47 47 47 48 48 48 49 49 50 52 58 56 57 58 58 58
36 34 24 20 21 23 30 27 37 46 48 47 49 49 47 45 45 47 47 47 47 48 47 47 47 46 47 46 45 45 46 46 45 45 45 45 45 46 47 47 47 47 48 51 56 57 57 57 57
37 32 34 25 21 19 27 33 42 45 45 45 45 44 44 44 44 46 46 46 46 46 46 46 46 45 45 44 43 42 42 43 42 42 43 43 43 48 45 45 45 45 45 47 50 51 52 52 51
39 39 31 24 18 18 23 25 32 39 42 45 43 43 43 45 45 45 46 46 46 46 45 45 45 45 43 43 42 41 40 40 40 40 40 41 41 43 43 42 42 42 42 43 44 44 45 47 47
37 33 33 32 26 22 20 27 37 40 43 42 44 44 44 44 45 45 45 45 45 44 43 43 43 43 42 41 40 39 39 39 39 38 38 39 40 40 41 41 40 40 40 40 40 40 41 45 44
39 36 34 26 23 21 20 26 40 41 42 42 43 45 46 47 46 45 44 43 43 42 42 42 42 42 41 40 39 38 38 38 37 37 38 38 38 39 39 39 38 38 38 38 38 38 38 38 37

GFSSGP_sfc_temp_069.txt.gz
Temp
74 73 70 67 59 55 50 55 60 62 64 69 71 71 71 70 70 67 71 75 78 79 82 82 79 79 79 79 78 78 78 78 78 78 78 78 79 79 79 79 78 78 78 78 78 78 78 77 77
73 73 68 61 53 48 51 56 58 62 67 67 70 69 69 66 69 66 71 75 79 79 81 82 78 79 79 78 78 78 78 78 78 78 78 78 78 79 79 78 78 77 77 77 77 77 77 76 76
73 71 64 56 49 49 51 57 59 63 65 67 67 69 68 66 68 70 75 77 79 79 81 81 78 78 78 78 78 78 78 77 77 77 78 78 78 79 79 78 77 76 76 76 76 76 76 76 76
68 67 62 53 47 53 56 58 61 63 68 69 68 66 69 71 72 74 77 78 77 78 81 79 77 78 77 77 77 77 77 77 77 77 77 78 78 78 78 76 75 75 75 75 75 75 75 75 75
67 62 51 48 50 54 58 61 60 62 63 67 67 64 65 70 73 74 76 78 77 76 80 81 77 77 77 77 77 77 77 77 77 77 77 78 78 78 77 75 75 75 75 75 75 75 75 75 75
56 57 48 46 49 55 58 61 61 60 62 66 66 64 65 70 71 73 76 78 78 76 79 80 76 76 76 77 76 76 77 77 77 77 78 78 78 76 76 75 75 75 75 75 75 75 75 75 75
56 49 47 47 51 53 58 62 61 59 60 65 66 63 65 67 70 73 75 76 76 78 78 79 79 77 74 75 75 75 76 76 76 76 77 76 75 75 75 75 75 75 75 75 74 74 74 74 74
56 54 46 49 51 53 58 61 62 61 62 67 67 63 63 68 70 71 72 73 76 77 78 78 78 79 79 79 73 74 74 74 74 73 72 71 71 72 74 73 74 75 74 74 74 74 74 73 73
58 47 44 48 52 54 59 59 61 63 62 64 65 63 66 69 70 69 69 71 73 74 76 77 77 78 78 78 76 73 72 72 72 71 69 70 76 76 75 70 71 73 73 74 73 73 73 71 69
52 47 49 57 58 54 57 58 58 61 60 60 63 67 68 67 68 68 68 68 70 72 72 76 76 76 76 77 77 77 76 77 77 76 75 75 75 75 74 70 68 71 72 72 73 73 72 70 75
53 49 55 59 59 59 57 57 59 59 56 58 58 61 65 66 66 67 68 70 71 72 71 73 75 75 76 76 75 75 75 75 76 75 74 74 73 73 74 73 74 74 69 75 74 74 75 72 73
50 55 59 58 59 58 57 59 57 58 60 62 61 64 63 64 66 67 68 69 70 70 71 73 74 74 75 75 75 75 74 74 74 74 73 73 72 71 71 72 71 71 73 72 73 73 73 72 72
50 54 59 57 57 58 59 54 57 56 61 63 64 64 63 65 65 67 70 70 70 69 72 72 73 74 74 73 74 74 74 73 74 73 73 72 71 71 71 71 71 71 72 72 71 72 72 72 72
52 54 55 56 56 56 55 54 59 56 61 62 62 62 64 63 65 65 66 67 68 71 72 73 72 73 74 73 73 74 74 74 73 72 72 72 72 71 70 70 70 71 71 72 72 72 72 72 72
54 49 50 53 54 53 56 52 52 60 59 59 60 61 62 64 66 66 67 67 68 70 73 72 73 73 73 73 73 74 74 73 73 73 73 72 71 71 71 71 71 72 72 71 71 71 70 70 71
46 47 42 50 53 50 51 45 56 59 58 58 59 60 60 63 65 67 68 68 69 70 71 73 74 73 73 73 73 73 73 74 74 74 73 73 72 71 71 70 71 73 72 71 70 71 70 69 70
45 37 40 43 53 49 48 47 56 58 58 56 58 60 60 62 65 67 67 68 69 70 71 71 72 73 73 72 73 72 72 73 73 73 73 73 73 72 71 71 72 72 71 70 70 70 69 70 70
37 36 39 41 47 49 47 47 52 55 56 58 58 59 60 61 64 66 65 66 67 67 68 70 71 72 72 72 71 70 69 70 72 73 73 73 73 72 70 70 71 71 70 70 69 69 69 69 70
42 41 40 44 49 47 46 48 50 54 54 56 59 58 59 61 64 65 64 63 63 62 64 67 68 67 69 68 68 68 68 69 69 69 72 72 71 71 70 69 70 68 66 69 69 69 67 67 66
43 39 40 46 49 49 46 46 51 53 53 57 61 59 60 61 60 62 62 61 62 61 61 62 64 64 65 66 67 68 68 68 69 68 69 69 70 70 69 68 68 68 66 67 67 66 66 64 63
40 39 39 41 45 48 45 43 47 51 54 56 58 60 60 60 59 60 59 59 59 60 60 61 61 62 62 63 63 63 63 64 65 65 65 64 64 65 65 66 66 66 65 64 66 65 63 63 63
37 44 44 41 40 35 46 33 43 49 49 52 57 60 60 60 57 58 58 57 57 58 58 59 59 60 60 61 62 62 62 62 60 61 61 61 61 60 61 61 62 63 64 63 63 63 62 62 61
41 45 43 42 38 38 39 36 40 46 47 50 54 58 60 62 58 59 58 57 56 55 56 57 57 57 58 59 60 60 59 58 58 59 58 58 58 58 58 58 59 60 62 62 63 63 61 60 61
44 42 40 38 38 31 37 37 37 41 47 51 57 59 60 62 60 58 55 55 54 54 54 55 56 55 56 56 56 57 57 57 57 56 57 56 57 56 55 56 56 57 57 59 60 61 62 60 59
44 36 29 29 28 27 35 33 42 48 49 51 53 56 59 60 56 55 53 52 52 52 53 54 54 53 53 54 54 54 54 54 53 53 53 53 54 54 53 53 54 54 55 58 60 60 60 60 59
41 37 28 22 24 28 34 30 41 49 51 51 51 52 52 52 53 53 54 52 52 52 53 53 52 51 51 51 51 51 52 52 51 51 52 51 51 52 52 52 52 52 53 55 57 58 57 57 56
38 32 38 27 27 26 32 36 43 47 49 51 50 49 49 49 49 51 52 52 52 52 52 53 52 50 50 50 49 48 49 49 48 48 49 49 49 52 50 50 49 49 50 51 53 54 54 53 52
40 41 32 28 21 23 28 30 37 43 46 47 48 48 48 48 48 49 50 51 51 52 51 51 51 50 49 49 48 47 46 46 46 47 46 46 47 47 48 47 47 47 47 48 49 49 50 50 50
38 35 34 34 30 26 24 32 40 43 46 44 45 47 47 47 49 50 49 50 50 50 49 49 49 48 47 47 46 45 44 44 44 44 44 44 45 45 45 45 45 45 45 46 47 47 48 48 48
40 37 36 29 26 24 26 31 45 45 45 44 46 48 48 49 49 49 49 48 48 48 48 48 47 47 47 45 44 43 43 43 43 42 43 44 43 44 44 43 43 43 43 44 44 44 44 44 43

GFSSGP_sfc_temp_072.txt.gz
Temp
80 83 83 77 68 69 64 64 69 68 72 78 79 80 81 84 80 73 82 87 90 89 88 85 79 79 79 79 78 78 78 78 78 78 79 79 79 79 79 78 78 78 79 78 78 78 78 77 77
82 81 80 73 64 59 63 68 67 69 74 77 77 78 79 78 80 75 80 84 89 89 88 88 78 79 79 78 78 78 78 78 78 78 78 79 79 79 78 78 78 77 77 77 77 77 76 76 76
80 80 74 67 64 60 63 66 69 71 74 75 76 79 79 76 77 81 87 86 89 89 90 86 78 78 78 78 78 78 78 78 78 78 78 78 79 79 78 77 76 76 76 76 76 76 76 76 76
79 78 76 63 60 65 65 67 68 72 75 76 77 75 78 79 80 85 86 88 89 89 91 80 77 78 78 77 78 78 78 77 77 77 77 78 78 79 77 76 75 75 75 76 76 75 75 75 75
78 75 63 60 61 65 67 68 69 71 72 74 75 73 73 78 82 84 86 88 87 89 90 85 77 77 77 77 77 77 77 77 77 77 78 78 78 77 76 75 75 75 75 75 75 75 75 75 75
65 72 59 56 60 63 67 69 70 71 72 74 72 74 74 76 76 77 87 87 89 88 86 86 76 76 77 77 77 77 77 77 77 77 78 78 78 76 76 75 75 75 75 75 75 75 75 75 75
62 62 60 60 59 58 63 69 69 70 71 71 75 72 73 71 75 77 85 88 86 89 87 84 84 79 74 75 75 76 76 76 76 77 77 76 75 75 76 75 75 75 75 75 75 75 74 74 74
65 65 59 59 55 56 63 66 67 70 69 75 74 72 70 75 73 74 78 78 84 85 85 85 85 85 84 83 73 74 74 74 74 74 72 72 72 73 73 73 74 75 74 74 74 74 74 73 73
63 55 53 58 58 60 64 64 66 70 71 71 72 69 71 75 72 71 72 76 80 83 84 86 85 86 86 86 79 74 72 72 72 73 69 73 85 82 78 71 72 73 74 74 73 73 73 71 70
59 53 58 67 67 64 64 65 64 68 69 69 71 74 69 70 69 70 73 72 74 77 81 85 85 85 85 85 84 84 83 85 85 84 83 85 84 84 82 73 70 72 72 72 73 73 72 71 84
57 51 65 67 67 66 63 64 65 68 64 67 66 70 67 67 68 69 73 73 75 78 76 84 84 85 84 84 85 85 85 85 85 84 84 84 83 82 82 82 81 81 71 82 78 79 82 80 81
55 60 64 65 67 66 62 66 63 65 68 70 70 73 67 67 67 68 71 76 77 75 75 81 84 83 84 84 84 85 85 84 84 83 83 83 83 81 82 83 82 81 83 81 81 83 82 80 80
57 62 65 66 66 67 64 60 63 64 69 71 72 74 71 68 68 70 72 77 79 78 78 81 83 83 82 83 84 84 84 83 84 83 82 83 82 81 82 82 82 82 82 82 82 81 82 81 81
62 61 63 64 64 64 61 60 61 66 69 70 71 72 73 70 71 70 69 70 72 79 81 83 82 83 84 82 83 84 85 84 83 83 82 81 82 81 80 80 80 81 81 82 82 81 81 81 81
60 55 59 60 62 60 64 56 57 70 68 68 71 72 72 72 74 73 75 74 75 77 80 82 82 83 83 83 82 84 83 83 83 83 83 81 81 80 79 80 80 81 82 81 81 80 80 79 80
54 56 46 59 60 56 59 50 61 69 66 67 71 72 71 72 73 76 76 76 77 78 79 81 80 81 82 83 83 83 84 84 83 83 83 82 82 81 80 79 80 81 81 80 80 79 78 79 79
50 46 48 49 61 54 57 54 61 67 65 65 69 72 71 70 74 76 76 76 77 78 78 76 78 80 81 82 83 83 82 83 84 84 83 83 82 81 80 80 80 81 80 79 79 79 78 78 79
46 49 50 50 54 55 54 55 55 60 63 65 70 72 71 69 72 75 75 77 77 77 78 77 76 79 82 82 81 81 80 81 83 83 83 82 82 81 80 80 80 81 79 78 79 77 79 77 77
55 51 47 52 53 52 52 53 56 61 62 63 68 71 71 70 74 74 75 75 75 75 75 77 77 78 79 78 78 77 77 78 77 79 80 80 80 80 78 78 79 78 76 78 78 77 74 74 76
52 50 49 52 55 54 52 52 57 61 63 65 65 69 71 72 72 73 74 74 74 76 75 74 75 76 76 78 78 78 78 79 79 78 77 77 77 77 76 75 75 76 74 74 74 73 71 72 74
51 50 49 49 52 54 52 49 53 60 63 64 68 71 72 73 72 71 73 72 72 73 72 72 71 72 72 73 73 73 73 73 73 74 73 71 70 69 68 68 68 68 68 67 68 68 66 63 68
44 55 52 49 48 44 54 45 52 56 57 61 65 68 70 69 72 71 69 68 69 69 68 70 69 69 69 70 71 72 73 72 72 71 70 70 69 68 67 67 69 70 70 68 67 68 66 64 63
47 53 52 51 49 47 46 44 53 56 54 59 64 66 69 71 70 68 68 66 66 65 65 67 67 67 68 69 70 71 69 70 69 69 67 67 66 65 65 66 66 67 67 68 67 66 65 63 62
52 50 50 49 48 36 47 45 49 52 56 59 65 67 67 70 71 69 71 67 65 64 63 64 65 64 66 67 67 67 66 67 67 66 66 66 66 65 62 62 63 64 64 64 63 62 64 63 63
52 47 33 31 32 36 44 43 51 58 61 60 62 66 69 71 72 71 66 64 63 61 61 63 65 63 64 64 64 64 63 64 64 63 64 63 64 63 62 60 61 61 61 62 64 63 62 62 61
48 49 39 29 31 38 42 39 52 61 61 60 61 64 64 66 69 67 68 65 62 61 62 63 63 61 62 62 61 62 62 64 63 61 62 62 62 61 59 59 59 59 59 61 62 63 63 60 58
45 40 47 38 38 38 44 47 56 59 61 62 62 61 62 65 66 64 63 64 63 62 62 63 62 60 60 60 60 60 60 59 58 57 59 59 59 58 58 57 57 57 57 58 59 61 61 59 55
48 52 39 39 29 30 39 42 48 54 57 59 60 60 61 62 61 61 60 60 62 63 62 62 62 60 60 59 59 58 57 56 56 57 56 55 56 55 55 55 55 55 55 56 57 57 57 58 56
44 43 43 45 41 37 36 44 56 56 57 56 58 59 59 59 58 59 59 61 61 61 60 61 61 59 58 58 56 56 55 54 54 54 53 53 53 53 53 53 53 53 53 54 55 54 55 54 53
46 47 48 39 35 38 38 44 57 58 58 56 58 59 59 58 58 59 61 59 58 58 60 59 59 59 58 57 56 54 53 52 52 52 51 52 51 51 51 51 51 51 51 52 52 51 51 51 50

GFSSGP_sfc_temp_075.txt.gz
Temp
79 88 86 79 65 68 64 70 78 72 76 83 84 83 81 85 82 71 89 94 92 91 88 84 79 79 79 79 78 78 78 78 78 79 79 79 79 79 78 78 79 79 79 79 79 78 77 77 77
84 86 82 76 62 59 63 75 69 76 80 81 82 81 81 79 85 81 85 93 93 92 87 87 78 79 79 78 78 78 78 78 78 78 79 79 79 79 78 78 78 78 78 78 77 77 76 76 76
81 85 75 68 64 61 64 72 75 76 77 78 80 82 84 78 83 86 91 93 93 90 90 83 78 78 78 78 78 78 78 78 78 78 78 78 79 78 77 77 76 76 76 76 76 76 76 76 76
80 78 77 64 61 69 73 74 74 75 76 80 82 78 81 85 86 91 90 93 92 91 92 79 77 78 78 78 78 78 78 78 78 77 78 78 78 77 76 76 75 75 75 76 76 75 75 75 75
77 76 64 61 64 72 74 73 72 74 78 75 78 76 76 81 86 89 90 92 92 92 88 84 77 77 77 77 77 77 77 77 77 77 78 78 78 76 76 75 75 75 75 75 75 75 75 75 75
64 73 58 58 64 71 73 74 74 74 76 79 74 77 73 78 82 88 91 92 93 91 85 84 76 76 77 77 77 77 77 77 77 77 78 78 77 76 75 75 75 75 75 75 75 75 75 75 75
62 63 59 64 64 63 68 73 73 73 75 74 81 73 73 74 76 87 91 93 93 88 85 84 83 79 75 75 75 76 76 76 77 77 77 76 75 75 75 75 75 75 75 75 75 75 74 74 74
67 62 60 63 62 60 68 70 71 73 73 78 78 74 69 73 74 79 87 90 91 86 86 84 83 84 83 81 74 74 74 74 75 75 73 72 72 72 74 74 74 75 74 74 74 74 74 73 73
66 50 54 58 59 63 68 68 71 74 75 74 76 74 73 74 73 73 75 79 87 81 81 83 83 86 84 85 78 74 73 72 72 72 71 72 84 81 76 71 72 73 74 74 74 73 73 72 71
53 49 60 70 71 66 68 69 69 70 71 71 74 76 74 72 70 69 70 72 76 77 78 81 82 83 83 86 82 84 82 82 84 84 82 86 86 84 80 74 71 73 73 73 73 73 72 71 82
55 49 64 67 66 72 67 66 69 69 67 70 68 73 68 69 69 69 73 78 77 78 81 80 80 83 82 85 84 87 85 86 87 87 86 87 85 83 82 81 78 78 69 79 75 75 78 82 81
52 58 58 58 69 69 66 70 66 67 69 73 74 76 68 66 68 70 74 77 78 79 80 82 81 80 81 83 85 88 87 86 86 85 86 85 84 83 84 83 83 81 83 82 82 83 83 82 82
55 61 62 59 65 70 70 66 63 65 72 74 76 76 71 68 70 70 70 75 78 77 76 83 83 83 80 80 84 87 87 85 86 85 85 85 83 83 83 83 83 83 83 83 82 82 82 82 83
65 63 60 62 59 68 66 66 64 66 74 73 73 75 74 73 73 70 70 71 74 79 79 82 81 83 82 82 81 83 87 87 86 85 84 83 84 82 81 81 81 82 82 83 82 82 81 81 82
64 59 61 58 54 59 68 59 59 71 71 71 73 75 75 74 72 76 77 74 77 80 81 81 82 83 79 82 81 86 87 87 85 85 85 83 83 82 81 81 81 82 83 82 82 82 81 80 81
56 59 47 60 61 61 63 53 64 71 70 68 71 75 75 74 75 78 79 80 81 81 82 83 84 83 84 83 81 83 87 86 85 86 85 84 84 82 81 80 81 82 82 81 80 80 79 79 79
51 46 49 55 63 59 59 56 65 69 67 66 69 72 75 75 75 78 79 80 81 81 82 81 82 82 83 83 83 85 85 85 86 86 85 85 84 83 81 81 81 82 81 80 80 79 79 78 77
45 48 52 53 57 59 56 56 60 66 64 65 68 71 74 74 75 78 79 79 80 82 82 81 80 81 83 83 83 82 82 83 85 85 85 85 84 83 81 81 81 81 80 79 79 78 78 76 76
57 53 52 57 61 55 55 55 58 62 64 64 66 69 72 75 78 78 78 79 79 79 79 80 79 79 80 80 78 78 78 80 81 82 83 83 82 82 80 79 80 79 77 78 78 76 74 73 74
55 53 51 55 58 55 56 57 61 65 64 66 67 70 71 75 77 76 77 78 78 79 79 79 79 80 79 80 78 78 79 81 82 81 80 80 79 79 77 76 75 75 73 74 74 72 69 69 71
53 54 50 50 54 56 57 54 58 62 65 67 70 72 74 74 74 76 74 75 75 76 76 76 77 77 77 78 77 74 74 73 74 75 74 73 73 71 70 68 67 67 66 66 66 66 65 63 67
46 59 57 54 49 43 56 45 57 59 59 63 67 69 72 74 77 78 75 74 73 74 73 74 74 73 73 73 73 72 73 72 73 73 72 71 71 70 69 69 69 69 69 68 68 68 66 65 64
51 58 55 52 49 52 50 46 55 61 56 59 66 69 70 73 74 74 74 73 72 71 68 71 72 72 71 72 73 72 71 71 70 70 69 70 68 67 66 67 67 67 67 68 67 67 66 65 62
57 54 52 52 50 38 47 48 51 56 58 62 67 70 71 72 73 74 74 72 69 66 66 67 69 69 70 71 71 71 70 69 67 67 67 68 67 66 64 64 65 65 65 65 65 65 63 63 62
54 48 35 33 33 36 50 48 53 61 63 64 64 68 72 74 73 74 72 71 68 64 63 65 67 66 68 68 69 69 68 68 67 66 66 65 66 65 64 62 62 62 62 62 63 63 64 63 62
49 50 40 30 33 39 47 40 52 64 67 66 66 67 69 69 73 74 74 70 68 64 63 64 65 65 66 67 66 66 66 65 65 64 64 64 63 62 62 61 60 61 61 61 62 62 63 61 59
47 41 50 42 45 41 45 51 59 63 63 65 66 65 66 68 70 70 71 71 70 66 65 65 65 65 65 64 64 64 63 62 61 61 61 60 60 60 59 59 58 58 58 58 59 60 61 59 58
51 55 41 41 31 32 41 45 49 56 58 62 62 63 65 66 68 68 68 68 69 66 66 66 66 63 63 63 63 62 60 60 59 59 58 57 58 57 57 57 57 57 57 57 57 57 58 58 56
46 45 47 47 43 36 38 45 61 57 59 59 61 63 64 65 65 65 65 66 67 67 65 64 64 63 61 61 60 59 58 57 57 57 56 55 55 55 55 55 55 55 54 55 56 56 56 55 54
49 48 50 39 37 42 39 44 61 63 61 61 61 63 65 64 64 64 64 64 63 63 63 63 62 61 61 60 59 58 56 56 55 55 54 54 54 54 53 53 53 53 52 53 54 52 53 52 51

GFSSGP_sfc_temp_078.txt.gz
Temp
76 80 77 71 56 56 53 61 70 68 73 76 77 74 71 72 71 60 82 85 83 80 80 79 79 79 79 78 78 78 78 78 78 79 79 79 79 78 78 79 79 79 78 78 78 78 77 77 76
75 79 73 64 52 49 54 68 66 71 73 74 79 75 71 69 77 77 78 86 85 82 80 79 78 78 78 78 78 78 78 78 78 78 79 79 78 78 78 78 78 77 78 78 77 76 76 76 76
74 78 63 58 53 50 56 68 69 73 73 74 73 77 70 69 79 78 84 87 85 81 82 79 78 78 78 78 78 77 78 77 78 78 78 78 78 77 77 77 77 76 76 77 76 76 76 76 76
72 70 67 55 54 60 64 68 71 72 72 76 75 70 73 78 79 82 87 87 83 82 79 76 77 78 77 77 77 77 77 78 77 77 78 78 77 77 76 75 75 75 75 75 76 75 75 75 75
68 64 54 53 56 64 69 70 66 70 71 71 74 66 66 74 82 83 85 87 83 79 77 77 77 77 77 77 77 77 77 77 77 77 78 78 77 76 76 75 75 75 75 75 75 75 75 75 75
57 63 51 50 56 66 67 69 68 69 71 70 70 64 66 76 77 81 85 85 84 79 79 77 75 76 76 76 76 76 77 77 77 77 78 77 76 76 75 75 75 75 75 75 75 75 75 75 74
54 54 51 55 57 62 64 67 64 69 69 70 72 66 65 69 73 80 85 85 82 81 78 76 75 75 74 75 75 75 76 76 76 76 77 75 75 75 75 75 75 75 75 75 74 74 74 74 74
58 54 52 56 58 58 65 66 68 67 64 73 73 64 61 69 73 76 80 83 81 80 79 77 76 76 75 72 73 73 74 74 75 74 73 72 72 72 73 73 74 74 74 74 74 74 74 73 73
62 49 47 53 56 59 65 64 67 72 69 70 71 64 69 72 71 72 74 77 79 78 79 78 78 77 78 74 72 72 72 72 72 71 70 70 72 72 71 70 71 73 73 73 73 73 73 72 71
51 47 52 62 61 61 64 65 66 66 66 67 68 70 71 69 69 67 70 71 72 74 75 78 79 79 80 80 71 71 73 71 72 73 69 72 73 72 73 68 70 72 72 72 73 73 72 70 68
53 48 58 60 62 65 65 62 66 65 61 64 64 66 68 68 67 68 69 71 73 73 74 75 77 80 79 78 74 76 72 72 74 74 74 73 74 71 70 66 67 66 67 68 69 68 68 67 69
48 54 56 58 58 61 62 65 62 64 62 69 70 69 66 67 67 68 69 72 72 73 74 75 77 77 78 78 74 79 76 74 73 74 76 73 71 70 70 69 68 68 67 68 67 68 69 71 72
48 55 58 60 59 57 62 63 61 63 68 70 74 70 66 66 67 68 69 73 72 72 73 74 76 76 75 77 74 79 75 75 75 74 76 74 71 70 71 70 70 69 69 69 69 70 70 70 71
57 59 57 58 59 57 52 62 62 63 69 69 71 69 67 67 68 65 65 67 71 73 73 72 76 77 76 76 74 77 78 76 75 74 74 75 72 71 70 70 70 69 69 70 70 70 70 70 70
62 52 52 53 57 54 55 50 55 63 67 66 67 68 69 67 65 67 69 67 72 73 75 72 73 75 77 76 77 78 75 79 75 74 75 75 74 72 71 69 69 70 70 72 70 71 70 69 71
54 53 42 50 56 57 54 46 59 64 62 63 64 66 66 68 70 70 72 70 71 72 72 74 78 76 75 76 76 77 78 76 75 75 75 76 75 73 71 70 70 71 71 70 69 69 68 68 68
46 39 45 48 54 51 49 46 62 65 62 61 62 63 66 67 68 70 71 70 73 74 72 72 76 75 77 75 76 77 78 77 78 75 75 76 76 75 72 71 71 72 70 69 70 69 68 67 71
39 42 46 47 49 51 47 49 56 63 62 61 61 63 65 65 68 71 72 68 71 72 72 72 72 74 75 76 74 75 75 76 76 77 78 79 77 77 74 71 71 71 69 68 68 68 71 71 70
50 47 46 51 58 53 51 51 55 57 57 57 59 62 64 65 69 70 71 70 70 71 70 72 71 71 72 72 72 71 72 72 71 73 76 76 77 77 75 74 74 73 72 71 69 67 65 64 65
43 46 47 52 53 51 51 51 56 57 57 59 59 61 63 66 69 67 69 69 69 70 70 69 71 70 68 70 68 68 69 69 71 72 73 72 72 71 70 68 68 68 67 67 68 66 65 66 67
41 44 46 42 51 51 49 46 51 58 59 63 63 64 66 66 68 67 67 68 68 68 68 69 69 70 71 69 68 66 65 65 65 67 67 67 67 66 65 66 66 65 65 64 64 64 63 62 63
40 52 53 50 44 38 49 32 48 54 54 59 59 63 62 65 71 71 68 67 67 67 67 68 68 68 67 66 66 64 63 62 63 63 63 63 64 63 63 63 62 61 62 61 62 65 62 61 59
46 55 51 49 45 44 43 34 43 54 50 54 56 59 61 63 65 70 67 67 66 64 64 65 65 65 64 64 64 63 63 61 61 61 61 61 60 60 60 60 60 59 59 59 59 59 58 58 57
53 48 47 47 43 27 42 39 39 45 50 54 58 63 63 63 64 65 64 64 62 60 60 62 62 62 63 63 63 63 61 59 58 58 59 59 59 58 58 59 58 58 58 57 57 57 57 56 58
49 41 28 25 24 26 43 39 42 52 55 54 56 55 60 64 63 63 63 59 59 58 58 60 61 61 62 61 62 62 61 60 59 58 57 57 57 56 55 56 55 55 56 56 56 56 56 56 57
44 42 30 24 23 29 42 30 42 53 57 58 60 57 61 59 61 61 62 60 59 57 57 59 60 60 61 61 60 60 59 57 56 56 55 54 53 53 54 54 54 54 55 55 55 54 55 57 56
42 37 44 35 37 29 36 41 48 55 54 54 55 57 53 57 59 59 59 58 58 57 58 59 59 59 60 59 58 57 57 57 54 53 54 52 52 55 52 52 52 52 52 53 53 52 53 53 55
45 50 35 31 23 25 33 37 39 46 50 54 53 52 55 57 59 59 59 59 59 57 57 59 58 58 58 58 56 56 54 53 52 52 50 51 51 51 51 50 50 50 50 51 51 50 51 52 52
42 39 42 40 33 25 26 34 49 49 52 51 52 54 53 54 55 56 56 57 57 57 56 57 57 56 56 55 55 53 53 52 52 50 49 49 49 49 49 49 49 49 48 48 48 48 49 49 52
46 42 43 29 31 32 29 34 52 52 54 54 53 55 54 56 56 55 55 55 55 54 54 54 54 54 56 55 55 51 50 50 49 49 48 49 47 48 47 47 47 47 47 46 46 47 47 46 45

GFSSGP_sfc_temp_081.txt.gz
Temp
73 73 70 66 54 51 44 56 62 64 66 72 74 72 68 67 64 58 75 76 76 75 78 79 79 79 78 78 78 77 78 78 78 79 80 78 78 79 79 79 79 79 79 79 78 78 77 77 76
69 71 66 59 48 40 45 60 62 68 67 73 75 72 66 67 74 71 70 76 77 77 77 78 78 78 78 78 78 77 78 78 78 78 78 78 78 78 79 78 78 78 78 77 77 76 76 76 76
70 70 57 51 46 43 47 63 66 71 72 72 68 72 68 66 77 72 77 78 77 76 77 77 77 78 78 78 77 77 78 78 78 78 78 77 78 78 78 77 77 77 76 76 76 76 76 76 76
66 58 55 47 45 54 57 62 69 71 72 73 70 67 68 72 70 78 80 78 76 76 75 76 77 77 77 77 77 77 77 78 77 77 77 77 77 77 76 76 76 76 75 75 75 75 75 75 75
61 54 45 43 48 56 62 68 68 66 69 69 70 62 64 70 72 78 79 79 74 73 75 76 77 77 77 77 77 77 77 77 77 77 78 77 77 76 75 75 75 75 75 75 75 75 75 75 75
53 53 42 41 47 59 63 65 68 65 69 69 64 63 63 69 70 73 80 76 76 74 75 76 75 76 76 76 76 76 77 77 77 77 77 76 76 76 75 75 75 75 75 75 75 75 75 74 74
50 46 43 46 49 55 61 62 59 61 65 65 69 58 64 66 69 73 74 76 75 75 74 73 74 74 74 74 75 75 76 76 76 76 76 75 75 75 75 75 75 75 75 75 74 74 74 74 74
54 49 45 46 50 53 61 63 62 64 60 71 70 58 59 69 72 72 74 74 74 74 73 71 71 72 71 71 73 73 74 74 74 74 73 71 71 72 73 73 73 74 74 74 74 74 74 73 73
59 47 43 47 50 56 61 61 65 69 66 65 65 64 69 71 72 69 69 70 72 73 72 72 70 70 69 69 71 72 72 72 72 71 70 69 68 70 70 69 71 72 73 73 73 73 73 72 71
52 46 47 55 55 56 60 61 63 64 63 60 63 67 68 69 70 68 66 67 69 70 71 72 72 71 71 76 67 68 71 69 69 70 68 68 68 68 71 68 70 72 72 72 73 73 72 70 65
52 47 54 56 58 60 60 60 64 61 57 59 59 64 65 64 68 68 68 67 69 71 72 72 73 74 74 71 67 65 67 67 68 68 68 68 70 68 66 65 66 65 67 66 68 67 66 65 64
48 54 55 56 56 57 60 63 59 61 60 67 65 67 65 65 65 69 66 67 68 71 70 74 76 76 76 73 71 69 69 67 67 69 69 68 66 65 64 63 64 64 65 64 64 63 64 65 66
49 52 54 57 55 57 59 55 60 59 65 68 67 67 63 63 66 66 68 70 70 68 71 72 75 75 75 75 72 74 71 71 70 71 71 70 67 66 66 65 64 64 64 63 63 64 65 65 67
53 54 54 56 57 53 54 54 57 59 64 66 65 63 64 65 65 65 65 66 69 71 70 71 73 76 75 76 71 75 76 74 71 71 71 71 69 67 67 66 66 65 65 66 66 66 67 67 66
55 49 51 52 54 51 55 51 51 59 62 63 62 62 64 65 67 64 64 65 69 70 71 70 70 73 73 74 75 75 76 76 72 71 73 72 70 69 68 67 66 66 66 68 67 67 67 66 68
50 49 41 51 52 53 51 45 53 60 59 58 60 60 62 64 66 64 68 68 69 69 70 72 75 72 72 72 74 74 76 76 74 71 71 73 72 71 68 67 66 68 67 67 66 66 65 65 65
45 35 39 42 52 49 49 45 55 56 57 57 58 59 60 61 65 66 65 67 68 71 69 69 71 70 72 71 73 75 76 75 72 72 76 74 73 72 69 68 68 69 67 67 67 66 65 64 66
38 38 42 42 46 49 45 45 53 55 56 55 56 58 57 60 64 67 70 66 68 69 69 70 70 73 73 70 69 71 73 74 75 75 76 76 76 75 73 70 69 69 67 66 65 65 67 69 69
44 44 42 48 50 47 45 46 51 55 55 53 53 55 59 60 64 65 68 69 66 65 68 70 70 69 69 69 67 66 70 72 71 69 74 75 75 75 73 72 72 71 70 70 69 68 67 65 64
42 42 43 49 50 50 47 47 52 54 54 54 55 54 57 60 58 63 65 66 68 67 65 66 69 67 68 67 68 67 68 68 68 68 68 68 68 67 67 66 67 67 67 67 66 66 65 65 66
40 40 41 44 47 47 47 43 48 53 55 56 57 56 57 61 63 61 61 64 66 66 65 67 66 68 68 68 66 64 64 63 64 65 64 65 65 64 63 64 65 65 65 64 64 64 63 61 63
36 46 47 46 41 35 46 32 45 52 52 54 53 53 55 57 63 63 62 61 63 65 66 67 67 64 65 66 64 63 62 61 62 63 62 62 62 61 61 61 61 60 59 58 58 60 59 58 57
41 47 47 47 43 39 39 37 41 47 48 51 52 53 56 57 59 62 64 65 64 63 63 65 64 64 62 63 63 61 60 60 59 59 59 59 59 59 59 59 58 57 57 57 57 57 57 56 55
49 45 43 43 41 29 40 38 36 40 50 48 51 53 57 58 59 61 62 65 59 58 60 60 62 62 63 61 61 61 60 59 58 57 56 56 56 55 56 57 55 55 55 55 54 54 55 55 55
45 38 29 28 28 28 40 36 39 46 52 53 53 52 53 57 58 59 57 56 56 57 57 59 60 59 60 60 59 59 59 59 58 57 56 55 55 53 53 53 53 53 54 54 54 53 53 54 54
42 39 27 23 23 27 39 31 41 49 51 54 55 56 55 55 56 57 56 56 56 57 57 58 58 57 59 58 58 57 58 56 56 56 55 54 53 52 53 52 52 52 52 52 52 51 52 53 53
41 35 41 33 33 27 32 38 47 49 50 49 51 54 53 53 55 54 55 55 54 54 56 57 57 58 59 58 57 56 56 55 54 53 53 51 51 53 51 51 50 50 50 50 50 49 50 51 51
44 46 32 27 24 25 28 30 35 41 44 47 47 48 50 52 53 54 54 53 53 53 53 55 56 56 56 56 56 55 54 54 53 52 52 50 50 50 49 48 48 48 48 48 47 47 49 49 49
39 37 38 37 29 24 23 30 43 44 46 46 47 50 51 50 52 52 53 54 54 52 52 53 53 53 53 53 53 53 52 52 51 50 50 49 49 47 47 47 46 46 46 46 45 46 47 47 48
41 40 40 27 30 27 25 31 48 48 49 50 50 51 51 51 52 53 52 52 50 51 51 51 50 51 51 52 53 52 51 51 50 49 49 48 47 47 46 46 45 45 44 44 43 44 45 44 44

GFSSGP_sfc_temp_084.txt.gz
Temp
72 71 67 64 53 50 42 53 62 60 62 71 73 67 67 63 63 56 70 73 75 75 77 78 78 78 78 78 78 77 78 78 78 78 79 79 79 79 79 79 80 80 79 78 78 78 77 77 77
69 71 63 57 47 41 48 57 60 63 67 72 73 70 67 64 68 67 69 74 76 76 77 77 78 78 78 78 78 77 78 78 78 78 78 78 79 79 79 79 79 79 78 77 77 76 76 76 76
70 68 54 50 45 44 49 60 63 69 70 69 67 70 67 64 69 68 72 75 76 75 76 76 77 77 78 77 77 77 77 78 77 77 77 78 78 78 79 78 78 77 76 76 76 76 76 76 76
63 56 54 45 44 52 55 62 67 68 70 70 70 64 68 71 68 71 75 75 72 72 74 76 76 77 77 77 77 77 77 78 77 77 77 77 78 78 77 77 75 75 75 76 75 75 75 75 75
59 53 47 41 44 53 60 64 64 64 70 68 70 60 63 70 75 74 74 74 71 72 74 75 76 77 77 76 77 77 77 77 77 77 77 77 77 77 76 75 75 75 75 75 75 75 75 75 75
51 52 44 39 44 55 60 66 60 66 66 66 64 63 64 69 70 72 75 73 73 73 74 76 75 76 76 76 76 76 77 77 77 77 77 76 76 75 75 75 75 75 75 75 75 75 75 75 75
50 47 41 43 45 52 59 62 63 64 65 64 69 60 63 65 68 70 71 72 73 73 72 72 73 74 74 74 75 75 76 76 76 76 76 75 74 74 75 75 75 75 75 75 75 75 74 74 74
52 51 43 44 46 50 60 62 62 63 61 69 67 56 59 68 69 71 70 71 73 74 73 70 70 71 70 70 73 73 74 74 74 74 73 71 71 72 73 73 73 74 74 74 74 74 74 73 73
56 46 43 45 48 53 58 59 64 66 64 64 63 65 70 71 69 69 68 69 70 72 71 70 68 68 68 69 71 72 72 72 71 71 69 69 68 68 69 69 71 72 73 73 73 73 73 72 70
50 45 47 54 52 53 56 58 62 61 58 59 61 66 69 67 68 68 66 67 68 69 69 70 70 68 67 73 68 68 70 69 69 69 68 67 66 66 69 67 69 71 71 72 73 73 72 69 64
52 46 54 56 56 57 55 57 62 59 55 59 60 64 65 66 66 67 67 68 68 69 69 70 70 69 68 68 66 66 67 67 67 68 67 66 67 65 65 64 65 65 66 65 67 66 65 64 63
46 53 56 55 54 56 52 55 56 59 58 64 65 67 65 65 64 65 66 67 66 66 69 70 71 70 68 68 66 65 66 65 65 67 67 65 64 64 63 63 63 63 64 63 63 63 63 64 64
48 52 55 54 55 55 57 52 53 58 63 64 65 66 64 63 64 65 67 67 65 62 65 71 72 72 71 69 68 66 65 66 66 66 67 66 64 64 63 63 63 62 63 62 62 62 63 63 63
53 51 54 53 54 54 51 53 54 57 62 61 63 62 63 64 65 64 65 65 64 63 66 69 71 74 73 71 69 70 69 68 67 67 68 67 66 64 63 63 62 62 62 62 62 62 63 63 64
52 46 49 50 52 51 53 50 52 55 60 59 59 59 63 63 64 65 66 67 68 68 70 70 70 70 72 72 72 74 74 74 70 69 69 69 68 67 65 64 63 63 63 64 64 64 64 64 65
47 47 40 47 51 51 51 44 52 54 53 56 55 54 58 62 64 63 65 66 67 69 70 70 73 70 69 71 71 74 74 74 74 72 70 71 70 69 66 65 65 65 64 64 64 64 64 63 63
41 35 40 43 52 49 47 42 54 54 53 54 55 55 58 60 63 64 66 67 68 68 69 69 71 70 69 69 71 71 75 74 75 74 70 71 71 70 68 67 66 67 65 64 65 65 64 63 65
35 36 40 41 46 48 45 45 50 53 52 52 53 54 56 59 62 64 65 65 67 66 67 69 70 71 70 70 68 69 71 72 73 72 73 75 73 72 69 68 68 67 65 64 64 64 64 67 67
41 39 39 44 49 46 44 46 49 53 53 50 50 53 55 58 62 64 65 65 64 64 65 66 69 70 70 66 65 66 67 69 69 70 73 74 73 73 69 71 70 70 69 69 68 68 67 64 65
43 42 40 46 49 46 45 44 49 51 54 51 52 52 55 56 57 62 64 63 64 64 64 64 68 68 69 68 66 66 65 65 66 66 67 67 70 69 68 66 65 66 66 67 66 66 65 65 66
40 39 41 40 45 48 45 42 46 51 53 53 54 55 55 57 57 60 60 62 62 62 63 64 65 67 67 67 66 64 64 64 63 63 63 63 64 64 64 63 63 63 63 62 61 62 62 60 60
38 46 46 44 40 35 45 31 42 48 50 50 50 50 53 55 58 60 59 60 62 64 63 65 65 66 66 66 65 63 63 63 63 63 61 60 62 61 61 61 60 62 60 58 57 58 58 57 56
41 47 45 45 39 39 37 32 41 46 45 47 50 51 52 54 56 58 61 61 62 63 63 63 64 64 63 63 64 63 61 61 60 60 58 58 58 59 59 59 58 57 57 56 56 56 55 55 55
47 42 41 41 38 30 37 33 35 40 48 47 51 51 53 54 55 57 59 62 59 58 58 60 61 61 61 61 62 62 61 58 57 57 57 57 57 56 55 56 55 54 54 53 53 53 53 53 53
43 36 27 28 27 27 37 34 37 46 49 52 51 51 51 53 54 56 56 55 56 55 56 57 59 58 59 59 59 60 59 58 59 57 56 55 54 53 53 53 52 51 52 53 52 51 51 51 52
39 37 28 23 25 28 38 32 40 47 50 51 51 51 53 50 52 54 56 53 54 55 55 56 56 56 58 58 58 58 58 57 57 57 55 54 53 53 53 52 52 51 51 50 50 49 49 50 50
39 33 40 32 31 25 33 38 45 48 48 50 50 50 49 50 51 52 51 53 52 53 56 57 56 55 56 56 55 56 56 56 55 55 54 53 52 53 52 51 50 49 49 49 48 47 48 49 49
41 45 31 27 23 24 27 29 35 39 41 45 47 47 47 49 50 52 52 52 51 51 51 53 54 55 54 54 54 54 54 55 54 53 51 51 50 51 50 50 50 49 48 46 46 46 47 47 47
38 36 37 35 28 24 24 30 41 44 43 45 45 47 48 49 49 50 50 50 51 50 50 51 51 52 51 52 52 53 53 52 52 51 51 50 49 49 49 49 47 46 46 44 44 44 45 45 46
39 36 36 26 26 24 24 31 44 45 45 47 47 48 47 49 51 49 50 50 49 49 49 49 49 50 49 50 50 49 50 49 47 48 49 49 48 47 47 46 45 44 43 43 42 43 43 43 43

GFSSGP_sfc_temp_087.txt.gz
Temp
72 70 65 60 48 47 42 52 59 58 59 64 68 67 61 62 62 54 69 73 74 74 76 77 78 78 78 78 77 77 77 78 78 79 79 79 79 79 79 79 79 79 78 78 78 78 78 77 77
69 71 62 53 42 41 47 53 59 61 63 68 71 69 63 60 65 67 69 74 75 75 76 76 77 77 78 78 77 77 78 77 78 78 79 79 80 79 80 79 79 78 77 77 77 77 76 76 76
70 68 54 48 41 44 49 57 63 65 66 66 67 70 66 64 69 68 71 75 75 74 75 76 77 77 78 77 77 77 77 77 77 77 78 78 79 79 79 79 77 76 76 76 76 76 76 76 76
63 58 55 46 40 48 52 61 64 65 65 66 67 64 66 70 68 69 76 75 72 71 72 75 76 77 77 77 77 77 77 77 77 77 77 78 78 79 78 77 75 75 75 76 76 75 75 75 76
59 53 47 44 43 48 57 63 66 63 64 64 68 63 62 69 71 74 73 73 72 72 73 74 76 77 76 77 77 77 77 77 77 77 77 78 78 78 76 75 74 75 75 75 75 75 75 75 75
51 52 43 40 45 50 57 63 64 63 67 68 63 62 62 68 69 71 72 71 74 74 72 74 75 76 76 76 76 76 77 77 76 76 76 77 76 77 76 75 74 75 75 75 75 75 75 75 75
49 46 44 44 46 48 57 61 61 63 64 64 69 59 62 64 67 72 71 71 71 71 72 72 72 73 74 74 75 75 76 76 76 76 75 75 74 75 75 74 74 75 75 75 74 74 74 74 74
49 49 43 45 45 47 59 61 62 64 60 67 67 57 58 64 67 68 70 71 70 70 71 71 70 71 70 70 73 73 74 74 74 74 73 71 71 72 73 72 73 74 74 74 74 74 74 73 73
54 44 41 44 47 50 58 59 62 66 62 62 65 63 68 67 67 67 68 69 70 71 72 69 68 68 68 69 70 72 72 72 72 70 69 68 66 68 68 68 71 72 73 73 73 73 73 71 70
48 42 43 51 51 53 56 58 61 60 58 57 61 66 68 67 67 66 66 66 67 68 69 69 67 67 67 72 68 68 70 69 71 68 67 66 65 65 68 66 69 71 71 71 73 73 72 69 63
47 43 50 54 54 56 56 53 58 57 55 58 59 61 63 65 67 66 66 67 66 68 69 68 67 66 66 67 66 66 67 67 67 67 66 65 66 64 64 63 64 64 66 64 66 65 64 63 62
43 51 51 55 54 54 51 53 53 57 57 63 65 64 64 63 65 67 67 67 66 64 63 66 67 67 66 66 65 66 66 66 66 67 66 64 63 63 63 62 63 62 63 62 62 62 62 62 63
44 50 51 54 54 53 55 51 51 55 60 63 65 66 64 64 63 65 65 67 66 64 64 65 65 67 69 66 65 65 65 65 66 66 66 65 63 63 63 62 62 61 61 62 61 62 62 62 62
46 52 49 55 53 52 51 50 52 55 59 60 64 62 64 63 64 63 65 64 66 64 64 64 65 68 68 69 66 67 64 65 65 65 66 66 64 63 63 62 62 61 61 62 61 61 62 62 62
51 47 47 51 50 51 52 49 47 51 58 57 59 61 61 61 64 64 66 63 65 66 65 66 66 68 67 68 69 69 69 69 67 68 67 67 66 64 64 62 61 61 61 61 60 61 62 61 63
44 44 36 48 49 50 50 45 50 52 52 55 56 56 59 61 64 66 65 64 65 67 65 66 69 70 69 68 66 69 71 71 70 68 68 68 68 66 64 63 63 64 63 62 61 62 61 61 62
40 34 36 41 50 48 47 44 52 53 51 52 50 53 57 58 60 62 66 67 66 65 66 66 69 69 70 69 68 68 68 71 72 70 71 69 69 69 67 65 65 65 63 63 63 63 62 62 63
32 35 37 36 44 45 42 44 48 53 50 49 52 52 54 58 61 62 63 66 67 68 69 69 70 70 70 70 70 67 67 67 73 72 73 71 71 70 68 67 66 66 64 63 63 63 64 65 65
43 38 37 42 47 44 42 42 46 51 50 47 50 52 54 57 60 63 63 63 63 64 67 68 68 70 68 67 66 66 66 66 65 66 71 72 72 70 69 67 67 66 66 65 67 67 66 65 64
41 39 38 44 47 45 43 42 46 49 50 49 49 52 53 55 57 61 62 61 61 62 64 66 68 67 68 68 67 68 68 67 66 66 66 68 69 70 69 67 66 65 65 67 66 65 65 64 63
39 38 39 40 44 46 43 40 43 47 50 50 52 52 55 55 57 58 60 61 60 60 62 64 66 67 69 68 65 64 64 64 63 64 64 64 65 65 65 64 64 63 63 63 62 60 60 58 58
35 43 44 41 39 34 44 32 41 47 48 52 51 49 52 54 55 58 60 60 61 62 62 63 65 66 67 66 65 64 63 62 63 62 61 61 62 61 62 62 61 60 59 58 57 57 57 57 56
39 45 43 43 40 38 37 32 40 46 45 50 47 49 50 54 55 56 58 61 63 62 60 61 62 64 64 65 66 65 62 62 60 59 58 58 59 59 60 59 58 58 57 56 55 54 54 54 54
45 42 42 41 38 29 36 35 36 39 45 50 49 49 51 52 54 55 56 59 59 59 59 60 60 61 61 62 63 63 62 59 57 56 57 56 56 57 57 57 56 55 55 54 53 53 52 52 52
42 36 28 27 27 28 36 35 37 43 47 50 50 50 50 50 51 54 55 55 56 56 58 58 59 59 59 59 60 61 60 59 59 59 57 55 55 54 54 54 53 52 53 52 52 51 50 50 50
39 36 29 24 25 25 36 31 37 44 47 48 49 48 50 48 49 52 55 55 55 55 54 56 57 57 57 57 57 57 57 57 57 57 57 55 54 54 53 52 51 51 51 50 50 49 48 49 49
38 29 38 31 29 25 31 38 44 44 45 47 48 49 48 48 49 50 50 52 52 52 52 54 55 56 56 56 54 54 54 54 56 55 54 53 53 53 49 50 50 50 50 49 49 47 47 48 48
42 42 32 29 23 23 25 28 33 38 41 45 45 46 47 47 49 50 50 50 50 49 50 52 53 54 53 53 53 53 54 53 53 52 51 51 51 51 50 49 49 49 49 48 45 45 45 46 46
38 38 36 34 27 23 22 29 38 42 43 44 44 44 46 47 48 48 49 49 49 49 50 50 51 52 51 51 50 50 50 50 51 51 51 51 51 50 50 49 48 47 45 44 43 44 44 44 44
37 35 35 26 26 23 23 30 41 41 44 45 45 46 46 48 49 48 48 48 48 47 48 48 49 49 49 49 49 48 48 47 47 48 48 48 47 49 48 47 46 44 43 42 42 42 42 42 42

GFSSGP_sfc_temp_090.txt.gz
Temp
70 68 63 59 46 42 39 49 56 52 57 66 66 61 60 58 59 53 69 74 73 73 76 77 78 78 78 78 78 77 77 78 78 79 79 79 79 79 80 79 79 79 79 79 79 79 78 77 77
67 68 60 52 42 35 43 51 56 57 63 64 68 66 61 57 63 67 69 73 74 74 75 76 78 77 78 78 77 77 77 78 78 78 78 78 79 80 79 79 78 78 78 78 78 77 77 76 76
67 68 53 48 43 38 43 52 62 63 63 62 61 69 63 60 68 69 72 74 74 72 74 75 77 77 78 77 77 77 77 77 78 78 78 79 80 80 79 78 77 77 77 77 77 76 76 76 76
60 57 55 44 42 46 47 55 62 62 62 63 61 60 66 66 68 71 74 73 71 71 72 75 76 77 77 77 77 77 77 77 77 77 78 78 79 79 78 76 75 75 75 76 76 75 75 75 76
56 52 44 43 44 47 52 58 63 61 61 61 60 59 63 69 69 73 73 72 73 72 72 74 76 77 76 77 77 77 77 77 77 77 78 78 78 78 76 75 75 75 75 75 75 75 75 75 75
48 51 41 39 44 51 52 59 60 62 64 62 59 59 63 67 70 71 73 71 76 73 72 74 74 75 76 76 76 76 76 76 76 77 77 78 78 77 76 75 74 75 75 75 75 75 75 75 75
46 44 43 44 45 46 52 58 57 59 62 60 65 56 61 65 67 70 72 73 75 71 71 71 71 72 74 74 75 75 76 76 75 76 76 75 75 75 75 75 74 75 75 75 75 75 74 75 74
48 47 43 46 45 44 54 60 61 61 64 69 70 56 57 65 66 69 70 70 70 69 70 70 69 69 69 70 73 73 73 74 74 73 72 71 71 73 74 72 73 74 74 74 74 74 74 73 73
52 42 39 43 46 47 55 57 61 63 62 62 65 63 67 65 65 63 67 69 67 68 70 70 69 68 68 68 70 71 72 72 71 70 69 68 66 67 68 68 71 72 73 73 73 73 73 71 69
45 40 43 51 50 48 53 57 60 59 57 57 60 64 67 63 62 61 64 66 67 67 68 69 68 67 67 71 68 67 69 70 71 67 66 65 65 65 67 66 69 71 71 71 72 72 71 67 61
44 41 49 53 55 52 54 55 59 56 54 59 60 59 62 62 62 62 61 66 67 68 66 66 66 66 67 67 66 66 66 67 69 66 65 64 65 64 63 63 64 63 65 63 65 64 63 62 61
40 48 50 54 56 52 52 55 53 55 57 62 65 63 62 62 63 63 64 65 66 64 64 65 65 68 65 66 65 66 66 66 68 66 65 63 62 62 62 62 62 62 62 61 61 61 61 61 62
42 45 51 53 54 52 53 51 52 52 57 62 65 64 63 64 65 67 68 68 65 63 64 64 65 65 67 65 64 66 65 65 66 66 66 64 63 62 63 62 61 61 61 61 60 61 61 61 62
45 48 49 52 52 53 49 50 51 52 55 62 62 63 63 64 64 64 65 65 65 66 66 66 66 65 67 65 65 65 65 65 65 66 66 65 64 63 63 62 62 61 61 61 61 60 60 61 61
47 42 48 46 49 49 50 47 46 50 55 57 60 60 63 62 64 64 64 64 64 65 68 66 66 66 65 65 66 66 66 66 65 65 66 66 65 64 64 63 62 62 61 61 60 60 60 60 62
40 42 36 45 45 47 48 42 47 51 52 53 55 57 61 61 62 63 64 64 64 64 65 66 68 68 67 66 66 66 67 67 67 66 66 67 66 65 64 63 62 62 61 60 60 60 60 60 61
37 34 36 40 47 46 46 44 48 51 50 51 52 53 57 60 61 62 64 64 65 65 64 65 67 67 68 68 67 66 67 66 65 65 67 67 67 66 65 64 63 64 62 61 62 61 61 61 62
31 34 36 37 44 45 42 43 49 50 48 48 51 51 54 56 59 62 63 64 65 65 64 64 67 67 69 68 67 67 67 66 66 66 70 71 69 68 66 64 64 64 63 62 61 62 63 64 65
37 37 35 39 45 42 41 42 47 48 47 46 50 52 52 56 59 61 62 65 64 64 63 64 65 67 67 66 65 66 66 67 66 66 70 71 70 69 67 66 65 64 64 63 63 64 62 65 62
40 36 36 42 44 42 42 41 46 48 48 50 51 52 52 55 58 59 59 60 64 63 64 64 66 68 68 68 67 68 67 67 68 67 66 67 67 67 66 67 64 64 63 64 66 65 62 60 60
38 37 36 38 42 45 41 38 42 46 48 50 49 53 53 55 55 59 58 58 58 61 64 66 67 68 69 69 68 63 63 63 63 65 65 66 67 67 65 64 64 63 63 62 62 61 60 58 57
36 43 44 41 38 33 43 31 37 44 45 48 47 48 51 53 55 57 59 59 58 58 60 63 65 67 68 67 66 66 66 65 65 65 63 62 62 62 63 63 63 61 60 60 59 58 57 57 55
38 43 42 42 38 37 36 33 38 42 41 47 46 48 50 52 55 57 59 61 61 60 59 59 61 62 63 63 65 65 65 62 61 61 60 59 59 60 60 60 59 58 58 57 57 55 54 54 53
44 41 41 39 38 26 36 34 35 39 44 47 52 50 50 53 53 55 57 58 59 58 59 58 58 60 61 61 62 62 62 60 60 58 58 58 58 57 58 58 57 56 56 55 54 53 53 53 52
44 36 29 27 27 26 35 33 36 44 47 50 49 49 50 49 51 53 54 55 57 57 58 57 58 59 59 59 60 61 60 60 60 58 58 57 55 54 54 54 55 53 52 52 52 51 49 50 49
39 36 29 23 22 26 35 31 37 45 47 48 49 47 48 47 48 51 52 54 55 56 56 55 56 56 56 56 57 57 58 58 58 58 57 56 55 54 54 53 52 52 51 51 50 49 48 48 48
38 31 39 31 31 25 30 36 42 45 45 47 47 46 46 46 47 48 49 50 52 52 52 53 54 55 56 55 54 54 54 54 55 55 55 55 54 54 52 52 50 49 49 50 49 48 47 47 47
38 42 32 30 25 23 25 26 32 39 41 44 45 46 45 46 47 47 47 48 49 49 49 51 52 54 54 54 52 52 51 52 52 52 51 52 52 51 52 50 49 49 49 48 47 45 45 45 45
36 35 34 33 28 24 23 29 38 40 41 41 42 45 46 47 45 45 45 46 47 48 49 49 50 51 51 52 51 50 50 50 50 49 48 48 49 49 50 49 48 48 47 45 44 43 43 43 44
35 33 33 26 26 22 23 30 39 38 42 44 44 46 46 46 46 46 45 46 46 46 47 47 48 49 49 49 48 48 48 48 47 47 48 49 48 48 48 48 47 45 44 44 44 43 43 42 42

GFSSGP_sfc_temp_093.txt.gz
Temp
71 71 68 65 53 49 47 52 60 60 61 65 70 67 66 65 65 61 73 75 78 78 81 81 78 78 78 78 78 77 77 78 79 79 80 80 80 79 79 79 79 79 79 80 79 79 78 77 77
70 70 64 55 47 41 46 56 58 61 66 65 66 69 66 64 67 69 69 74 78 79 80 81 77 78 78 78 77 77 77 78 79 79 79 79 79 79 79 79 79 79 79 79 78 78 77 77 77
69 68 57 50 47 44 47 56 61 66 66 61 58 66 68 65 70 72 74 75 78 78 80 79 77 77 78 78 77 77 77 77 77 77 77 78 79 79 79 78 78 78 78 77 77 76 76 76 76
63 59 56 48 45 52 54 60 64 64 63 65 62 57 69 69 69 74 75 77 76 77 79 77 76 77 77 77 77 77 77 77 77 77 77 79 79 79 78 77 76 76 76 76 76 76 76 76 76
60 54 47 44 46 51 57 62 63 64 62 62 62 57 60 70 73 75 75 76 76 76 78 78 76 77 76 76 76 77 77 77 77 77 78 78 79 78 76 76 75 75 76 76 76 76 76 75 76
51 52 42 41 47 53 57 62 63 64 64 63 62 60 60 68 70 73 76 76 77 76 77 78 75 76 76 76 76 76 76 76 77 77 78 78 77 76 76 75 75 75 76 76 76 75 75 75 75
48 46 42 46 47 52 55 62 59 63 63 61 67 59 61 65 68 72 74 76 75 75 76 76 77 76 74 74 75 75 76 75 76 77 77 76 74 75 75 75 75 75 75 75 75 75 75 75 74
50 48 43 45 45 47 58 59 63 63 65 70 69 58 58 65 66 67 72 74 72 73 74 73 76 77 77 78 73 73 74 73 74 75 72 72 72 73 74 73 74 75 74 74 74 74 74 74 73
54 40 38 43 45 51 59 56 63 68 66 68 68 67 66 63 64 67 67 69 69 70 73 73 74 75 76 76 75 72 72 72 71 71 69 70 75 75 75 70 71 72 73 73 73 73 73 71 69
45 39 42 52 53 53 57 57 59 60 63 63 64 64 64 64 62 61 59 64 67 68 69 71 73 74 74 75 75 75 74 76 76 75 74 74 74 74 74 70 69 71 71 71 73 72 71 70 76
46 38 49 52 55 56 56 56 60 57 55 64 64 61 63 63 61 60 59 60 66 68 66 69 70 72 73 73 73 73 74 73 74 73 73 73 72 72 73 73 73 73 69 74 73 73 75 73 74
40 47 49 51 55 55 54 54 55 55 60 62 69 65 64 61 62 62 61 61 63 64 65 68 70 70 70 71 71 71 71 72 71 72 72 72 71 71 70 72 71 71 73 72 73 74 73 73 73
42 46 50 52 52 53 54 51 51 54 64 60 64 66 65 63 63 63 65 66 64 63 64 67 68 68 70 70 70 71 71 72 72 71 73 72 71 70 70 70 70 70 70 70 71 71 73 73 73
45 47 47 50 52 53 50 51 51 55 57 58 65 62 63 63 63 64 64 65 66 64 64 66 68 69 70 70 70 70 71 72 72 71 73 71 72 71 69 70 69 70 70 70 71 72 73 74 73
46 37 44 47 51 50 51 45 46 54 54 55 65 61 61 64 65 64 67 67 67 64 64 66 68 70 70 70 69 70 71 71 71 72 72 71 71 71 71 71 70 70 72 71 71 70 71 72 72
38 39 35 46 48 45 48 40 49 53 53 56 59 64 62 64 65 68 69 69 68 66 66 69 70 68 69 69 68 70 71 72 71 71 70 72 71 71 71 71 71 72 71 70 70 70 70 70 72
38 32 36 39 47 44 41 39 48 52 52 52 52 55 63 62 65 66 68 65 65 67 68 68 68 68 68 69 69 70 70 69 69 70 70 71 71 72 71 71 71 71 70 70 70 71 71 72 73
32 35 38 38 43 44 38 35 40 51 51 50 51 53 57 62 62 63 64 65 65 66 66 66 66 68 69 70 69 69 69 69 69 68 71 71 73 73 71 72 72 71 70 70 69 71 70 71 72
39 38 37 41 45 42 40 36 42 50 50 50 51 52 54 56 58 61 63 64 65 64 65 65 66 68 67 67 66 66 66 67 68 69 71 72 73 73 72 71 70 70 70 70 71 71 71 70 71
39 38 37 40 44 42 39 36 43 49 48 50 51 53 54 55 55 58 61 62 61 63 65 65 67 67 67 67 68 67 67 67 69 70 68 69 69 70 71 71 70 71 70 70 70 68 69 70 69
38 37 37 36 42 43 40 34 41 48 50 51 52 53 56 57 57 57 58 61 63 61 63 64 66 66 69 68 68 66 66 64 65 68 67 67 67 66 67 65 65 67 66 65 65 65 66 67 65
35 42 43 39 39 34 43 30 39 44 46 50 52 52 54 56 59 59 58 58 59 63 64 64 65 67 68 67 67 66 63 63 65 64 64 63 64 64 64 64 64 62 62 62 60 60 61 63 63
39 44 43 41 39 38 37 33 37 43 43 47 51 52 55 56 58 59 61 62 61 61 61 63 65 65 67 67 67 64 63 64 62 62 61 60 61 61 62 63 62 60 59 58 58 57 58 60 61
45 42 40 40 38 30 36 35 38 41 45 48 51 54 54 56 57 59 60 61 62 62 61 61 62 63 64 65 65 66 65 65 62 62 61 59 58 58 58 59 59 59 57 57 55 55 57 57 58
42 36 29 27 26 27 37 36 40 45 47 49 53 55 53 54 56 57 59 59 60 61 61 61 62 62 63 64 64 63 64 64 63 62 62 58 56 56 55 55 55 55 57 56 56 56 56 55 56
37 36 29 23 24 28 38 32 40 46 48 49 50 49 51 52 54 54 55 56 57 57 58 59 60 60 61 62 62 62 61 61 62 61 60 61 59 57 56 54 54 56 56 55 55 54 54 55 55
38 33 39 31 32 30 32 39 47 48 48 49 49 49 48 49 50 51 51 53 54 56 56 57 58 59 59 60 60 59 60 60 59 59 59 58 58 56 55 55 54 54 55 55 54 53 52 53 52
41 43 33 30 23 23 30 32 34 40 44 46 47 46 47 48 49 50 50 51 52 53 54 55 57 58 58 57 58 58 58 58 58 57 56 55 54 55 54 53 53 52 52 52 52 52 52 52 52
37 36 35 35 30 28 27 32 42 41 45 44 45 47 47 48 48 49 50 50 51 52 53 54 54 55 55 56 56 56 55 55 55 55 54 54 54 54 53 52 52 50 49 49 50 49 50 50 50
38 35 35 30 29 25 28 33 42 40 45 46 46 47 48 49 49 49 49 50 50 50 51 51 53 54 54 54 55 54 53 53 53 53 53 54 54 54 53 52 51 50 49 49 49 48 48 49 48

GFSSGP_sfc_temp_096.txt.gz
Temp
76 79 82 76 61 61 57 61 71 70 70 80 73 69 71 76 73 69 81 81 86 86 84 84 79 78 79 78 78 77 78 79 79 80 80 80 79 79 79 79 79 80 80 80 79 79 79 77 77
77 76 76 68 56 53 57 68 64 71 77 79 73 70 67 70 77 77 76 78 84 86 84 85 78 78 78 78 77 77 78 79 78 79 79 79 79 79 79 79 79 80 80 79 79 78 77 77 76
72 75 66 60 55 53 57 67 68 74 78 74 71 67 63 70 78 79 81 81 84 86 86 84 77 78 78 77 77 77 78 78 78 78 77 78 79 79 79 79 79 79 77 78 77 77 76 76 76
72 68 65 53 52 60 63 70 72 73 75 76 74 64 66 75 77 80 80 83 85 86 86 78 77 77 77 77 77 77 78 78 78 77 77 78 79 79 79 78 77 76 76 76 76 76 76 76 76
70 64 54 51 54 62 69 71 73 71 73 72 73 68 67 69 81 82 79 84 83 84 85 82 77 77 77 77 77 77 77 78 77 77 78 78 77 78 77 76 75 76 76 76 76 76 76 75 75
57 61 50 48 55 63 68 70 72 70 73 75 71 70 69 72 72 74 79 82 85 83 83 83 75 76 76 76 76 76 77 77 77 77 78 77 76 76 76 75 75 75 76 76 76 76 75 75 75
52 53 49 52 55 59 64 72 68 68 71 72 76 68 70 70 72 74 72 80 84 84 83 81 81 78 74 75 75 75 76 76 76 77 77 75 75 75 74 74 75 76 76 76 75 75 75 75 74
57 52 47 51 52 55 68 69 72 69 69 80 79 69 68 71 70 73 68 73 79 80 83 78 81 83 82 80 73 73 74 74 75 75 73 72 72 72 73 73 74 75 75 74 74 74 74 74 73
61 44 43 49 52 56 67 65 72 74 71 75 78 76 77 74 70 66 64 63 72 76 79 80 83 85 85 83 77 73 72 72 72 72 70 71 81 79 77 73 72 73 73 74 74 74 73 71 70
50 44 47 57 59 58 63 65 67 66 66 67 72 77 71 71 68 63 59 60 60 70 72 77 83 84 84 81 79 80 80 82 83 81 80 83 82 82 81 73 69 72 72 72 73 73 71 70 83
51 43 54 56 59 61 60 62 68 63 61 68 70 75 66 69 65 61 61 61 61 67 68 74 81 83 83 81 79 79 82 83 83 83 83 83 82 79 80 79 78 79 70 80 77 77 82 81 83
45 51 53 55 58 57 54 62 61 64 66 73 75 71 67 66 66 66 61 60 61 61 67 72 78 80 82 82 81 79 77 82 82 82 82 81 80 79 80 81 81 81 81 81 81 83 82 80 80
47 50 54 55 56 56 58 56 58 60 67 70 73 73 67 67 64 68 68 63 62 62 65 70 74 77 79 80 81 81 79 79 80 80 80 81 79 79 80 80 80 80 80 80 80 80 80 80 80
53 52 52 54 54 56 53 56 56 61 63 62 65 68 69 69 67 66 65 65 63 63 64 66 72 75 78 78 78 80 81 80 77 76 78 80 80 80 78 79 78 79 79 80 80 80 80 81 82
51 45 48 50 52 51 56 49 52 62 63 58 62 67 67 67 67 65 66 67 67 65 65 65 69 73 77 77 77 77 78 79 77 77 79 79 79 78 76 76 76 78 79 80 80 80 81 80 80
38 40 35 48 51 53 51 44 58 59 56 56 60 66 67 65 67 69 69 69 69 67 64 65 69 70 77 77 77 77 77 76 78 80 79 79 78 77 75 75 78 80 79 79 79 79 78 79 80
41 33 33 42 53 50 49 47 57 54 54 52 59 64 65 61 65 69 69 69 70 69 66 65 67 70 75 76 75 76 76 78 78 79 79 78 77 77 75 76 79 79 79 79 78 78 79 79 79
34 38 43 42 47 49 44 43 51 53 52 49 59 61 63 62 64 69 70 70 69 68 69 69 68 72 73 74 75 76 76 76 78 76 78 77 78 76 75 76 79 80 78 78 78 78 79 79 79
35 39 40 41 49 46 46 45 46 52 52 46 58 59 61 59 63 65 67 67 68 66 67 70 69 70 72 71 72 73 73 73 74 75 77 78 77 78 75 75 77 78 77 78 79 78 76 76 78
38 41 40 41 45 46 43 42 49 51 51 46 57 56 58 56 56 57 61 61 63 63 64 65 69 70 70 70 74 76 74 73 74 74 75 76 77 75 74 73 74 76 76 77 76 75 74 77 77
43 44 40 38 44 47 44 38 39 45 47 49 56 57 58 57 55 56 58 60 60 60 63 66 67 69 69 69 70 73 73 71 70 71 74 74 72 72 70 70 68 70 73 70 68 67 68 69 71
40 49 47 40 41 38 48 31 36 40 46 55 56 57 58 57 58 58 58 61 61 62 65 66 66 69 69 68 69 69 69 68 68 69 67 65 68 67 65 66 65 64 64 64 64 65 66 69 67
43 49 46 44 42 45 41 35 36 44 48 53 56 56 59 61 62 58 57 61 63 63 64 66 68 68 68 68 65 66 63 63 65 64 63 62 61 63 64 64 63 61 60 60 60 60 61 63 64
48 47 46 46 44 36 37 35 34 40 46 49 54 56 58 59 60 61 63 62 62 62 62 65 67 68 69 69 69 64 63 64 64 64 63 62 61 60 61 61 62 61 60 59 59 60 58 58 60
44 43 32 32 32 31 37 36 39 48 51 52 53 57 59 61 61 61 62 63 64 64 64 65 66 66 68 68 70 69 67 66 66 66 65 63 59 59 60 60 61 60 59 59 59 59 59 60 59
38 40 36 29 32 33 41 34 39 53 55 56 53 55 59 59 59 58 59 62 63 62 63 65 67 67 69 69 68 66 67 67 68 68 66 63 61 63 61 60 60 58 59 60 62 61 61 59 59
40 39 46 39 43 38 40 45 52 51 51 50 50 54 54 55 56 55 58 61 63 63 63 64 65 67 68 69 68 68 69 67 65 66 66 63 64 63 61 61 58 57 58 60 62 61 60 61 60
45 49 40 41 32 29 37 41 40 47 51 52 53 53 53 55 56 58 59 59 60 61 63 64 66 65 66 66 67 66 67 67 66 66 64 62 62 61 59 58 60 59 60 60 59 59 59 58 58
44 44 43 44 40 38 35 38 50 49 51 52 53 55 56 56 57 59 60 61 61 62 63 63 63 63 64 65 66 66 66 65 64 65 64 61 60 58 58 58 58 58 56 57 57 56 55 55 55
45 44 45 41 36 36 43 39 51 51 53 55 52 54 56 57 58 59 60 62 61 61 62 63 62 62 62 63 65 64 63 63 63 63 62 62 61 59 58 58 57 56 55 55 55 54 54 54 53

GFSSGP_sfc_temp_099.txt.gz
Temp
76 83 84 78 61 62 58 63 74 74 77 85 85 78 78 80 77 68 84 86 88 84 84 83 78 78 79 79 78 78 78 78 79 79 80 79 79 79 79 80 79 80 80 80 80 79 78 77 77
77 80 78 71 56 53 58 70 69 75 80 85 79 77 75 75 82 82 81 85 85 83 84 83 78 78 78 78 77 78 78 78 78 79 79 79 79 79 79 79 80 80 79 79 78 77 77 77 76
77 79 68 62 57 53 57 71 73 79 82 82 77 81 76 76 82 81 85 85 84 81 84 83 77 78 78 78 77 78 78 78 78 78 78 78 79 79 79 79 79 78 78 78 77 76 76 76 76
74 72 68 56 54 62 64 71 77 77 80 83 79 73 76 83 82 85 86 87 83 81 85 77 77 77 77 77 77 78 78 78 78 78 77 77 78 79 79 79 77 78 76 76 76 76 76 76 75
73 68 56 54 55 63 71 74 76 75 76 78 80 72 74 80 87 86 85 85 85 81 80 82 77 77 77 77 77 77 78 78 78 77 77 78 79 79 78 78 77 76 76 76 76 76 76 75 75
61 64 51 50 56 65 70 74 75 74 77 78 77 75 77 85 79 80 83 83 84 82 80 83 76 76 76 76 76 76 77 78 77 76 77 78 78 78 78 78 76 76 76 76 76 76 76 75 75
56 56 51 54 56 61 67 76 72 73 74 75 81 73 79 81 80 76 74 77 77 82 82 81 81 78 74 75 75 75 76 76 76 76 76 76 75 75 76 76 76 77 76 76 75 75 75 75 75
61 56 50 54 53 55 69 72 76 73 72 83 83 70 72 81 81 74 69 68 68 66 79 80 82 81 80 79 73 73 74 74 74 74 73 72 72 72 74 74 75 76 76 75 75 75 75 74 73
63 48 46 50 52 57 68 66 75 79 75 77 80 79 79 75 78 73 64 64 64 64 65 76 79 81 83 82 76 73 72 72 72 72 70 72 78 77 75 73 72 74 74 74 74 74 73 72 71
52 47 48 59 61 59 65 66 69 70 70 71 73 80 81 75 74 67 62 60 60 61 63 64 76 83 84 82 79 80 79 79 81 81 79 81 81 81 81 72 70 72 72 72 73 73 72 71 81
53 46 55 58 61 63 61 63 69 66 64 71 70 74 73 74 71 66 63 62 62 62 63 62 71 81 83 81 81 82 81 82 83 81 82 84 83 80 79 76 75 75 69 76 75 74 78 81 83
47 53 55 56 59 59 58 63 61 63 66 74 77 78 73 65 67 67 63 62 63 62 63 64 69 82 77 82 82 83 84 84 83 82 84 83 82 80 81 79 78 79 77 81 80 81 82 81 82
49 53 55 57 57 57 60 56 57 61 68 72 75 72 67 70 67 68 69 66 63 62 62 63 67 79 81 76 76 83 84 84 83 83 83 83 81 80 81 81 80 80 81 81 80 81 81 81 82
52 53 54 56 56 57 54 55 58 60 67 67 68 69 68 70 68 67 70 64 66 65 63 63 67 77 81 75 75 76 82 84 82 81 81 82 81 80 79 80 79 79 80 81 81 81 81 81 82
51 46 51 52 54 53 56 49 51 62 65 63 66 68 68 72 65 63 71 68 66 66 63 63 65 73 78 79 79 77 76 80 79 80 81 81 80 80 79 79 78 78 79 80 78 81 81 81 82
45 46 37 51 52 54 52 40 55 63 62 63 64 66 67 71 67 62 70 71 71 65 63 65 68 67 74 77 77 79 80 80 79 80 80 80 79 79 77 77 77 78 78 77 77 79 78 79 80
46 36 36 39 53 52 49 42 56 64 60 60 62 64 65 67 69 63 65 69 69 68 65 65 67 69 69 75 77 78 78 78 79 79 78 77 78 78 77 77 78 79 77 77 78 79 79 78 78
38 38 42 38 49 50 47 45 54 57 59 58 59 64 64 66 66 63 63 69 71 69 68 68 66 67 66 73 74 77 77 77 78 78 78 79 78 77 77 78 78 79 76 75 78 78 79 79 77
45 41 38 41 42 48 46 46 52 59 58 56 57 58 62 63 66 63 63 67 68 68 67 68 66 66 68 70 69 72 73 74 74 75 77 79 79 78 77 76 77 76 76 76 78 78 77 76 78
43 40 40 45 47 47 48 48 55 56 56 57 53 54 61 61 56 57 60 66 65 66 67 67 66 65 68 69 70 70 71 72 73 74 75 77 78 77 76 75 75 75 74 75 76 76 73 73 73
42 41 43 39 42 48 44 42 46 52 53 56 55 57 61 61 56 56 58 60 62 63 65 65 65 66 69 70 70 71 72 70 69 71 74 74 75 74 73 73 72 71 71 67 71 71 69 67 69
36 51 46 38 36 34 48 32 37 41 48 52 52 53 58 56 56 55 56 59 59 60 62 62 63 65 65 67 67 69 67 66 69 71 70 69 70 70 70 71 70 69 67 64 64 64 66 68 66
43 52 44 42 41 38 41 38 36 39 43 47 50 53 54 55 55 55 56 58 59 59 59 61 63 64 64 65 67 66 65 65 67 68 68 67 67 68 68 68 66 65 62 61 60 60 59 60 60
46 47 47 46 42 32 36 34 34 36 37 47 53 54 54 55 56 58 57 58 60 61 61 62 64 66 67 68 67 64 63 62 62 63 64 64 63 64 64 65 64 63 62 60 60 60 60 59 60
44 42 31 30 31 30 36 35 33 41 43 50 51 54 57 59 58 57 57 56 58 58 59 60 61 66 68 68 68 67 63 62 62 62 62 64 61 60 61 62 61 61 61 61 61 60 60 60 60
41 39 33 29 30 32 40 31 34 49 52 52 51 55 54 53 55 58 60 63 62 61 62 63 65 65 68 67 67 69 68 64 64 64 65 65 63 61 63 62 62 62 62 61 61 60 60 61 60
44 39 49 42 46 38 36 35 43 48 48 47 49 49 52 54 53 53 58 61 61 62 63 65 67 68 69 70 70 69 68 67 67 66 68 68 65 63 62 62 61 60 60 60 60 61 60 60 59
44 51 38 41 33 30 35 35 34 40 43 45 46 49 53 56 58 58 58 59 61 63 64 64 65 66 67 68 69 68 69 69 69 68 66 63 63 62 61 60 58 57 57 58 59 59 59 59 58
45 45 47 47 42 39 34 33 50 50 50 51 52 55 55 57 59 60 60 62 63 64 64 64 64 64 65 66 67 68 68 68 67 68 67 64 63 60 59 58 58 57 58 59 57 56 56 56 56
48 47 49 43 40 45 43 37 56 56 56 56 54 57 58 59 60 61 62 62 62 62 63 63 64 63 63 65 66 65 65 65 66 66 66 65 61 60 58 58 57 57 57 57 55 53 53 54 54

GFSSGP_sfc_temp_102.txt.gz
Temp
73 77 76 70 52 53 49 54 65 64 68 78 80 74 70 73 67 58 78 81 82 79 79 79 78 78 78 79 78 78 78 78 79 79 80 80 79 80 80 79 80 80 80 79 79 78 78 77 77
73 77 70 61 48 44 49 60 61 67 73 78 77 74 70 68 77 72 74 81 82 81 79 79 78 78 78 78 78 78 78 78 79 79 79 79 79 80 79 79 80 80 80 79 78 77 77 76 76
73 76 59 53 49 44 49 62 65 72 75 76 72 73 73 71 78 76 79 82 81 79 81 79 77 78 78 78 77 78 78 78 78 78 78 79 79 79 80 79 79 78 77 77 77 77 76 76 76
69 64 61 49 48 54 56 63 68 69 74 77 75 67 72 76 76 79 81 82 80 79 80 76 77 77 77 77 77 77 78 78 78 77 78 78 79 79 79 78 77 77 76 76 76 76 76 75 75
66 60 49 47 48 56 63 67 68 67 70 72 74 67 68 75 82 81 80 81 80 79 76 77 77 77 77 77 77 77 78 78 77 77 77 78 79 79 78 77 78 76 76 76 76 76 75 75 75
54 56 44 42 49 58 63 67 67 67 70 72 69 70 70 76 75 76 80 78 80 77 76 78 75 76 76 76 76 76 77 77 77 77 77 77 78 78 79 79 79 77 76 76 76 76 75 75 75
50 49 44 47 49 54 61 69 65 65 67 68 76 67 71 70 73 74 76 77 69 70 75 75 74 75 74 75 75 75 77 76 77 76 76 77 77 78 79 78 78 78 76 76 75 75 75 75 74
54 49 43 46 47 49 62 65 68 66 66 77 77 66 64 68 74 70 68 68 68 67 66 65 67 74 73 71 73 72 74 74 75 74 73 72 73 74 76 75 75 76 75 75 75 75 74 74 73
58 42 39 44 47 51 62 59 67 71 67 71 74 73 72 70 71 67 63 63 63 64 64 64 64 64 74 73 72 71 71 72 71 71 70 71 75 75 74 72 73 74 74 74 74 74 73 72 71
48 40 42 53 55 53 59 59 62 62 63 65 69 75 75 69 66 64 63 59 60 61 62 62 63 64 64 77 70 70 72 72 72 72 74 74 75 75 76 70 71 73 73 72 73 73 72 70 67
49 40 49 52 55 57 56 57 62 58 56 63 64 68 72 69 65 63 61 61 60 62 62 62 64 64 64 64 72 73 69 70 70 72 75 74 74 71 70 69 70 69 67 68 69 68 67 66 68
44 51 52 53 56 54 52 57 54 58 59 65 67 69 66 65 63 65 62 61 60 61 62 62 63 63 64 64 74 74 73 69 71 73 75 75 72 71 70 69 67 66 66 66 66 67 69 70 72
45 48 53 54 54 54 56 52 52 55 61 63 67 67 66 63 63 63 64 64 62 60 61 62 64 65 67 68 76 76 75 77 76 75 75 75 72 69 72 71 70 69 68 68 68 69 70 71 71
48 49 50 52 52 54 51 51 53 55 61 61 63 63 61 63 62 63 63 62 63 63 62 62 66 67 68 68 71 73 77 74 73 75 76 73 71 69 69 69 69 69 69 70 70 70 69 71 71
48 42 46 48 51 50 54 46 47 56 59 58 61 63 60 62 62 62 64 63 64 64 62 63 65 66 66 67 69 69 74 78 72 71 73 73 71 70 69 68 68 68 70 70 71 70 71 71 72
42 42 33 47 50 51 49 36 49 56 56 55 58 62 58 62 64 64 63 62 64 62 63 64 67 64 65 66 68 70 70 74 74 74 72 73 73 71 69 68 68 69 69 68 68 68 69 69 70
40 29 33 39 50 49 47 39 49 55 55 54 57 55 55 59 64 63 65 63 64 63 64 64 65 64 65 68 67 67 69 69 74 72 74 72 72 72 69 69 69 70 69 68 69 69 69 68 68
33 34 39 38 45 43 42 41 48 54 53 52 53 54 56 60 61 63 62 63 63 64 64 64 65 65 66 68 68 69 67 66 68 71 72 73 73 72 70 70 70 70 69 68 69 69 70 69 68
39 37 35 42 49 40 41 42 46 50 46 52 50 50 53 57 62 62 63 62 63 64 63 64 64 65 65 65 65 66 65 67 66 69 71 73 73 74 71 70 70 70 69 69 70 69 69 67 69
37 36 36 44 47 40 42 42 48 50 45 50 52 50 51 54 55 58 60 60 61 62 63 63 63 63 64 65 65 64 67 67 69 69 70 70 71 70 71 70 69 71 69 69 69 69 66 66 67
38 37 38 37 39 45 42 38 44 50 50 51 51 52 53 54 54 55 57 59 59 61 61 64 63 63 64 66 66 65 66 64 66 66 67 69 71 70 69 68 67 67 67 66 65 65 65 62 63
35 46 45 38 35 31 43 28 38 41 42 47 51 51 51 53 54 55 56 58 60 60 61 63 65 63 63 64 64 63 62 62 63 65 65 65 66 67 67 66 66 65 64 63 63 64 61 62 60
39 46 42 41 36 32 36 32 35 38 41 47 47 50 53 53 54 54 56 57 59 59 59 60 61 62 62 63 63 62 62 62 62 63 62 63 64 65 65 65 64 64 63 62 61 60 60 59 58
46 42 43 42 38 30 35 33 32 34 37 43 50 51 52 53 54 55 56 58 57 59 59 60 60 61 62 62 62 61 61 61 61 61 61 61 61 62 62 63 63 62 61 61 60 60 59 59 58
42 36 28 28 29 28 34 33 32 38 42 46 47 49 52 52 52 54 54 55 56 57 58 59 59 60 61 62 62 62 62 61 61 61 61 61 61 61 61 62 61 61 61 61 61 60 59 58 58
38 36 30 25 26 30 38 29 32 42 45 50 49 49 49 49 51 53 54 54 55 55 55 56 56 57 59 61 62 62 63 62 61 62 61 61 61 61 61 61 61 61 61 60 60 60 59 57 56
40 35 44 32 37 30 33 33 38 43 44 46 47 48 47 48 51 53 56 57 57 58 59 60 61 62 63 64 63 62 63 63 62 62 62 62 62 63 63 62 62 61 61 61 59 58 58 56 55
41 46 34 34 28 26 31 31 32 36 41 45 46 46 48 50 52 53 54 56 58 58 58 59 60 60 60 61 61 61 62 63 63 63 62 62 62 61 60 60 61 60 60 60 58 57 56 56 55
40 40 41 41 36 28 26 29 43 41 45 45 46 49 52 53 54 54 55 57 57 57 57 57 57 57 58 59 60 59 58 59 60 60 61 60 60 59 58 58 56 56 56 56 56 55 55 53 52
43 42 43 29 33 34 29 30 50 50 50 50 49 52 52 55 55 53 54 54 54 55 55 55 56 56 56 58 58 57 58 57 57 58 58 59 59 57 57 56 56 56 56 55 54 53 53 51 51

GFSSGP_sfc_temp_105.txt.gz
Temp
69 69 65 60 48 44 40 47 57 56 59 65 71 66 68 65 67 56 72 76 77 75 77 78 78 78 78 78 78 78 78 78 79 79 80 80 79 80 79 80 80 80 80 80 79 79 78 78 77
66 69 62 54 41 36 40 50 53 58 66 69 68 68 66 66 70 70 71 77 76 76 77 77 78 78 78 78 78 78 78 78 78 79 79 79 79 80 79 80 79 79 79 78 78 77 76 76 75
67 70 53 46 40 38 39 52 57 64 66 66 67 69 68 65 71 71 74 78 78 76 77 77 77 78 78 78 78 78 78 78 78 78 79 78 79 79 79 79 78 78 77 77 77 76 76 75 76
62 57 54 41 39 47 50 54 61 61 67 67 67 62 69 73 72 74 77 79 76 75 76 76 77 77 77 77 77 77 78 78 78 78 78 78 79 79 79 78 76 76 76 76 76 76 75 75 76
58 52 41 38 42 48 52 58 60 59 61 64 65 63 65 71 77 77 76 77 75 73 74 76 77 77 77 77 77 77 78 77 78 78 78 78 78 78 78 77 76 76 76 76 76 76 75 75 75
48 49 36 36 41 50 53 59 58 59 60 63 63 61 65 71 73 73 76 74 76 73 74 76 75 76 76 76 76 76 77 77 77 77 77 78 78 78 78 78 76 76 76 76 76 75 75 75 75
44 41 36 38 41 46 53 60 56 58 57 61 63 59 65 66 68 70 69 69 68 69 70 67 70 74 74 75 75 76 76 76 76 76 76 76 76 77 78 78 77 76 76 76 75 75 75 75 74
48 43 37 38 41 43 54 57 59 57 57 66 66 55 60 64 68 67 66 65 65 65 66 66 65 66 66 71 73 73 74 74 75 74 74 73 73 74 77 76 76 75 75 74 74 75 74 74 73
52 37 33 38 42 46 55 54 62 63 58 62 61 63 67 66 66 64 62 62 62 63 64 64 64 65 65 68 71 71 71 72 71 71 70 71 76 76 75 74 73 74 74 74 74 74 73 72 71
43 34 39 47 47 46 51 52 54 55 56 56 61 66 66 65 63 62 61 59 60 60 61 62 63 64 65 70 66 68 71 70 72 72 73 75 74 75 76 71 71 73 72 72 73 73 72 70 65
44 37 46 48 51 52 51 51 55 51 49 54 55 58 62 64 61 61 60 61 62 60 60 61 62 63 63 64 64 65 68 69 69 72 73 73 73 72 72 70 71 70 69 67 68 67 65 63 64
39 47 49 49 52 51 49 53 50 51 52 58 59 59 61 59 60 59 59 60 60 61 60 61 62 63 62 63 64 66 68 68 68 70 73 72 68 70 70 71 69 69 66 64 64 63 63 64 66
41 44 49 50 51 51 53 49 49 51 57 59 61 62 58 58 60 61 62 60 59 59 60 60 61 62 63 63 65 68 69 68 69 68 72 73 70 69 67 66 68 64 64 63 62 63 64 65 67
43 45 45 48 48 50 47 48 49 51 55 57 59 58 58 59 59 60 62 60 60 60 60 61 62 63 64 64 65 68 71 68 68 68 68 71 72 69 67 67 67 65 65 65 65 64 65 67 68
47 38 43 44 47 46 50 43 44 53 54 53 56 58 58 58 58 59 61 62 61 61 61 61 63 65 65 66 66 67 74 74 72 73 73 73 72 69 68 68 67 67 66 66 65 66 66 66 68
38 37 29 43 46 47 45 34 47 51 51 51 54 56 57 57 58 60 61 61 61 61 61 63 66 65 65 65 66 66 68 74 74 74 74 73 72 69 68 68 66 66 66 66 65 65 65 65 66
34 23 28 36 47 47 44 37 46 52 50 50 51 53 55 55 57 59 61 59 60 61 62 63 64 64 65 65 65 66 67 68 72 71 71 71 70 69 68 66 66 66 66 65 66 65 66 65 66
26 27 34 34 42 45 42 39 46 50 49 46 43 47 50 54 55 60 60 61 62 61 63 63 63 63 65 65 65 65 67 66 67 69 71 70 70 69 67 67 67 67 66 65 65 65 66 66 66
35 32 31 37 44 42 40 40 42 47 47 43 42 46 48 51 57 59 61 63 61 61 61 62 63 62 63 62 62 62 63 65 64 66 70 71 71 70 68 67 67 68 67 66 67 66 66 65 66
37 34 32 38 45 40 38 38 44 47 46 44 44 48 49 50 53 56 58 59 60 61 61 63 64 63 65 64 65 64 64 64 66 65 67 69 71 70 68 68 67 67 66 66 66 66 64 64 64
36 34 33 35 40 40 38 35 39 45 48 46 46 49 50 51 51 52 57 58 59 59 60 62 63 63 64 63 64 64 65 65 65 66 64 66 68 68 69 68 67 66 66 65 65 64 63 61 61
33 43 43 38 34 29 38 25 36 38 40 44 43 45 48 50 52 53 55 56 57 59 60 61 61 63 62 63 62 62 61 61 61 62 64 64 67 67 67 67 66 65 63 63 63 63 62 62 59
38 43 39 38 36 32 35 30 35 38 38 41 42 44 52 52 53 54 55 57 59 60 60 61 61 61 61 62 62 61 60 61 61 62 61 61 62 63 63 63 63 63 62 62 61 60 60 60 60
45 40 39 39 36 28 34 33 31 33 36 41 43 47 52 52 52 54 55 57 57 60 60 60 60 60 61 62 61 61 61 60 60 60 61 61 61 61 62 63 62 62 62 61 60 60 59 59 58
40 36 26 27 27 27 35 32 32 36 42 44 47 48 51 53 53 53 54 55 56 57 58 59 59 58 59 60 61 61 61 61 60 60 60 60 60 60 61 62 61 61 61 61 60 59 58 58 57
38 36 29 22 26 29 35 27 30 39 48 47 49 48 49 49 50 52 54 53 54 55 55 56 56 56 57 59 60 61 61 61 60 61 61 61 60 60 61 61 61 61 61 61 60 60 59 58 57
39 34 39 31 34 29 31 32 37 42 43 45 46 47 46 48 49 49 50 53 52 53 54 55 55 56 57 59 60 60 61 62 61 61 61 61 60 62 61 61 61 61 61 61 60 60 59 57 56
38 43 32 32 24 25 29 30 29 34 40 43 44 45 46 49 51 52 53 55 55 54 55 57 58 57 58 59 60 59 61 62 63 62 61 61 60 60 60 61 61 61 61 61 60 59 59 56 55
37 37 40 38 34 29 24 29 37 39 42 42 44 48 48 47 51 51 54 55 55 55 55 55 55 55 56 57 57 57 57 58 58 58 60 60 60 60 60 60 60 60 60 60 59 59 56 55 54
41 40 41 28 32 30 27 30 44 44 44 46 45 50 52 52 51 51 52 52 52 52 52 52 53 53 54 55 55 54 55 55 55 55 56 57 57 57 57 57 56 56 56 56 56 55 55 54 53

GFSSGP_sfc_temp_108.txt.gz
Temp
67 66 62 59 47 43 38 44 50 52 55 60 65 62 63 65 63 55 70 74 74 74 76 77 78 78 78 78 78 78 78 78 79 79 80 80 79 79 79 79 79 79 80 80 79 79 79 78 77
63 68 59 51 40 36 37 45 49 54 59 64 65 65 63 62 67 68 68 73 75 76 76 76 77 78 78 78 78 78 78 78 78 78 79 79 79 79 79 79 79 79 79 79 78 78 77 76 76
64 67 53 45 38 36 37 48 52 59 61 62 62 65 65 63 69 69 71 74 75 74 76 76 77 78 78 78 77 78 78 78 78 78 78 79 79 79 79 79 78 78 77 77 76 76 75 75 76
59 56 52 40 37 43 44 49 54 56 59 62 64 60 68 72 71 73 74 75 73 73 74 75 77 77 77 77 77 77 78 78 78 78 78 78 78 79 79 77 77 76 76 76 76 75 75 75 76
56 50 39 36 39 44 47 53 54 54 56 57 61 59 62 71 73 74 74 74 71 72 73 75 77 77 77 77 77 77 77 78 78 78 78 78 78 78 77 76 75 75 76 76 76 75 75 75 75
47 47 35 33 38 45 48 53 52 53 55 57 58 59 62 69 68 69 73 72 74 72 73 75 75 76 76 76 76 76 77 77 77 77 77 78 77 77 76 76 75 75 76 76 76 75 75 75 75
43 39 34 35 38 42 48 53 49 50 50 53 58 54 62 66 66 67 67 69 70 70 68 68 72 73 74 75 75 75 76 76 76 76 76 76 76 76 76 76 75 76 75 75 75 75 75 75 74
46 42 35 37 38 41 51 52 55 53 52 61 60 50 55 66 65 65 66 66 65 65 65 65 66 67 67 68 72 73 74 74 74 74 74 72 72 73 75 74 74 75 75 75 74 75 74 74 73
50 35 31 37 40 42 50 47 54 58 54 55 58 57 60 65 64 62 62 63 63 64 64 64 64 64 67 67 70 70 71 71 72 72 70 70 75 72 72 71 72 73 74 74 74 74 73 72 71
41 32 36 44 44 42 48 48 50 50 50 51 55 61 62 64 64 60 59 59 61 61 62 63 63 63 64 68 65 68 70 68 69 70 71 73 75 75 76 71 71 73 72 72 73 73 72 69 63
42 35 43 46 48 50 48 48 51 48 47 51 50 53 57 59 59 59 59 59 60 61 62 61 63 63 64 63 62 64 68 69 67 68 72 73 73 73 73 71 73 69 67 67 68 67 65 62 62
37 45 46 47 50 48 46 50 48 49 49 54 56 57 56 57 58 59 60 60 58 59 60 61 61 62 63 64 64 64 65 67 68 69 71 70 69 71 70 70 70 69 65 65 64 63 62 62 63
38 42 47 48 47 48 49 46 46 48 54 55 57 57 55 56 57 59 60 60 61 59 59 60 61 62 62 63 63 66 65 66 68 68 71 71 70 69 72 72 70 69 64 64 62 62 61 61 62
41 43 44 46 46 47 45 45 46 49 52 53 55 54 54 55 56 58 59 59 59 60 59 59 60 61 61 61 61 66 69 67 68 67 69 72 71 70 70 70 68 67 63 63 62 61 61 62 63
45 37 41 42 44 43 46 40 41 51 51 51 54 55 55 55 57 56 59 60 60 60 60 60 61 61 61 61 62 64 69 69 68 67 68 71 70 70 69 69 68 64 62 63 62 62 62 62 65
36 35 28 41 44 45 43 32 45 49 48 48 51 54 55 53 55 57 58 59 61 59 59 60 64 64 62 62 63 64 67 70 68 67 67 68 71 71 69 68 68 66 63 63 62 62 62 62 63
31 21 27 34 45 44 41 35 45 49 47 47 48 50 51 51 54 56 57 59 60 60 60 60 62 63 65 64 65 66 66 67 70 67 66 66 68 70 68 68 66 65 65 65 65 63 64 62 63
25 25 31 31 40 42 38 38 45 50 47 46 46 44 45 48 52 57 58 59 60 60 60 60 62 64 63 64 65 65 64 64 66 68 69 71 72 70 69 67 66 67 65 65 63 64 63 64 64
32 31 30 36 42 38 37 38 43 46 44 42 41 41 43 48 53 55 57 58 59 58 59 60 60 61 62 62 62 62 62 63 64 65 70 71 71 69 68 68 67 67 66 65 64 64 64 62 63
34 33 34 38 42 38 37 37 43 46 44 45 44 41 43 46 50 54 56 57 58 59 59 60 61 61 62 62 63 63 64 63 64 66 67 67 69 68 68 68 67 66 65 64 65 64 62 62 61
37 34 34 31 39 40 36 34 36 42 44 45 44 45 46 47 49 52 54 56 58 58 58 60 61 61 63 63 63 62 62 62 62 64 66 69 68 68 67 67 66 65 65 64 63 62 62 60 61
33 44 39 39 36 29 38 26 34 37 38 42 42 42 45 47 50 52 54 53 56 58 60 62 62 62 63 63 62 60 58 59 61 62 63 64 65 67 67 67 65 65 64 62 63 63 62 61 60
37 42 38 36 34 32 34 29 32 38 38 38 41 42 44 48 51 54 53 55 57 58 59 60 61 62 62 62 62 61 60 61 62 61 61 61 62 63 64 64 64 63 62 61 61 60 60 61 60
44 39 38 37 35 27 34 31 31 33 36 40 42 44 47 50 53 54 55 56 57 59 59 60 60 60 61 61 61 60 61 61 60 60 60 60 60 61 61 62 62 62 61 61 61 60 60 60 60
41 35 24 23 25 25 35 32 32 37 40 42 45 47 50 53 53 53 54 54 57 58 59 59 59 59 60 61 61 61 60 60 60 60 60 60 60 60 60 61 61 61 61 61 61 59 59 59 58
37 35 28 22 25 27 35 27 32 38 47 50 48 48 49 49 50 50 52 53 53 54 55 55 56 56 58 58 59 60 61 60 60 60 60 60 60 60 61 61 61 61 61 60 60 60 59 59 58
38 34 38 31 32 29 31 32 35 39 44 45 45 46 47 48 49 49 51 51 52 52 52 53 54 55 55 56 58 59 60 60 60 60 60 60 60 61 61 61 61 61 60 60 60 60 59 59 58
38 41 33 32 25 23 29 30 28 33 39 42 43 44 46 47 48 49 50 50 51 52 53 54 55 56 56 57 57 57 59 60 60 60 60 60 60 60 60 60 59 59 60 60 60 60 60 58 57
37 35 37 37 31 26 23 28 35 36 40 41 43 44 45 46 47 49 51 52 51 52 53 54 54 55 55 56 56 56 55 57 58 58 59 60 60 60 59 60 60 60 60 61 60 60 59 58 58
42 40 40 29 29 30 27 29 41 41 43 46 46 44 47 46 48 50 50 50 50 50 51 51 52 52 53 54 54 53 53 54 53 53 54 55 55 55 57 57 57 57 57 57 58 58 57 56 57

GFSSGP_sfc_temp_111.txt.gz
Temp
65 64 61 58 46 42 36 42 47 49 52 56 60 58 60 61 61 54 69 72 72 74 76 77 78 78 79 79 78 78 78 78 79 79 80 79 79 79 79 79 78 80 79 80 79 79 79 78 77
62 66 59 50 39 33 36 42 47 51 56 60 62 61 59 59 65 66 67 73 74 75 76 76 78 78 78 78 78 78 78 78 79 79 79 79 79 79 79 79 79 80 79 79 79 78 77 76 76
63 64 52 45 37 35 37 45 49 55 57 59 60 61 61 62 68 66 70 73 74 73 75 75 77 78 78 78 77 78 78 78 78 78 78 79 79 79 79 79 79 78 77 78 78 76 76 76 76
58 55 50 39 38 41 42 47 51 52 57 60 60 57 64 69 67 70 71 73 72 72 73 75 77 77 77 77 77 77 78 78 78 78 77 78 78 79 78 78 76 76 76 76 76 75 75 75 76
54 48 38 35 37 42 44 52 51 49 51 54 57 56 59 69 71 71 70 71 71 71 72 75 77 77 77 77 77 77 77 78 78 78 78 78 79 78 77 76 75 75 75 75 75 75 75 75 75
46 45 34 31 36 43 46 50 50 49 50 55 54 54 58 64 66 67 70 69 70 71 72 74 75 76 76 76 76 76 77 77 77 77 78 78 78 77 77 76 75 75 75 75 75 76 76 75 75
42 39 34 33 36 40 46 51 46 47 46 51 55 51 58 61 63 65 66 68 69 70 71 71 72 74 74 75 75 75 76 76 76 76 76 76 76 75 76 75 75 75 75 75 75 75 75 75 75
44 41 33 34 36 39 48 50 52 49 48 57 55 47 50 59 65 66 67 66 66 66 67 66 66 68 69 70 72 73 74 74 74 74 74 72 72 73 74 73 74 75 75 74 74 75 75 74 74
48 35 30 35 38 41 47 45 51 54 49 50 55 53 57 60 64 63 63 64 64 65 65 64 64 65 66 67 69 69 71 71 72 71 70 68 71 72 71 71 72 73 74 74 74 74 73 72 71
40 32 35 42 42 40 46 45 47 47 47 46 52 57 59 60 60 58 59 61 63 62 63 62 63 63 65 67 65 67 69 68 68 69 69 70 71 72 73 69 70 72 72 72 73 73 72 69 63
40 34 41 45 47 47 45 45 49 45 44 47 48 50 55 58 56 56 57 58 61 63 63 62 62 63 64 63 62 64 67 67 68 67 68 69 74 72 71 70 71 71 68 68 69 68 64 62 61
35 43 44 45 48 46 43 47 44 46 47 53 54 55 54 55 56 56 56 57 58 60 62 62 61 61 62 62 62 63 66 67 67 68 67 67 70 73 71 70 70 70 68 66 64 63 62 61 61
36 40 45 46 45 45 47 43 43 45 50 54 55 55 51 52 54 56 57 58 59 58 61 61 61 61 61 61 61 64 62 66 67 68 68 68 71 70 72 68 70 69 67 66 64 61 61 60 60
39 41 42 44 44 45 43 43 43 46 49 50 52 52 51 52 53 54 56 57 58 59 59 61 61 61 61 61 61 63 66 67 67 67 69 70 72 71 70 69 68 68 67 64 65 61 60 59 60
42 36 39 41 42 41 44 38 39 48 49 49 51 53 54 51 53 53 56 57 58 59 60 59 61 61 61 61 60 59 66 68 66 67 68 70 71 71 71 69 68 68 66 64 64 61 60 59 61
34 33 27 40 42 44 43 32 43 47 45 45 49 51 53 52 52 54 56 56 58 59 59 60 63 61 60 60 60 61 61 67 67 66 67 67 67 69 68 69 68 66 64 62 62 60 59 59 59
30 20 26 32 43 42 40 33 43 47 46 45 47 48 50 51 50 52 55 55 57 58 59 59 60 61 61 61 61 61 62 62 67 66 67 67 66 67 68 66 67 66 64 62 62 60 60 60 60
24 24 29 29 38 40 37 36 43 47 46 45 46 45 46 47 50 53 54 56 56 58 59 59 60 61 62 63 64 63 63 63 64 67 65 67 66 65 65 65 67 66 65 63 60 61 61 62 62
32 32 31 35 40 38 36 36 40 46 44 41 42 40 43 46 51 52 55 54 56 57 58 59 59 61 62 62 62 62 63 63 62 66 67 67 67 65 64 64 64 65 66 65 65 63 62 61 61
36 33 34 37 41 38 37 36 42 45 43 43 42 41 42 44 47 51 52 53 55 57 58 59 60 61 63 61 60 61 62 63 63 63 65 66 66 65 64 65 65 66 65 64 64 63 61 61 60
36 34 36 35 38 41 37 32 35 41 42 43 42 43 44 45 46 48 51 53 55 56 57 59 61 60 61 61 61 61 62 61 62 62 63 64 66 65 65 65 65 65 65 63 62 62 61 58 59
32 41 42 39 35 28 37 25 32 35 38 40 40 40 42 44 47 49 51 52 54 56 58 59 60 59 60 60 60 60 59 59 61 62 63 64 65 64 65 65 65 65 64 62 63 62 61 61 59
35 41 38 36 34 31 34 29 31 35 35 38 40 41 43 45 47 49 51 53 54 56 57 59 59 60 60 61 61 60 58 60 60 61 61 61 62 63 64 65 65 65 64 63 62 60 60 60 59
43 39 38 36 34 26 30 31 23 33 37 39 40 42 45 46 49 52 53 54 54 55 56 57 59 59 61 61 61 61 59 60 60 60 59 60 60 60 61 61 61 61 61 60 60 60 60 60 60
40 35 23 21 22 24 35 32 30 37 39 43 41 46 48 49 50 53 53 53 56 55 56 57 59 59 60 61 60 61 61 61 60 60 59 59 59 59 60 61 61 60 60 60 60 59 59 59 60
37 36 28 20 18 25 35 28 32 38 46 47 48 48 49 49 49 50 51 52 53 54 57 58 58 58 58 59 60 60 61 60 60 60 60 60 60 60 60 60 61 60 60 60 60 59 59 58 58
37 34 38 31 31 28 30 32 36 39 43 45 45 46 46 47 48 49 50 51 51 52 53 54 55 55 56 57 59 59 60 59 59 60 60 60 60 60 60 60 60 60 60 60 59 59 59 59 59
39 41 32 32 25 24 29 29 27 32 35 43 43 44 44 46 46 46 47 48 49 50 51 52 53 53 54 55 55 55 57 59 60 60 59 59 60 60 60 60 60 59 59 59 60 60 60 59 59
37 35 36 35 31 25 25 28 34 34 37 40 41 43 44 44 44 45 46 47 48 48 49 51 53 53 53 54 54 54 54 55 56 56 57 58 59 59 59 59 59 59 59 60 60 60 60 59 59
42 38 38 28 28 28 27 29 38 39 40 43 42 44 46 47 47 48 49 50 50 50 50 51 51 52 52 53 53 52 52 53 53 52 53 54 53 54 54 54 56 56 57 57 57 58 58 58 57

GFSSGP_sfc_temp_114.txt.gz
Temp
65 63 60 57 46 40 35 40 44 46 50 53 56 56 56 57 59 53 68 70 71 72 74 77 78 79 79 79 78 78 78 78 79 79 80 79 79 79 79 79 80 80 79 80 80 80 80 77 77
61 64 58 49 38 32 36 40 45 49 53 57 56 56 56 58 62 66 66 70 72 73 74 75 78 78 79 79 78 78 78 78 79 79 79 79 79 79 79 79 79 79 79 79 79 78 77 77 76
61 63 52 44 36 35 37 43 45 52 54 56 56 57 58 60 67 65 69 72 72 72 73 75 77 78 78 78 78 78 78 78 78 79 79 79 79 79 78 78 79 78 78 78 77 77 76 76 76
58 55 49 39 35 39 41 44 48 50 54 57 56 53 61 64 62 67 71 71 70 70 71 74 77 77 77 77 77 77 78 78 78 78 77 78 79 79 78 77 77 76 77 77 76 76 75 76 76
53 48 37 33 36 40 42 47 48 47 50 52 54 54 55 62 64 67 68 71 70 71 70 74 77 77 77 77 77 77 77 78 78 78 78 78 78 78 77 76 75 75 76 76 76 75 75 75 75
46 44 33 31 34 41 44 48 47 47 48 52 51 53 55 59 62 66 68 68 70 72 72 73 75 76 76 76 76 76 77 77 77 77 78 78 78 77 77 76 75 75 75 75 75 75 76 75 75
43 39 34 33 34 39 44 48 44 47 45 48 51 47 55 58 59 64 67 68 68 70 71 70 72 73 73 75 75 76 76 76 76 76 77 76 76 76 76 75 75 75 75 75 75 75 75 75 75
44 40 32 34 36 39 44 48 49 47 45 54 52 46 49 56 59 62 65 66 67 68 67 67 69 70 70 70 73 73 74 74 75 74 74 72 72 73 75 73 74 75 75 75 74 75 75 74 74
46 35 31 34 36 39 44 44 49 51 47 48 52 50 56 58 60 59 60 63 65 66 66 65 66 67 68 68 69 71 72 72 72 72 69 69 70 71 70 71 71 73 74 74 74 74 74 72 71
39 32 35 40 40 38 43 43 45 45 45 44 50 56 57 57 56 55 55 57 60 64 64 64 64 64 65 68 66 67 69 69 69 69 69 69 69 70 72 69 69 72 72 72 73 73 72 69 62
38 34 39 43 45 46 43 43 46 42 41 45 46 50 53 55 55 53 54 57 58 61 64 64 63 62 63 63 63 64 66 68 67 67 67 68 69 69 71 69 69 69 67 68 69 68 65 62 61
34 42 42 44 45 44 41 45 42 44 44 50 52 53 51 51 52 53 53 54 56 59 61 64 64 62 62 63 62 63 64 68 68 68 68 66 65 67 69 68 67 67 67 66 65 65 62 61 60
35 39 43 44 44 43 45 41 41 43 50 52 52 53 50 50 51 52 55 55 55 57 60 62 63 61 62 61 62 64 61 64 67 69 69 67 67 70 71 66 65 65 66 65 65 63 62 59 59
37 40 40 42 42 43 41 41 41 44 46 48 50 49 49 49 50 51 52 53 55 58 59 61 62 61 62 61 60 60 61 63 65 66 67 69 69 71 71 70 68 64 65 64 65 62 60 59 59
40 35 37 39 41 40 43 37 37 46 45 46 48 50 51 50 50 51 54 54 55 56 59 59 61 62 61 61 61 60 61 65 64 65 67 68 68 68 70 69 67 67 67 65 63 63 60 58 59
33 32 27 38 40 43 42 31 43 46 43 43 46 50 50 50 50 52 53 55 56 55 57 59 63 62 61 61 61 60 60 62 63 66 65 67 69 69 69 68 67 67 66 66 64 62 59 58 57
30 21 26 32 41 41 38 33 41 45 44 45 47 48 49 50 49 50 52 54 55 54 56 57 59 60 60 60 59 59 60 59 62 64 66 67 68 69 68 67 67 65 65 65 65 61 61 58 58
23 24 30 29 36 38 35 35 42 46 45 43 45 46 46 46 49 51 52 54 53 52 55 57 58 59 59 60 59 60 60 60 60 62 65 67 67 67 67 67 65 65 63 62 63 62 60 60 60
35 34 33 37 40 37 34 35 39 45 43 41 42 43 43 45 49 49 52 53 52 52 53 57 57 58 60 61 61 60 61 63 63 62 65 67 67 65 65 65 64 64 62 62 63 62 61 59 59
34 32 29 36 39 36 36 35 42 44 43 42 42 41 41 43 45 49 49 51 51 53 54 56 58 59 61 61 61 63 63 63 63 63 65 66 66 65 65 64 63 63 62 62 61 62 60 61 59
30 28 30 34 40 39 36 30 34 40 41 42 42 41 42 42 44 47 48 48 49 51 53 56 59 61 63 62 62 62 62 61 61 62 63 65 66 65 64 63 63 63 62 62 62 61 61 58 58
28 38 38 39 36 28 38 24 31 35 37 40 40 39 40 42 45 46 48 49 50 52 54 57 59 62 62 60 61 61 59 58 59 62 63 63 65 64 63 63 63 63 63 63 63 62 61 60 58
34 39 36 35 34 32 32 28 30 36 35 39 42 41 41 43 45 46 49 51 53 54 54 57 58 60 59 61 62 60 57 58 58 60 61 61 62 63 63 63 63 63 63 63 63 61 60 61 59
41 36 36 34 35 25 29 30 27 34 35 38 43 44 46 45 46 48 51 52 52 53 55 56 58 59 58 59 59 59 58 58 58 58 60 60 60 62 63 63 63 63 63 63 62 60 60 60 60
37 35 22 19 23 22 34 32 32 37 39 43 44 47 48 50 50 50 50 51 52 52 55 56 57 58 59 58 58 60 59 58 58 59 60 59 59 59 60 61 61 60 60 60 60 59 59 59 59
37 35 27 17 18 25 35 26 32 40 43 47 48 47 48 48 47 49 50 52 53 54 54 56 57 58 59 60 60 60 61 60 61 60 60 60 60 60 60 60 60 60 60 60 60 59 59 59 59
37 33 38 31 31 28 30 33 38 40 39 44 44 45 44 45 45 45 47 49 51 52 54 56 56 56 57 59 59 59 60 60 59 60 60 59 59 60 60 60 60 60 60 60 60 59 59 58 59
39 41 32 32 24 23 29 29 27 31 34 39 41 41 42 44 44 45 45 46 48 49 51 52 53 53 54 54 55 55 57 59 59 59 59 59 59 59 60 59 59 59 59 60 59 59 59 59 59
37 35 36 36 31 26 24 27 34 32 35 37 41 42 42 43 44 44 45 46 47 48 48 50 50 51 51 51 52 52 52 53 54 54 55 56 57 57 57 58 59 59 58 58 58 58 58 59 59
39 36 37 28 28 29 28 29 40 39 40 42 42 43 45 46 46 46 46 46 46 47 47 47 49 48 50 51 51 51 51 52 52 52 52 53 52 52 52 53 54 54 55 55 55 55 55 56 56

GFSSGP_sfc_temp_117.txt.gz
Temp
67 68 68 65 54 51 45 49 53 54 56 63 63 64 65 68 66 62 76 75 76 78 80 81 79 79 79 79 79 78 78 78 79 79 79 79 79 79 79 79 80 80 80 80 80 79 80 78 77
67 68 65 57 48 44 47 50 51 56 60 62 63 65 65 66 70 72 73 76 75 78 80 82 78 79 79 78 78 78 78 79 79 79 79 79 79 79 79 80 80 79 80 79 79 79 79 78 76
67 66 59 52 45 44 48 49 54 58 60 62 63 66 65 61 70 69 73 75 77 77 79 80 77 78 79 78 78 78 78 78 79 79 79 79 79 79 79 79 78 78 78 78 78 78 76 76 76
64 62 56 48 43 47 49 52 55 57 61 62 61 61 65 67 65 68 71 75 76 77 79 78 77 77 78 77 77 78 78 78 78 79 78 78 79 79 78 77 77 77 76 77 77 76 76 76 76
58 55 45 42 43 46 50 54 56 55 57 60 60 60 61 67 68 70 69 72 75 75 77 79 77 77 77 77 77 77 77 78 78 78 78 78 79 78 77 76 76 76 76 76 76 76 76 75 76
51 50 41 40 42 46 50 55 55 56 57 60 60 60 62 67 65 65 70 69 73 76 77 79 76 76 76 76 76 76 77 77 77 77 78 78 78 78 76 76 76 76 76 76 76 76 76 75 76
48 46 42 40 42 45 50 53 54 55 55 58 60 57 64 65 63 65 69 70 70 72 75 76 79 78 74 75 75 75 76 76 76 76 76 76 76 76 76 75 75 76 76 76 75 75 75 75 75
49 46 39 41 41 45 49 52 54 55 55 60 61 57 59 63 64 64 68 69 71 69 69 71 76 77 77 77 73 73 74 74 74 74 73 72 72 73 74 73 74 75 75 75 75 75 75 75 74
52 41 38 41 40 46 49 49 54 56 54 56 59 59 64 63 63 63 62 64 68 69 68 67 68 73 74 75 75 71 72 72 72 73 70 71 79 78 76 73 72 73 74 74 74 75 74 72 71
45 39 41 45 46 45 47 48 49 50 51 52 55 61 63 62 61 58 59 59 63 66 69 67 67 67 71 72 73 76 76 77 78 78 77 78 78 78 77 72 69 72 72 72 73 74 72 71 77
43 39 43 46 48 47 46 46 50 48 46 51 53 57 58 59 59 58 58 60 61 65 66 69 67 66 67 69 70 71 72 72 75 76 74 76 75 75 75 76 76 76 70 76 75 75 76 74 74
41 44 44 46 47 45 44 47 46 47 51 56 56 56 56 56 56 57 58 58 60 62 64 67 68 66 67 68 69 71 69 72 73 74 74 73 73 73 73 75 74 75 75 74 74 75 74 72 71
40 41 44 46 45 45 46 44 45 45 52 55 54 54 53 54 55 56 59 59 60 59 63 66 67 67 67 67 69 70 68 70 73 74 74 72 73 73 73 74 72 74 74 74 73 72 73 72 70
41 41 42 44 44 45 43 44 44 48 51 51 51 52 53 53 55 56 56 58 59 61 62 65 66 67 67 66 67 70 69 68 70 72 73 73 72 72 72 72 70 74 73 72 73 71 71 71 71
42 38 40 42 43 42 45 39 39 50 49 49 51 52 53 54 55 54 57 58 60 61 62 63 65 66 65 66 67 67 69 71 69 71 73 71 69 71 75 74 73 71 73 69 68 72 72 69 69
36 36 34 42 43 45 44 37 46 50 47 48 50 52 53 56 56 56 57 58 60 60 61 64 66 65 66 66 66 66 67 70 70 70 71 73 70 69 69 72 73 72 68 70 65 66 69 65 66
33 29 30 35 43 42 41 37 44 50 50 48 50 51 52 53 54 54 57 58 59 60 60 61 64 64 65 66 66 65 66 66 69 69 70 71 72 72 70 70 72 71 68 69 67 63 68 65 65
28 28 32 32 39 41 37 36 43 47 47 47 48 49 50 50 52 56 55 57 58 59 59 60 62 64 64 65 64 64 64 65 65 67 68 70 71 71 69 71 69 70 68 66 66 64 63 64 65
34 33 31 36 41 37 36 37 42 47 47 46 46 46 47 48 53 54 54 56 56 56 57 58 60 63 63 62 62 62 63 65 65 64 67 69 70 71 70 69 67 68 66 65 65 63 62 61 66
33 30 30 36 40 38 38 38 44 46 45 45 46 46 46 47 49 51 52 53 54 55 57 58 60 62 63 64 64 65 65 66 67 66 65 68 69 69 69 68 66 66 65 64 62 62 60 61 62
31 30 31 33 39 42 39 35 37 44 45 45 47 47 47 46 47 50 52 53 53 53 55 58 60 62 63 64 64 64 65 65 64 65 65 66 69 68 67 67 66 66 64 64 64 63 62 60 60
30 37 37 36 35 29 41 27 35 39 41 44 46 47 47 47 49 50 51 52 53 53 55 58 60 61 63 64 61 63 62 61 63 65 65 66 68 66 66 65 66 66 66 64 64 63 63 61 60
35 41 37 36 34 32 34 30 34 40 38 39 43 47 48 48 48 49 51 53 55 55 55 57 60 61 63 63 62 63 61 61 64 64 64 65 65 66 64 64 63 64 65 65 65 63 62 62 61
42 37 37 36 35 27 32 31 30 34 35 38 43 48 48 49 50 52 53 54 55 56 57 57 59 60 62 61 62 62 61 61 60 61 62 62 64 64 63 64 65 64 63 62 63 61 62 63 62
38 34 22 21 25 23 34 32 33 37 39 40 44 46 48 48 47 48 51 54 55 55 56 57 58 59 60 60 61 61 61 61 62 61 61 61 61 61 62 63 62 62 62 63 61 60 61 62 61
37 36 25 18 21 25 35 27 32 41 42 44 46 45 46 47 46 46 47 53 53 54 55 56 57 59 59 60 60 62 62 62 62 62 62 63 62 61 63 62 61 61 61 61 61 60 60 59 60
36 33 39 31 32 28 31 33 38 41 38 41 42 43 43 44 45 45 47 49 50 52 53 56 57 59 60 61 61 60 61 61 60 61 62 60 60 60 61 61 60 60 60 60 60 59 59 59 60
39 42 32 32 23 22 29 28 28 32 34 37 40 40 43 44 44 44 45 46 47 49 51 52 52 52 53 52 54 54 52 56 58 58 59 59 59 59 59 60 60 60 60 60 59 59 59 59 59
37 35 35 35 32 26 24 26 35 34 37 38 40 43 43 43 43 44 45 46 47 48 48 48 48 49 49 49 50 50 50 51 52 52 52 53 54 54 55 55 55 56 57 58 58 58 58 58 58
40 37 37 30 29 30 29 29 42 42 41 42 42 44 46 46 46 45 45 45 45 45 46 46 47 47 48 49 48 48 49 49 49 49 50 51 50 51 51 52 53 52 52 52 53 53 54 55 54